<?xml version="1.0" encoding="UTF-8" standalone="no" ?>
<gpx xmlns="http://www.topografix.com/GPX/1/1" xmlns:xsi="http://www.w3.org/2001/XMLSchema-instance" xsi:schemaLocation="http://www.topografix.com/GPX/1/1 http://www.topografix.com/GPX/1/1/gpx.xsd" version="1.1" creator="VisuGPX - https://www.visugpx.com">
  <metadata>
    <name>La Dragonnière_200220</name>
    <desc><![CDATA[
]]></desc>
  </metadata>
  <trk>
    <name><![CDATA[La Dragonnière_200220]]></name>
    <trkseg>
      <trkpt lat="44.25503" lon="5.64239">
        <ele>819.79296875</ele>
        <time>2020-02-20T08:19:02Z</time>
      </trkpt>
      <trkpt lat="44.25502" lon="5.6424">
        <ele>819.5234375</ele>
        <time>2020-02-20T08:19:03Z</time>
      </trkpt>
      <trkpt lat="44.25503" lon="5.64241">
        <ele>819.60546875</ele>
        <time>2020-02-20T08:19:06Z</time>
      </trkpt>
      <trkpt lat="44.25503" lon="5.64241">
        <ele>819.578125</ele>
        <time>2020-02-20T08:19:07Z</time>
      </trkpt>
      <trkpt lat="44.25505" lon="5.64241">
        <ele>819.83203125</ele>
        <time>2020-02-20T08:19:08Z</time>
      </trkpt>
      <trkpt lat="44.25506" lon="5.64241">
        <ele>819.97265625</ele>
        <time>2020-02-20T08:19:09Z</time>
      </trkpt>
      <trkpt lat="44.25506" lon="5.64241">
        <ele>819.9765625</ele>
        <time>2020-02-20T08:19:10Z</time>
      </trkpt>
      <trkpt lat="44.25506" lon="5.64241">
        <ele>819.9453125</ele>
        <time>2020-02-20T08:19:11Z</time>
      </trkpt>
      <trkpt lat="44.25506" lon="5.64241">
        <ele>819.98046875</ele>
        <time>2020-02-20T08:19:12Z</time>
      </trkpt>
      <trkpt lat="44.25507" lon="5.64241">
        <ele>820.14453125</ele>
        <time>2020-02-20T08:19:14Z</time>
      </trkpt>
      <trkpt lat="44.25508" lon="5.64241">
        <ele>820.28125</ele>
        <time>2020-02-20T08:19:15Z</time>
      </trkpt>
      <trkpt lat="44.25509" lon="5.64241">
        <ele>820.41796875</ele>
        <time>2020-02-20T08:19:17Z</time>
      </trkpt>
      <trkpt lat="44.2551" lon="5.64241">
        <ele>820.484375</ele>
        <time>2020-02-20T08:19:19Z</time>
      </trkpt>
      <trkpt lat="44.2551" lon="5.64242">
        <ele>820.484375</ele>
        <time>2020-02-20T08:19:21Z</time>
      </trkpt>
      <trkpt lat="44.2551" lon="5.64242">
        <ele>820.41015625</ele>
        <time>2020-02-20T08:19:23Z</time>
      </trkpt>
      <trkpt lat="44.2551" lon="5.64243">
        <ele>820.21484375</ele>
        <time>2020-02-20T08:19:25Z</time>
      </trkpt>
      <trkpt lat="44.2551" lon="5.64244">
        <ele>820.0546875</ele>
        <time>2020-02-20T08:19:27Z</time>
      </trkpt>
      <trkpt lat="44.25509" lon="5.64245">
        <ele>819.83984375</ele>
        <time>2020-02-20T08:19:29Z</time>
      </trkpt>
      <trkpt lat="44.25508" lon="5.64246">
        <ele>819.6796875</ele>
        <time>2020-02-20T08:19:31Z</time>
      </trkpt>
      <trkpt lat="44.25509" lon="5.64246">
        <ele>819.75390625</ele>
        <time>2020-02-20T08:19:34Z</time>
      </trkpt>
      <trkpt lat="44.25508" lon="5.64246">
        <ele>819.69140625</ele>
        <time>2020-02-20T08:19:37Z</time>
      </trkpt>
      <trkpt lat="44.25508" lon="5.64246">
        <ele>819.6953125</ele>
        <time>2020-02-20T08:19:40Z</time>
      </trkpt>
      <trkpt lat="44.25509" lon="5.64246">
        <ele>819.82421875</ele>
        <time>2020-02-20T08:19:43Z</time>
      </trkpt>
      <trkpt lat="44.25509" lon="5.64244">
        <ele>820.0546875</ele>
        <time>2020-02-20T08:19:47Z</time>
      </trkpt>
      <trkpt lat="44.25509" lon="5.64244">
        <ele>820.09765625</ele>
        <time>2020-02-20T08:19:51Z</time>
      </trkpt>
      <trkpt lat="44.25509" lon="5.64243">
        <ele>820.0546875</ele>
        <time>2020-02-20T08:19:55Z</time>
      </trkpt>
      <trkpt lat="44.25509" lon="5.64244">
        <ele>820.02734375</ele>
        <time>2020-02-20T08:19:56Z</time>
      </trkpt>
      <trkpt lat="44.25508" lon="5.64244">
        <ele>819.8984375</ele>
        <time>2020-02-20T08:19:59Z</time>
      </trkpt>
      <trkpt lat="44.25509" lon="5.64244">
        <ele>820</ele>
        <time>2020-02-20T08:20:02Z</time>
      </trkpt>
      <trkpt lat="44.25509" lon="5.64244">
        <ele>820.046875</ele>
        <time>2020-02-20T08:20:08Z</time>
      </trkpt>
      <trkpt lat="44.25509" lon="5.64242">
        <ele>820.15234375</ele>
        <time>2020-02-20T08:20:17Z</time>
      </trkpt>
      <trkpt lat="44.25508" lon="5.64242">
        <ele>820.0625</ele>
        <time>2020-02-20T08:20:20Z</time>
      </trkpt>
      <trkpt lat="44.25508" lon="5.64247">
        <ele>819.48046875</ele>
        <time>2020-02-20T08:20:35Z</time>
      </trkpt>
      <trkpt lat="44.25508" lon="5.64249">
        <ele>819.23046875</ele>
        <time>2020-02-20T08:20:58Z</time>
      </trkpt>
      <trkpt lat="44.2551" lon="5.64246">
        <ele>819.91015625</ele>
        <time>2020-02-20T08:21:25Z</time>
      </trkpt>
      <trkpt lat="44.2551" lon="5.64246">
        <ele>820.015625</ele>
        <time>2020-02-20T08:21:47Z</time>
      </trkpt>
      <trkpt lat="44.2551" lon="5.64245">
        <ele>820.06640625</ele>
        <time>2020-02-20T08:22:09Z</time>
      </trkpt>
      <trkpt lat="44.2551" lon="5.64243">
        <ele>820.24609375</ele>
        <time>2020-02-20T08:22:29Z</time>
      </trkpt>
      <trkpt lat="44.2551" lon="5.64244">
        <ele>820.1796875</ele>
        <time>2020-02-20T08:22:41Z</time>
      </trkpt>
      <trkpt lat="44.2551" lon="5.64244">
        <ele>820.23046875</ele>
        <time>2020-02-20T08:22:53Z</time>
      </trkpt>
      <trkpt lat="44.2551" lon="5.64243">
        <ele>820.28125</ele>
        <time>2020-02-20T08:23:09Z</time>
      </trkpt>
      <trkpt lat="44.2551" lon="5.64242">
        <ele>820.41015625</ele>
        <time>2020-02-20T08:23:33Z</time>
      </trkpt>
      <trkpt lat="44.25512" lon="5.64242">
        <ele>820.62109375</ele>
        <time>2020-02-20T08:23:53Z</time>
      </trkpt>
      <trkpt lat="44.25512" lon="5.64243">
        <ele>820.58984375</ele>
        <time>2020-02-20T08:24:16Z</time>
      </trkpt>
      <trkpt lat="44.25511" lon="5.64242">
        <ele>820.56640625</ele>
        <time>2020-02-20T08:24:28Z</time>
      </trkpt>
      <trkpt lat="44.25511" lon="5.64242">
        <ele>820.57421875</ele>
        <time>2020-02-20T08:24:29Z</time>
      </trkpt>
      <trkpt lat="44.25511" lon="5.64242">
        <ele>820.5625</ele>
        <time>2020-02-20T08:24:31Z</time>
      </trkpt>
      <trkpt lat="44.25511" lon="5.64242">
        <ele>820.60546875</ele>
        <time>2020-02-20T08:24:47Z</time>
      </trkpt>
      <trkpt lat="44.25512" lon="5.64241">
        <ele>820.8828125</ele>
        <time>2020-02-20T08:25:03Z</time>
      </trkpt>
      <trkpt lat="44.25509" lon="5.64249">
        <ele>819.453125</ele>
        <time>2020-02-20T08:25:13Z</time>
      </trkpt>
      <trkpt lat="44.25509" lon="5.64253">
        <ele>818.97265625</ele>
        <time>2020-02-20T08:25:24Z</time>
      </trkpt>
      <trkpt lat="44.2551" lon="5.64253">
        <ele>819.1171875</ele>
        <time>2020-02-20T08:25:37Z</time>
      </trkpt>
      <trkpt lat="44.25512" lon="5.64252">
        <ele>819.37890625</ele>
        <time>2020-02-20T08:25:59Z</time>
      </trkpt>
      <trkpt lat="44.25512" lon="5.64249">
        <ele>819.80078125</ele>
        <time>2020-02-20T08:26:27Z</time>
      </trkpt>
      <trkpt lat="44.25513" lon="5.64247">
        <ele>820.2109375</ele>
        <time>2020-02-20T08:26:53Z</time>
      </trkpt>
      <trkpt lat="44.25512" lon="5.64247">
        <ele>820.05859375</ele>
        <time>2020-02-20T08:27:19Z</time>
      </trkpt>
      <trkpt lat="44.25512" lon="5.64247">
        <ele>820.03515625</ele>
        <time>2020-02-20T08:27:48Z</time>
      </trkpt>
      <trkpt lat="44.25512" lon="5.64247">
        <ele>820.1484375</ele>
        <time>2020-02-20T08:28:13Z</time>
      </trkpt>
      <trkpt lat="44.25514" lon="5.64246">
        <ele>820.4921875</ele>
        <time>2020-02-20T08:28:42Z</time>
      </trkpt>
      <trkpt lat="44.25514" lon="5.64245">
        <ele>820.609375</ele>
        <time>2020-02-20T08:29:14Z</time>
      </trkpt>
      <trkpt lat="44.25513" lon="5.64245">
        <ele>820.47265625</ele>
        <time>2020-02-20T08:29:35Z</time>
      </trkpt>
      <trkpt lat="44.25513" lon="5.64246">
        <ele>820.3984375</ele>
        <time>2020-02-20T08:29:47Z</time>
      </trkpt>
      <trkpt lat="44.25516" lon="5.64253">
        <ele>819.74609375</ele>
        <time>2020-02-20T08:29:52Z</time>
      </trkpt>
      <trkpt lat="44.25521" lon="5.64271">
        <ele>818.0546875</ele>
        <time>2020-02-20T08:30:02Z</time>
      </trkpt>
      <trkpt lat="44.25526" lon="5.64278">
        <ele>817.8125</ele>
        <time>2020-02-20T08:30:10Z</time>
      </trkpt>
      <trkpt lat="44.25529" lon="5.64286">
        <ele>817.53515625</ele>
        <time>2020-02-20T08:30:14Z</time>
      </trkpt>
      <trkpt lat="44.25531" lon="5.6429">
        <ele>817.46875</ele>
        <time>2020-02-20T08:30:16Z</time>
      </trkpt>
      <trkpt lat="44.25536" lon="5.64293">
        <ele>818.06640625</ele>
        <time>2020-02-20T08:30:22Z</time>
      </trkpt>
      <trkpt lat="44.25538" lon="5.64292">
        <ele>818.56640625</ele>
        <time>2020-02-20T08:30:24Z</time>
      </trkpt>
      <trkpt lat="44.25539" lon="5.64292">
        <ele>818.74609375</ele>
        <time>2020-02-20T08:30:25Z</time>
      </trkpt>
      <trkpt lat="44.25543" lon="5.64299">
        <ele>818.4921875</ele>
        <time>2020-02-20T08:30:29Z</time>
      </trkpt>
      <trkpt lat="44.25548" lon="5.64305">
        <ele>818.6015625</ele>
        <time>2020-02-20T08:30:34Z</time>
      </trkpt>
      <trkpt lat="44.2555" lon="5.64307">
        <ele>818.6640625</ele>
        <time>2020-02-20T08:30:37Z</time>
      </trkpt>
      <trkpt lat="44.25555" lon="5.64311">
        <ele>819.15234375</ele>
        <time>2020-02-20T08:30:41Z</time>
      </trkpt>
      <trkpt lat="44.25567" lon="5.6432">
        <ele>820.25</ele>
        <time>2020-02-20T08:30:52Z</time>
      </trkpt>
      <trkpt lat="44.25575" lon="5.64327">
        <ele>821.28515625</ele>
        <time>2020-02-20T08:31:01Z</time>
      </trkpt>
      <trkpt lat="44.25576" lon="5.64328">
        <ele>821.3203125</ele>
        <time>2020-02-20T08:31:02Z</time>
      </trkpt>
      <trkpt lat="44.25587" lon="5.64337">
        <ele>823.07421875</ele>
        <time>2020-02-20T08:31:12Z</time>
      </trkpt>
      <trkpt lat="44.25599" lon="5.64344">
        <ele>825.1953125</ele>
        <time>2020-02-20T08:31:24Z</time>
      </trkpt>
      <trkpt lat="44.25604" lon="5.64351">
        <ele>825.69921875</ele>
        <time>2020-02-20T08:31:32Z</time>
      </trkpt>
      <trkpt lat="44.25609" lon="5.64356">
        <ele>826.2578125</ele>
        <time>2020-02-20T08:31:38Z</time>
      </trkpt>
      <trkpt lat="44.25619" lon="5.64366">
        <ele>827.62890625</ele>
        <time>2020-02-20T08:31:49Z</time>
      </trkpt>
      <trkpt lat="44.25629" lon="5.64373">
        <ele>829.58203125</ele>
        <time>2020-02-20T08:32:00Z</time>
      </trkpt>
      <trkpt lat="44.25637" lon="5.64382">
        <ele>830.7734375</ele>
        <time>2020-02-20T08:32:09Z</time>
      </trkpt>
      <trkpt lat="44.25642" lon="5.64387">
        <ele>831.83203125</ele>
        <time>2020-02-20T08:32:15Z</time>
      </trkpt>
      <trkpt lat="44.25648" lon="5.64401">
        <ele>832.0859375</ele>
        <time>2020-02-20T08:32:26Z</time>
      </trkpt>
      <trkpt lat="44.25653" lon="5.64417">
        <ele>832.3984375</ele>
        <time>2020-02-20T08:32:39Z</time>
      </trkpt>
      <trkpt lat="44.25657" lon="5.64432">
        <ele>832.70703125</ele>
        <time>2020-02-20T08:32:49Z</time>
      </trkpt>
      <trkpt lat="44.25661" lon="5.64443">
        <ele>833.25390625</ele>
        <time>2020-02-20T08:32:57Z</time>
      </trkpt>
      <trkpt lat="44.25664" lon="5.64446">
        <ele>833.953125</ele>
        <time>2020-02-20T08:33:07Z</time>
      </trkpt>
      <trkpt lat="44.25664" lon="5.64448">
        <ele>833.91015625</ele>
        <time>2020-02-20T08:33:15Z</time>
      </trkpt>
      <trkpt lat="44.25675" lon="5.64459">
        <ele>836.8125</ele>
        <time>2020-02-20T08:33:26Z</time>
      </trkpt>
      <trkpt lat="44.25683" lon="5.64468">
        <ele>839.33203125</ele>
        <time>2020-02-20T08:33:36Z</time>
      </trkpt>
      <trkpt lat="44.25692" lon="5.64486">
        <ele>841.1875</ele>
        <time>2020-02-20T08:33:48Z</time>
      </trkpt>
      <trkpt lat="44.25698" lon="5.64496">
        <ele>842.46484375</ele>
        <time>2020-02-20T08:33:57Z</time>
      </trkpt>
      <trkpt lat="44.25702" lon="5.64504">
        <ele>843.56640625</ele>
        <time>2020-02-20T08:34:04Z</time>
      </trkpt>
      <trkpt lat="44.25709" lon="5.64517">
        <ele>845.109375</ele>
        <time>2020-02-20T08:34:15Z</time>
      </trkpt>
      <trkpt lat="44.25715" lon="5.6453">
        <ele>846.09375</ele>
        <time>2020-02-20T08:34:25Z</time>
      </trkpt>
      <trkpt lat="44.25717" lon="5.64534">
        <ele>846.78515625</ele>
        <time>2020-02-20T08:34:30Z</time>
      </trkpt>
      <trkpt lat="44.25719" lon="5.64539">
        <ele>847.1640625</ele>
        <time>2020-02-20T08:34:34Z</time>
      </trkpt>
      <trkpt lat="44.25725" lon="5.64554">
        <ele>849.1796875</ele>
        <time>2020-02-20T08:34:47Z</time>
      </trkpt>
      <trkpt lat="44.2573" lon="5.64569">
        <ele>851.4765625</ele>
        <time>2020-02-20T08:34:59Z</time>
      </trkpt>
      <trkpt lat="44.25731" lon="5.64573">
        <ele>852</ele>
        <time>2020-02-20T08:35:02Z</time>
      </trkpt>
      <trkpt lat="44.25733" lon="5.6458">
        <ele>852.78125</ele>
        <time>2020-02-20T08:35:06Z</time>
      </trkpt>
      <trkpt lat="44.25735" lon="5.64595">
        <ele>853.8828125</ele>
        <time>2020-02-20T08:35:17Z</time>
      </trkpt>
      <trkpt lat="44.25735" lon="5.64611">
        <ele>854.34375</ele>
        <time>2020-02-20T08:35:28Z</time>
      </trkpt>
      <trkpt lat="44.25735" lon="5.64624">
        <ele>854.55859375</ele>
        <time>2020-02-20T08:35:39Z</time>
      </trkpt>
      <trkpt lat="44.25734" lon="5.64634">
        <ele>854.36328125</ele>
        <time>2020-02-20T08:35:48Z</time>
      </trkpt>
      <trkpt lat="44.25734" lon="5.64648">
        <ele>853.99609375</ele>
        <time>2020-02-20T08:35:58Z</time>
      </trkpt>
      <trkpt lat="44.25733" lon="5.64663">
        <ele>853.515625</ele>
        <time>2020-02-20T08:36:08Z</time>
      </trkpt>
      <trkpt lat="44.25733" lon="5.64665">
        <ele>853.46484375</ele>
        <time>2020-02-20T08:36:10Z</time>
      </trkpt>
      <trkpt lat="44.25734" lon="5.64673">
        <ele>853.48828125</ele>
        <time>2020-02-20T08:36:21Z</time>
      </trkpt>
      <trkpt lat="44.25733" lon="5.64674">
        <ele>853.06640625</ele>
        <time>2020-02-20T08:36:30Z</time>
      </trkpt>
      <trkpt lat="44.25732" lon="5.64676">
        <ele>852.79296875</ele>
        <time>2020-02-20T08:36:41Z</time>
      </trkpt>
      <trkpt lat="44.25731" lon="5.64677">
        <ele>852.4609375</ele>
        <time>2020-02-20T08:36:56Z</time>
      </trkpt>
      <trkpt lat="44.25731" lon="5.64675">
        <ele>852.45703125</ele>
        <time>2020-02-20T08:37:04Z</time>
      </trkpt>
      <trkpt lat="44.25732" lon="5.64675">
        <ele>852.73046875</ele>
        <time>2020-02-20T08:37:15Z</time>
      </trkpt>
      <trkpt lat="44.25733" lon="5.64676">
        <ele>852.890625</ele>
        <time>2020-02-20T08:37:25Z</time>
      </trkpt>
      <trkpt lat="44.25734" lon="5.64678">
        <ele>853.1328125</ele>
        <time>2020-02-20T08:37:34Z</time>
      </trkpt>
      <trkpt lat="44.25734" lon="5.6468">
        <ele>853.18359375</ele>
        <time>2020-02-20T08:37:44Z</time>
      </trkpt>
      <trkpt lat="44.25735" lon="5.64682">
        <ele>853.3515625</ele>
        <time>2020-02-20T08:37:50Z</time>
      </trkpt>
      <trkpt lat="44.2574" lon="5.64693">
        <ele>854.203125</ele>
        <time>2020-02-20T08:38:00Z</time>
      </trkpt>
      <trkpt lat="44.25743" lon="5.64699">
        <ele>854.55859375</ele>
        <time>2020-02-20T08:38:05Z</time>
      </trkpt>
      <trkpt lat="44.25745" lon="5.64703">
        <ele>854.734375</ele>
        <time>2020-02-20T08:38:09Z</time>
      </trkpt>
      <trkpt lat="44.25751" lon="5.64716">
        <ele>855.66796875</ele>
        <time>2020-02-20T08:38:19Z</time>
      </trkpt>
      <trkpt lat="44.25756" lon="5.64725">
        <ele>856.74609375</ele>
        <time>2020-02-20T08:38:28Z</time>
      </trkpt>
      <trkpt lat="44.25758" lon="5.64727">
        <ele>857.04296875</ele>
        <time>2020-02-20T08:38:31Z</time>
      </trkpt>
      <trkpt lat="44.25759" lon="5.6473">
        <ele>857.23046875</ele>
        <time>2020-02-20T08:38:33Z</time>
      </trkpt>
      <trkpt lat="44.25762" lon="5.64737">
        <ele>857.78125</ele>
        <time>2020-02-20T08:38:40Z</time>
      </trkpt>
      <trkpt lat="44.25764" lon="5.64741">
        <ele>858</ele>
        <time>2020-02-20T08:38:43Z</time>
      </trkpt>
      <trkpt lat="44.25767" lon="5.64746">
        <ele>858.390625</ele>
        <time>2020-02-20T08:38:48Z</time>
      </trkpt>
      <trkpt lat="44.25768" lon="5.64748">
        <ele>858.55859375</ele>
        <time>2020-02-20T08:38:50Z</time>
      </trkpt>
      <trkpt lat="44.25771" lon="5.64755">
        <ele>858.89453125</ele>
        <time>2020-02-20T08:38:57Z</time>
      </trkpt>
      <trkpt lat="44.25773" lon="5.64758">
        <ele>858.99609375</ele>
        <time>2020-02-20T08:39:00Z</time>
      </trkpt>
      <trkpt lat="44.2578" lon="5.64768">
        <ele>860.09375</ele>
        <time>2020-02-20T08:39:12Z</time>
      </trkpt>
      <trkpt lat="44.25788" lon="5.64779">
        <ele>861.15234375</ele>
        <time>2020-02-20T08:39:24Z</time>
      </trkpt>
      <trkpt lat="44.25793" lon="5.64786">
        <ele>861.703125</ele>
        <time>2020-02-20T08:39:32Z</time>
      </trkpt>
      <trkpt lat="44.25796" lon="5.64789">
        <ele>862.21484375</ele>
        <time>2020-02-20T08:39:36Z</time>
      </trkpt>
      <trkpt lat="44.25801" lon="5.64795">
        <ele>863.2890625</ele>
        <time>2020-02-20T08:39:43Z</time>
      </trkpt>
      <trkpt lat="44.25808" lon="5.64804">
        <ele>864.546875</ele>
        <time>2020-02-20T08:39:52Z</time>
      </trkpt>
      <trkpt lat="44.25818" lon="5.64813">
        <ele>866.75</ele>
        <time>2020-02-20T08:40:04Z</time>
      </trkpt>
      <trkpt lat="44.25827" lon="5.64821">
        <ele>868.734375</ele>
        <time>2020-02-20T08:40:13Z</time>
      </trkpt>
      <trkpt lat="44.25833" lon="5.64832">
        <ele>869.18359375</ele>
        <time>2020-02-20T08:40:24Z</time>
      </trkpt>
      <trkpt lat="44.25834" lon="5.64837">
        <ele>868.6875</ele>
        <time>2020-02-20T08:40:28Z</time>
      </trkpt>
      <trkpt lat="44.25839" lon="5.64854">
        <ele>868.30078125</ele>
        <time>2020-02-20T08:40:40Z</time>
      </trkpt>
      <trkpt lat="44.25845" lon="5.64867">
        <ele>869.2109375</ele>
        <time>2020-02-20T08:40:52Z</time>
      </trkpt>
      <trkpt lat="44.25853" lon="5.64877">
        <ele>870.84765625</ele>
        <time>2020-02-20T08:41:02Z</time>
      </trkpt>
      <trkpt lat="44.25859" lon="5.64888">
        <ele>872.40234375</ele>
        <time>2020-02-20T08:41:11Z</time>
      </trkpt>
      <trkpt lat="44.25867" lon="5.649">
        <ele>874.33984375</ele>
        <time>2020-02-20T08:41:21Z</time>
      </trkpt>
      <trkpt lat="44.25873" lon="5.64911">
        <ele>875.67578125</ele>
        <time>2020-02-20T08:41:32Z</time>
      </trkpt>
      <trkpt lat="44.25878" lon="5.6492">
        <ele>876.78125</ele>
        <time>2020-02-20T08:41:41Z</time>
      </trkpt>
      <trkpt lat="44.25882" lon="5.64931">
        <ele>877.3203125</ele>
        <time>2020-02-20T08:41:50Z</time>
      </trkpt>
      <trkpt lat="44.25882" lon="5.64945">
        <ele>876.15234375</ele>
        <time>2020-02-20T08:41:59Z</time>
      </trkpt>
      <trkpt lat="44.25882" lon="5.64946">
        <ele>875.93359375</ele>
        <time>2020-02-20T08:42:00Z</time>
      </trkpt>
      <trkpt lat="44.25883" lon="5.6496">
        <ele>874.765625</ele>
        <time>2020-02-20T08:42:09Z</time>
      </trkpt>
      <trkpt lat="44.25884" lon="5.64968">
        <ele>874.49609375</ele>
        <time>2020-02-20T08:42:14Z</time>
      </trkpt>
      <trkpt lat="44.25886" lon="5.64979">
        <ele>874.390625</ele>
        <time>2020-02-20T08:42:22Z</time>
      </trkpt>
      <trkpt lat="44.25891" lon="5.64994">
        <ele>875.48046875</ele>
        <time>2020-02-20T08:42:33Z</time>
      </trkpt>
      <trkpt lat="44.25895" lon="5.65005">
        <ele>876.55859375</ele>
        <time>2020-02-20T08:42:41Z</time>
      </trkpt>
      <trkpt lat="44.25897" lon="5.65011">
        <ele>876.98046875</ele>
        <time>2020-02-20T08:42:46Z</time>
      </trkpt>
      <trkpt lat="44.25901" lon="5.65032">
        <ele>877.7421875</ele>
        <time>2020-02-20T08:42:58Z</time>
      </trkpt>
      <trkpt lat="44.25903" lon="5.65046">
        <ele>878.265625</ele>
        <time>2020-02-20T08:43:08Z</time>
      </trkpt>
      <trkpt lat="44.25903" lon="5.65049">
        <ele>878.57421875</ele>
        <time>2020-02-20T08:43:10Z</time>
      </trkpt>
      <trkpt lat="44.25906" lon="5.65064">
        <ele>880.0234375</ele>
        <time>2020-02-20T08:43:19Z</time>
      </trkpt>
      <trkpt lat="44.25909" lon="5.65069">
        <ele>881.18359375</ele>
        <time>2020-02-20T08:43:26Z</time>
      </trkpt>
      <trkpt lat="44.25909" lon="5.65082">
        <ele>882.04296875</ele>
        <time>2020-02-20T08:43:35Z</time>
      </trkpt>
      <trkpt lat="44.25908" lon="5.65098">
        <ele>882.67578125</ele>
        <time>2020-02-20T08:43:44Z</time>
      </trkpt>
      <trkpt lat="44.25906" lon="5.65104">
        <ele>882.24609375</ele>
        <time>2020-02-20T08:43:48Z</time>
      </trkpt>
      <trkpt lat="44.25907" lon="5.65119">
        <ele>882.03125</ele>
        <time>2020-02-20T08:43:59Z</time>
      </trkpt>
      <trkpt lat="44.25908" lon="5.65128">
        <ele>882.13671875</ele>
        <time>2020-02-20T08:44:06Z</time>
      </trkpt>
      <trkpt lat="44.25909" lon="5.65131">
        <ele>882.28515625</ele>
        <time>2020-02-20T08:44:08Z</time>
      </trkpt>
      <trkpt lat="44.25913" lon="5.65144">
        <ele>883.09765625</ele>
        <time>2020-02-20T08:44:18Z</time>
      </trkpt>
      <trkpt lat="44.25917" lon="5.65153">
        <ele>883.8125</ele>
        <time>2020-02-20T08:44:24Z</time>
      </trkpt>
      <trkpt lat="44.25924" lon="5.6517">
        <ele>884.77734375</ele>
        <time>2020-02-20T08:44:35Z</time>
      </trkpt>
      <trkpt lat="44.25927" lon="5.65176">
        <ele>885.17578125</ele>
        <time>2020-02-20T08:44:40Z</time>
      </trkpt>
      <trkpt lat="44.25928" lon="5.65183">
        <ele>885.01953125</ele>
        <time>2020-02-20T08:44:44Z</time>
      </trkpt>
      <trkpt lat="44.25933" lon="5.65197">
        <ele>885.2890625</ele>
        <time>2020-02-20T08:44:55Z</time>
      </trkpt>
      <trkpt lat="44.25934" lon="5.65216">
        <ele>884.21484375</ele>
        <time>2020-02-20T08:45:06Z</time>
      </trkpt>
      <trkpt lat="44.25935" lon="5.65221">
        <ele>883.90625</ele>
        <time>2020-02-20T08:45:16Z</time>
      </trkpt>
      <trkpt lat="44.25938" lon="5.65235">
        <ele>883.38671875</ele>
        <time>2020-02-20T08:45:27Z</time>
      </trkpt>
      <trkpt lat="44.25938" lon="5.65237">
        <ele>883.20703125</ele>
        <time>2020-02-20T08:45:37Z</time>
      </trkpt>
      <trkpt lat="44.25939" lon="5.65239">
        <ele>883.453125</ele>
        <time>2020-02-20T08:45:41Z</time>
      </trkpt>
      <trkpt lat="44.25945" lon="5.65242">
        <ele>884.71875</ele>
        <time>2020-02-20T08:45:46Z</time>
      </trkpt>
      <trkpt lat="44.25954" lon="5.65255">
        <ele>886.75</ele>
        <time>2020-02-20T08:45:57Z</time>
      </trkpt>
      <trkpt lat="44.25955" lon="5.65258">
        <ele>886.86328125</ele>
        <time>2020-02-20T08:45:59Z</time>
      </trkpt>
      <trkpt lat="44.25958" lon="5.65276">
        <ele>886.21875</ele>
        <time>2020-02-20T08:46:11Z</time>
      </trkpt>
      <trkpt lat="44.2596" lon="5.65292">
        <ele>885.73046875</ele>
        <time>2020-02-20T08:46:21Z</time>
      </trkpt>
      <trkpt lat="44.25965" lon="5.65307">
        <ele>885.97265625</ele>
        <time>2020-02-20T08:46:32Z</time>
      </trkpt>
      <trkpt lat="44.25974" lon="5.65323">
        <ele>886.71484375</ele>
        <time>2020-02-20T08:46:44Z</time>
      </trkpt>
      <trkpt lat="44.25982" lon="5.65337">
        <ele>886.77734375</ele>
        <time>2020-02-20T08:46:56Z</time>
      </trkpt>
      <trkpt lat="44.2599" lon="5.65347">
        <ele>887.05859375</ele>
        <time>2020-02-20T08:47:05Z</time>
      </trkpt>
      <trkpt lat="44.25998" lon="5.65357">
        <ele>886.53515625</ele>
        <time>2020-02-20T08:47:15Z</time>
      </trkpt>
      <trkpt lat="44.26007" lon="5.65369">
        <ele>885.12109375</ele>
        <time>2020-02-20T08:47:26Z</time>
      </trkpt>
      <trkpt lat="44.26017" lon="5.65381">
        <ele>884.19140625</ele>
        <time>2020-02-20T08:47:38Z</time>
      </trkpt>
      <trkpt lat="44.26026" lon="5.65386">
        <ele>884.609375</ele>
        <time>2020-02-20T08:47:47Z</time>
      </trkpt>
      <trkpt lat="44.26032" lon="5.65387">
        <ele>885.3671875</ele>
        <time>2020-02-20T08:47:58Z</time>
      </trkpt>
      <trkpt lat="44.26033" lon="5.65387">
        <ele>885.78515625</ele>
        <time>2020-02-20T08:48:06Z</time>
      </trkpt>
      <trkpt lat="44.26034" lon="5.65387">
        <ele>885.90625</ele>
        <time>2020-02-20T08:48:16Z</time>
      </trkpt>
      <trkpt lat="44.26034" lon="5.65387">
        <ele>885.859375</ele>
        <time>2020-02-20T08:48:19Z</time>
      </trkpt>
      <trkpt lat="44.26034" lon="5.65387">
        <ele>885.859375</ele>
        <time>2020-02-20T08:48:20Z</time>
      </trkpt>
      <trkpt lat="44.26034" lon="5.65387">
        <ele>885.73828125</ele>
        <time>2020-02-20T08:48:31Z</time>
      </trkpt>
      <trkpt lat="44.26033" lon="5.65388">
        <ele>885.60546875</ele>
        <time>2020-02-20T08:48:46Z</time>
      </trkpt>
      <trkpt lat="44.26033" lon="5.65387">
        <ele>885.6875</ele>
        <time>2020-02-20T08:48:57Z</time>
      </trkpt>
      <trkpt lat="44.26033" lon="5.65387">
        <ele>885.734375</ele>
        <time>2020-02-20T08:49:08Z</time>
      </trkpt>
      <trkpt lat="44.26033" lon="5.65387">
        <ele>885.66796875</ele>
        <time>2020-02-20T08:49:19Z</time>
      </trkpt>
      <trkpt lat="44.26033" lon="5.65388">
        <ele>885.63671875</ele>
        <time>2020-02-20T08:49:29Z</time>
      </trkpt>
      <trkpt lat="44.26033" lon="5.65387">
        <ele>885.6953125</ele>
        <time>2020-02-20T08:49:47Z</time>
      </trkpt>
      <trkpt lat="44.26033" lon="5.65387">
        <ele>885.62890625</ele>
        <time>2020-02-20T08:50:01Z</time>
      </trkpt>
      <trkpt lat="44.26033" lon="5.65386">
        <ele>885.78125</ele>
        <time>2020-02-20T08:50:20Z</time>
      </trkpt>
      <trkpt lat="44.26033" lon="5.65386">
        <ele>885.8203125</ele>
        <time>2020-02-20T08:50:21Z</time>
      </trkpt>
      <trkpt lat="44.26033" lon="5.65386">
        <ele>885.81640625</ele>
        <time>2020-02-20T08:50:22Z</time>
      </trkpt>
      <trkpt lat="44.26033" lon="5.65386">
        <ele>885.875</ele>
        <time>2020-02-20T08:50:33Z</time>
      </trkpt>
      <trkpt lat="44.26033" lon="5.65386">
        <ele>885.85546875</ele>
        <time>2020-02-20T08:50:48Z</time>
      </trkpt>
      <trkpt lat="44.26033" lon="5.65386">
        <ele>885.80078125</ele>
        <time>2020-02-20T08:50:59Z</time>
      </trkpt>
      <trkpt lat="44.26035" lon="5.65386">
        <ele>886.25</ele>
        <time>2020-02-20T08:51:14Z</time>
      </trkpt>
      <trkpt lat="44.26039" lon="5.65386">
        <ele>886.984375</ele>
        <time>2020-02-20T08:51:23Z</time>
      </trkpt>
      <trkpt lat="44.26039" lon="5.65386">
        <ele>886.9765625</ele>
        <time>2020-02-20T08:51:29Z</time>
      </trkpt>
      <trkpt lat="44.26039" lon="5.65385">
        <ele>887.09375</ele>
        <time>2020-02-20T08:51:31Z</time>
      </trkpt>
      <trkpt lat="44.2604" lon="5.65386">
        <ele>887.17578125</ele>
        <time>2020-02-20T08:51:47Z</time>
      </trkpt>
      <trkpt lat="44.2604" lon="5.65386">
        <ele>887.19140625</ele>
        <time>2020-02-20T08:52:04Z</time>
      </trkpt>
      <trkpt lat="44.2604" lon="5.65386">
        <ele>887.09375</ele>
        <time>2020-02-20T08:52:24Z</time>
      </trkpt>
      <trkpt lat="44.26046" lon="5.65388">
        <ele>887.8359375</ele>
        <time>2020-02-20T08:52:36Z</time>
      </trkpt>
      <trkpt lat="44.26048" lon="5.6539">
        <ele>887.86328125</ele>
        <time>2020-02-20T08:52:39Z</time>
      </trkpt>
      <trkpt lat="44.26059" lon="5.65401">
        <ele>888.5546875</ele>
        <time>2020-02-20T08:52:51Z</time>
      </trkpt>
      <trkpt lat="44.26068" lon="5.65409">
        <ele>889.73046875</ele>
        <time>2020-02-20T08:53:02Z</time>
      </trkpt>
      <trkpt lat="44.26081" lon="5.65417">
        <ele>892.24609375</ele>
        <time>2020-02-20T08:53:16Z</time>
      </trkpt>
      <trkpt lat="44.26083" lon="5.65419">
        <ele>892.94921875</ele>
        <time>2020-02-20T08:53:28Z</time>
      </trkpt>
      <trkpt lat="44.26083" lon="5.65418">
        <ele>892.9296875</ele>
        <time>2020-02-20T08:53:42Z</time>
      </trkpt>
      <trkpt lat="44.26087" lon="5.65421">
        <ele>893.7265625</ele>
        <time>2020-02-20T08:53:55Z</time>
      </trkpt>
      <trkpt lat="44.26097" lon="5.65421">
        <ele>897.41796875</ele>
        <time>2020-02-20T08:54:06Z</time>
      </trkpt>
      <trkpt lat="44.26101" lon="5.65423">
        <ele>898.58984375</ele>
        <time>2020-02-20T08:54:10Z</time>
      </trkpt>
      <trkpt lat="44.26106" lon="5.65429">
        <ele>899.296875</ele>
        <time>2020-02-20T08:54:16Z</time>
      </trkpt>
      <trkpt lat="44.26106" lon="5.65438">
        <ele>898.765625</ele>
        <time>2020-02-20T08:54:22Z</time>
      </trkpt>
      <trkpt lat="44.26103" lon="5.65446">
        <ele>897.55859375</ele>
        <time>2020-02-20T08:54:28Z</time>
      </trkpt>
      <trkpt lat="44.26095" lon="5.65459">
        <ele>894.0546875</ele>
        <time>2020-02-20T08:54:40Z</time>
      </trkpt>
      <trkpt lat="44.26087" lon="5.65475">
        <ele>890.51953125</ele>
        <time>2020-02-20T08:54:52Z</time>
      </trkpt>
      <trkpt lat="44.26086" lon="5.65478">
        <ele>890.05078125</ele>
        <time>2020-02-20T08:54:54Z</time>
      </trkpt>
      <trkpt lat="44.26087" lon="5.655">
        <ele>888.9140625</ele>
        <time>2020-02-20T08:55:07Z</time>
      </trkpt>
      <trkpt lat="44.26094" lon="5.65515">
        <ele>889.87890625</ele>
        <time>2020-02-20T08:55:17Z</time>
      </trkpt>
      <trkpt lat="44.26103" lon="5.65521">
        <ele>892.578125</ele>
        <time>2020-02-20T08:55:26Z</time>
      </trkpt>
      <trkpt lat="44.26107" lon="5.65524">
        <ele>893.60546875</ele>
        <time>2020-02-20T08:55:30Z</time>
      </trkpt>
      <trkpt lat="44.26114" lon="5.65541">
        <ele>893.9765625</ele>
        <time>2020-02-20T08:55:41Z</time>
      </trkpt>
      <trkpt lat="44.26121" lon="5.65559">
        <ele>894.51953125</ele>
        <time>2020-02-20T08:55:54Z</time>
      </trkpt>
      <trkpt lat="44.26129" lon="5.65574">
        <ele>895.49609375</ele>
        <time>2020-02-20T08:56:06Z</time>
      </trkpt>
      <trkpt lat="44.26133" lon="5.65585">
        <ele>895.5625</ele>
        <time>2020-02-20T08:56:15Z</time>
      </trkpt>
      <trkpt lat="44.26139" lon="5.656">
        <ele>895.65234375</ele>
        <time>2020-02-20T08:56:26Z</time>
      </trkpt>
      <trkpt lat="44.26145" lon="5.65611">
        <ele>896.26953125</ele>
        <time>2020-02-20T08:56:35Z</time>
      </trkpt>
      <trkpt lat="44.26147" lon="5.65616">
        <ele>896.53125</ele>
        <time>2020-02-20T08:56:39Z</time>
      </trkpt>
      <trkpt lat="44.26153" lon="5.65627">
        <ele>897.30078125</ele>
        <time>2020-02-20T08:56:49Z</time>
      </trkpt>
      <trkpt lat="44.26157" lon="5.65638">
        <ele>897.4765625</ele>
        <time>2020-02-20T08:56:58Z</time>
      </trkpt>
      <trkpt lat="44.26158" lon="5.65642">
        <ele>897.50390625</ele>
        <time>2020-02-20T08:57:01Z</time>
      </trkpt>
      <trkpt lat="44.26164" lon="5.65653">
        <ele>898.14453125</ele>
        <time>2020-02-20T08:57:11Z</time>
      </trkpt>
      <trkpt lat="44.26165" lon="5.65655">
        <ele>898.23828125</ele>
        <time>2020-02-20T08:57:13Z</time>
      </trkpt>
      <trkpt lat="44.26171" lon="5.65664">
        <ele>899.08984375</ele>
        <time>2020-02-20T08:57:23Z</time>
      </trkpt>
      <trkpt lat="44.26177" lon="5.65675">
        <ele>899.484375</ele>
        <time>2020-02-20T08:57:33Z</time>
      </trkpt>
      <trkpt lat="44.26181" lon="5.65688">
        <ele>899.03515625</ele>
        <time>2020-02-20T08:57:43Z</time>
      </trkpt>
      <trkpt lat="44.26187" lon="5.65705">
        <ele>898.58203125</ele>
        <time>2020-02-20T08:57:55Z</time>
      </trkpt>
      <trkpt lat="44.26199" lon="5.6571">
        <ele>901.4609375</ele>
        <time>2020-02-20T08:58:06Z</time>
      </trkpt>
      <trkpt lat="44.2621" lon="5.6572">
        <ele>903.77734375</ele>
        <time>2020-02-20T08:58:18Z</time>
      </trkpt>
      <trkpt lat="44.26211" lon="5.65721">
        <ele>903.875</ele>
        <time>2020-02-20T08:58:19Z</time>
      </trkpt>
      <trkpt lat="44.26216" lon="5.65733">
        <ele>904.4140625</ele>
        <time>2020-02-20T08:58:30Z</time>
      </trkpt>
      <trkpt lat="44.26218" lon="5.65737">
        <ele>904.5</ele>
        <time>2020-02-20T08:58:34Z</time>
      </trkpt>
      <trkpt lat="44.26219" lon="5.6574">
        <ele>904.46484375</ele>
        <time>2020-02-20T08:58:36Z</time>
      </trkpt>
      <trkpt lat="44.26221" lon="5.65755">
        <ele>902.7890625</ele>
        <time>2020-02-20T08:58:47Z</time>
      </trkpt>
      <trkpt lat="44.26221" lon="5.65766">
        <ele>901.29296875</ele>
        <time>2020-02-20T08:58:54Z</time>
      </trkpt>
      <trkpt lat="44.26219" lon="5.65783">
        <ele>899.5234375</ele>
        <time>2020-02-20T08:59:07Z</time>
      </trkpt>
      <trkpt lat="44.26219" lon="5.65785">
        <ele>899.39453125</ele>
        <time>2020-02-20T08:59:08Z</time>
      </trkpt>
      <trkpt lat="44.26219" lon="5.65791">
        <ele>898.99609375</ele>
        <time>2020-02-20T08:59:12Z</time>
      </trkpt>
      <trkpt lat="44.26219" lon="5.65794">
        <ele>898.671875</ele>
        <time>2020-02-20T08:59:14Z</time>
      </trkpt>
      <trkpt lat="44.26221" lon="5.65816">
        <ele>896.828125</ele>
        <time>2020-02-20T08:59:27Z</time>
      </trkpt>
      <trkpt lat="44.26226" lon="5.65829">
        <ele>896.171875</ele>
        <time>2020-02-20T08:59:38Z</time>
      </trkpt>
      <trkpt lat="44.26227" lon="5.65833">
        <ele>895.83984375</ele>
        <time>2020-02-20T08:59:43Z</time>
      </trkpt>
      <trkpt lat="44.26229" lon="5.65839">
        <ele>895.3984375</ele>
        <time>2020-02-20T08:59:47Z</time>
      </trkpt>
      <trkpt lat="44.26234" lon="5.65855">
        <ele>894.421875</ele>
        <time>2020-02-20T08:59:58Z</time>
      </trkpt>
      <trkpt lat="44.26238" lon="5.65863">
        <ele>893.81640625</ele>
        <time>2020-02-20T09:00:05Z</time>
      </trkpt>
      <trkpt lat="44.26239" lon="5.65865">
        <ele>893.7265625</ele>
        <time>2020-02-20T09:00:07Z</time>
      </trkpt>
      <trkpt lat="44.26247" lon="5.65879">
        <ele>892.6171875</ele>
        <time>2020-02-20T09:00:19Z</time>
      </trkpt>
      <trkpt lat="44.26257" lon="5.65896">
        <ele>889.6640625</ele>
        <time>2020-02-20T09:00:32Z</time>
      </trkpt>
      <trkpt lat="44.26268" lon="5.65905">
        <ele>888.07421875</ele>
        <time>2020-02-20T09:00:45Z</time>
      </trkpt>
      <trkpt lat="44.26278" lon="5.65908">
        <ele>887.61328125</ele>
        <time>2020-02-20T09:00:55Z</time>
      </trkpt>
      <trkpt lat="44.26287" lon="5.65907">
        <ele>888.921875</ele>
        <time>2020-02-20T09:01:05Z</time>
      </trkpt>
      <trkpt lat="44.26297" lon="5.65904">
        <ele>890.66015625</ele>
        <time>2020-02-20T09:01:17Z</time>
      </trkpt>
      <trkpt lat="44.26303" lon="5.65902">
        <ele>891.640625</ele>
        <time>2020-02-20T09:01:25Z</time>
      </trkpt>
      <trkpt lat="44.26308" lon="5.65901">
        <ele>892.2890625</ele>
        <time>2020-02-20T09:01:30Z</time>
      </trkpt>
      <trkpt lat="44.26312" lon="5.65901">
        <ele>893</ele>
        <time>2020-02-20T09:01:33Z</time>
      </trkpt>
      <trkpt lat="44.26321" lon="5.65896">
        <ele>895.109375</ele>
        <time>2020-02-20T09:01:42Z</time>
      </trkpt>
      <trkpt lat="44.26332" lon="5.65891">
        <ele>897.359375</ele>
        <time>2020-02-20T09:01:54Z</time>
      </trkpt>
      <trkpt lat="44.26344" lon="5.65891">
        <ele>901.10546875</ele>
        <time>2020-02-20T09:02:05Z</time>
      </trkpt>
      <trkpt lat="44.26354" lon="5.65895">
        <ele>903.6171875</ele>
        <time>2020-02-20T09:02:14Z</time>
      </trkpt>
      <trkpt lat="44.26358" lon="5.65899">
        <ele>904.66015625</ele>
        <time>2020-02-20T09:02:26Z</time>
      </trkpt>
      <trkpt lat="44.2636" lon="5.65899">
        <ele>905.0078125</ele>
        <time>2020-02-20T09:02:43Z</time>
      </trkpt>
      <trkpt lat="44.26361" lon="5.65899">
        <ele>905.58203125</ele>
        <time>2020-02-20T09:02:45Z</time>
      </trkpt>
      <trkpt lat="44.26362" lon="5.65899">
        <ele>905.73046875</ele>
        <time>2020-02-20T09:02:46Z</time>
      </trkpt>
      <trkpt lat="44.26362" lon="5.65899">
        <ele>905.76953125</ele>
        <time>2020-02-20T09:02:47Z</time>
      </trkpt>
      <trkpt lat="44.26364" lon="5.65901">
        <ele>906.3046875</ele>
        <time>2020-02-20T09:02:53Z</time>
      </trkpt>
      <trkpt lat="44.26364" lon="5.65901">
        <ele>906.296875</ele>
        <time>2020-02-20T09:02:54Z</time>
      </trkpt>
      <trkpt lat="44.26364" lon="5.65901">
        <ele>906.38671875</ele>
        <time>2020-02-20T09:03:04Z</time>
      </trkpt>
      <trkpt lat="44.26363" lon="5.65903">
        <ele>905.796875</ele>
        <time>2020-02-20T09:03:11Z</time>
      </trkpt>
      <trkpt lat="44.26371" lon="5.65915">
        <ele>907.49609375</ele>
        <time>2020-02-20T09:03:22Z</time>
      </trkpt>
      <trkpt lat="44.26371" lon="5.65916">
        <ele>907.625</ele>
        <time>2020-02-20T09:03:23Z</time>
      </trkpt>
      <trkpt lat="44.26377" lon="5.65925">
        <ele>908.6171875</ele>
        <time>2020-02-20T09:03:35Z</time>
      </trkpt>
      <trkpt lat="44.2638" lon="5.65938">
        <ele>908.63671875</ele>
        <time>2020-02-20T09:03:47Z</time>
      </trkpt>
      <trkpt lat="44.26382" lon="5.65944">
        <ele>908.65234375</ele>
        <time>2020-02-20T09:03:57Z</time>
      </trkpt>
      <trkpt lat="44.26382" lon="5.65946">
        <ele>908.5390625</ele>
        <time>2020-02-20T09:04:06Z</time>
      </trkpt>
      <trkpt lat="44.26383" lon="5.65951">
        <ele>908.40234375</ele>
        <time>2020-02-20T09:04:09Z</time>
      </trkpt>
      <trkpt lat="44.26387" lon="5.65966">
        <ele>908.9453125</ele>
        <time>2020-02-20T09:04:20Z</time>
      </trkpt>
      <trkpt lat="44.26388" lon="5.65969">
        <ele>909.29296875</ele>
        <time>2020-02-20T09:04:23Z</time>
      </trkpt>
      <trkpt lat="44.26389" lon="5.65972">
        <ele>909.56640625</ele>
        <time>2020-02-20T09:04:25Z</time>
      </trkpt>
      <trkpt lat="44.26394" lon="5.65992">
        <ele>910.828125</ele>
        <time>2020-02-20T09:04:38Z</time>
      </trkpt>
      <trkpt lat="44.26395" lon="5.65995">
        <ele>911.140625</ele>
        <time>2020-02-20T09:04:40Z</time>
      </trkpt>
      <trkpt lat="44.26395" lon="5.65998">
        <ele>911.0234375</ele>
        <time>2020-02-20T09:04:42Z</time>
      </trkpt>
      <trkpt lat="44.26397" lon="5.66005">
        <ele>911.77734375</ele>
        <time>2020-02-20T09:04:48Z</time>
      </trkpt>
      <trkpt lat="44.26401" lon="5.66026">
        <ele>912.3046875</ele>
        <time>2020-02-20T09:04:59Z</time>
      </trkpt>
      <trkpt lat="44.26404" lon="5.66041">
        <ele>913.15625</ele>
        <time>2020-02-20T09:05:08Z</time>
      </trkpt>
      <trkpt lat="44.26405" lon="5.66057">
        <ele>913.0703125</ele>
        <time>2020-02-20T09:05:17Z</time>
      </trkpt>
      <trkpt lat="44.26406" lon="5.66074">
        <ele>912.734375</ele>
        <time>2020-02-20T09:05:27Z</time>
      </trkpt>
      <trkpt lat="44.26407" lon="5.66082">
        <ele>912.8828125</ele>
        <time>2020-02-20T09:05:32Z</time>
      </trkpt>
      <trkpt lat="44.26409" lon="5.66103">
        <ele>913.8203125</ele>
        <time>2020-02-20T09:05:44Z</time>
      </trkpt>
      <trkpt lat="44.26412" lon="5.6612">
        <ele>915.046875</ele>
        <time>2020-02-20T09:05:54Z</time>
      </trkpt>
      <trkpt lat="44.26416" lon="5.66136">
        <ele>916.8046875</ele>
        <time>2020-02-20T09:06:04Z</time>
      </trkpt>
      <trkpt lat="44.26418" lon="5.66154">
        <ele>917.4296875</ele>
        <time>2020-02-20T09:06:15Z</time>
      </trkpt>
      <trkpt lat="44.26418" lon="5.66158">
        <ele>917.80078125</ele>
        <time>2020-02-20T09:06:18Z</time>
      </trkpt>
      <trkpt lat="44.26419" lon="5.66166">
        <ele>918.25390625</ele>
        <time>2020-02-20T09:06:22Z</time>
      </trkpt>
      <trkpt lat="44.26419" lon="5.66178">
        <ele>918.6328125</ele>
        <time>2020-02-20T09:06:28Z</time>
      </trkpt>
      <trkpt lat="44.26418" lon="5.66195">
        <ele>917.87890625</ele>
        <time>2020-02-20T09:06:38Z</time>
      </trkpt>
      <trkpt lat="44.26416" lon="5.66216">
        <ele>916.3515625</ele>
        <time>2020-02-20T09:06:49Z</time>
      </trkpt>
      <trkpt lat="44.26416" lon="5.66236">
        <ele>914.72265625</ele>
        <time>2020-02-20T09:07:00Z</time>
      </trkpt>
      <trkpt lat="44.26416" lon="5.66241">
        <ele>914.2890625</ele>
        <time>2020-02-20T09:07:03Z</time>
      </trkpt>
      <trkpt lat="44.26416" lon="5.66246">
        <ele>913.87109375</ele>
        <time>2020-02-20T09:07:06Z</time>
      </trkpt>
      <trkpt lat="44.26418" lon="5.66255">
        <ele>913.1953125</ele>
        <time>2020-02-20T09:07:12Z</time>
      </trkpt>
      <trkpt lat="44.26418" lon="5.66259">
        <ele>912.9765625</ele>
        <time>2020-02-20T09:07:14Z</time>
      </trkpt>
      <trkpt lat="44.26422" lon="5.66276">
        <ele>911.84765625</ele>
        <time>2020-02-20T09:07:25Z</time>
      </trkpt>
      <trkpt lat="44.26426" lon="5.66288">
        <ele>911.39453125</ele>
        <time>2020-02-20T09:07:33Z</time>
      </trkpt>
      <trkpt lat="44.26431" lon="5.66299">
        <ele>911.046875</ele>
        <time>2020-02-20T09:07:43Z</time>
      </trkpt>
      <trkpt lat="44.26434" lon="5.66314">
        <ele>909.23828125</ele>
        <time>2020-02-20T09:07:52Z</time>
      </trkpt>
      <trkpt lat="44.26435" lon="5.66317">
        <ele>908.94921875</ele>
        <time>2020-02-20T09:07:54Z</time>
      </trkpt>
      <trkpt lat="44.26436" lon="5.66324">
        <ele>908.15625</ele>
        <time>2020-02-20T09:07:58Z</time>
      </trkpt>
      <trkpt lat="44.26439" lon="5.66335">
        <ele>907.18359375</ele>
        <time>2020-02-20T09:08:06Z</time>
      </trkpt>
      <trkpt lat="44.2644" lon="5.6634">
        <ele>907.0390625</ele>
        <time>2020-02-20T09:08:09Z</time>
      </trkpt>
      <trkpt lat="44.26442" lon="5.66343">
        <ele>906.8671875</ele>
        <time>2020-02-20T09:08:12Z</time>
      </trkpt>
      <trkpt lat="44.26444" lon="5.66348">
        <ele>906.6796875</ele>
        <time>2020-02-20T09:08:15Z</time>
      </trkpt>
      <trkpt lat="44.26452" lon="5.66356">
        <ele>907.58984375</ele>
        <time>2020-02-20T09:08:23Z</time>
      </trkpt>
      <trkpt lat="44.26465" lon="5.66356">
        <ele>910.50390625</ele>
        <time>2020-02-20T09:08:34Z</time>
      </trkpt>
      <trkpt lat="44.26476" lon="5.6635">
        <ele>913.39453125</ele>
        <time>2020-02-20T09:08:46Z</time>
      </trkpt>
      <trkpt lat="44.26483" lon="5.66344">
        <ele>915.58203125</ele>
        <time>2020-02-20T09:08:55Z</time>
      </trkpt>
      <trkpt lat="44.26493" lon="5.66339">
        <ele>918.1875</ele>
        <time>2020-02-20T09:09:04Z</time>
      </trkpt>
      <trkpt lat="44.26498" lon="5.66339">
        <ele>919.18359375</ele>
        <time>2020-02-20T09:09:08Z</time>
      </trkpt>
      <trkpt lat="44.26501" lon="5.66338">
        <ele>920.02734375</ele>
        <time>2020-02-20T09:09:10Z</time>
      </trkpt>
      <trkpt lat="44.26515" lon="5.6634">
        <ele>923.171875</ele>
        <time>2020-02-20T09:09:21Z</time>
      </trkpt>
      <trkpt lat="44.26524" lon="5.66345">
        <ele>924.94921875</ele>
        <time>2020-02-20T09:09:30Z</time>
      </trkpt>
      <trkpt lat="44.2653" lon="5.66352">
        <ele>926.53125</ele>
        <time>2020-02-20T09:09:39Z</time>
      </trkpt>
      <trkpt lat="44.26532" lon="5.66354">
        <ele>927.0234375</ele>
        <time>2020-02-20T09:09:42Z</time>
      </trkpt>
      <trkpt lat="44.26537" lon="5.66367">
        <ele>928.14453125</ele>
        <time>2020-02-20T09:09:52Z</time>
      </trkpt>
      <trkpt lat="44.26539" lon="5.6637">
        <ele>928.43359375</ele>
        <time>2020-02-20T09:09:55Z</time>
      </trkpt>
      <trkpt lat="44.26543" lon="5.66382">
        <ele>929.0546875</ele>
        <time>2020-02-20T09:10:04Z</time>
      </trkpt>
      <trkpt lat="44.26547" lon="5.66388">
        <ele>930.09765625</ele>
        <time>2020-02-20T09:10:10Z</time>
      </trkpt>
      <trkpt lat="44.26554" lon="5.66401">
        <ele>931.55078125</ele>
        <time>2020-02-20T09:10:22Z</time>
      </trkpt>
      <trkpt lat="44.26555" lon="5.66405">
        <ele>931.8515625</ele>
        <time>2020-02-20T09:10:26Z</time>
      </trkpt>
      <trkpt lat="44.26557" lon="5.66409">
        <ele>932.21484375</ele>
        <time>2020-02-20T09:10:29Z</time>
      </trkpt>
      <trkpt lat="44.26559" lon="5.66413">
        <ele>932.6640625</ele>
        <time>2020-02-20T09:10:33Z</time>
      </trkpt>
      <trkpt lat="44.26562" lon="5.66422">
        <ele>933.3828125</ele>
        <time>2020-02-20T09:10:40Z</time>
      </trkpt>
      <trkpt lat="44.26563" lon="5.66423">
        <ele>933.609375</ele>
        <time>2020-02-20T09:10:41Z</time>
      </trkpt>
      <trkpt lat="44.26565" lon="5.6643">
        <ele>934.08984375</ele>
        <time>2020-02-20T09:10:46Z</time>
      </trkpt>
      <trkpt lat="44.26567" lon="5.66438">
        <ele>934.546875</ele>
        <time>2020-02-20T09:10:51Z</time>
      </trkpt>
      <trkpt lat="44.26568" lon="5.66442">
        <ele>934.63671875</ele>
        <time>2020-02-20T09:10:54Z</time>
      </trkpt>
      <trkpt lat="44.26572" lon="5.66456">
        <ele>935.9765625</ele>
        <time>2020-02-20T09:11:04Z</time>
      </trkpt>
      <trkpt lat="44.26575" lon="5.66472">
        <ele>936.69921875</ele>
        <time>2020-02-20T09:11:16Z</time>
      </trkpt>
      <trkpt lat="44.26577" lon="5.66486">
        <ele>936.8046875</ele>
        <time>2020-02-20T09:11:26Z</time>
      </trkpt>
      <trkpt lat="44.26577" lon="5.66501">
        <ele>936.21875</ele>
        <time>2020-02-20T09:11:37Z</time>
      </trkpt>
      <trkpt lat="44.26576" lon="5.66513">
        <ele>935.41796875</ele>
        <time>2020-02-20T09:11:47Z</time>
      </trkpt>
      <trkpt lat="44.26575" lon="5.66525">
        <ele>934.7109375</ele>
        <time>2020-02-20T09:11:56Z</time>
      </trkpt>
      <trkpt lat="44.26574" lon="5.66542">
        <ele>934.0078125</ele>
        <time>2020-02-20T09:12:08Z</time>
      </trkpt>
      <trkpt lat="44.26575" lon="5.66548">
        <ele>934.11328125</ele>
        <time>2020-02-20T09:12:14Z</time>
      </trkpt>
      <trkpt lat="44.26577" lon="5.6656">
        <ele>934.36328125</ele>
        <time>2020-02-20T09:12:23Z</time>
      </trkpt>
      <trkpt lat="44.26579" lon="5.6657">
        <ele>934.37109375</ele>
        <time>2020-02-20T09:12:31Z</time>
      </trkpt>
      <trkpt lat="44.26582" lon="5.66583">
        <ele>935.05078125</ele>
        <time>2020-02-20T09:12:41Z</time>
      </trkpt>
      <trkpt lat="44.26586" lon="5.66592">
        <ele>936.25</ele>
        <time>2020-02-20T09:12:52Z</time>
      </trkpt>
      <trkpt lat="44.26588" lon="5.66595">
        <ele>936.66796875</ele>
        <time>2020-02-20T09:12:55Z</time>
      </trkpt>
      <trkpt lat="44.26589" lon="5.66597">
        <ele>936.953125</ele>
        <time>2020-02-20T09:12:57Z</time>
      </trkpt>
      <trkpt lat="44.26593" lon="5.66608">
        <ele>937.734375</ele>
        <time>2020-02-20T09:13:07Z</time>
      </trkpt>
      <trkpt lat="44.26596" lon="5.66616">
        <ele>938.3203125</ele>
        <time>2020-02-20T09:13:13Z</time>
      </trkpt>
      <trkpt lat="44.26597" lon="5.66618">
        <ele>938.50390625</ele>
        <time>2020-02-20T09:13:15Z</time>
      </trkpt>
      <trkpt lat="44.26598" lon="5.6662">
        <ele>938.78515625</ele>
        <time>2020-02-20T09:13:18Z</time>
      </trkpt>
      <trkpt lat="44.266" lon="5.66623">
        <ele>939.10546875</ele>
        <time>2020-02-20T09:13:20Z</time>
      </trkpt>
      <trkpt lat="44.26602" lon="5.66628">
        <ele>939.54296875</ele>
        <time>2020-02-20T09:13:24Z</time>
      </trkpt>
      <trkpt lat="44.26605" lon="5.66637">
        <ele>939.84765625</ele>
        <time>2020-02-20T09:13:31Z</time>
      </trkpt>
      <trkpt lat="44.26611" lon="5.6665">
        <ele>940.44140625</ele>
        <time>2020-02-20T09:13:41Z</time>
      </trkpt>
      <trkpt lat="44.26616" lon="5.66661">
        <ele>941.546875</ele>
        <time>2020-02-20T09:13:51Z</time>
      </trkpt>
      <trkpt lat="44.26619" lon="5.66667">
        <ele>941.9453125</ele>
        <time>2020-02-20T09:13:56Z</time>
      </trkpt>
      <trkpt lat="44.26619" lon="5.6667">
        <ele>941.8828125</ele>
        <time>2020-02-20T09:13:58Z</time>
      </trkpt>
      <trkpt lat="44.2662" lon="5.66673">
        <ele>942.015625</ele>
        <time>2020-02-20T09:14:00Z</time>
      </trkpt>
      <trkpt lat="44.26622" lon="5.66684">
        <ele>941.81640625</ele>
        <time>2020-02-20T09:14:08Z</time>
      </trkpt>
      <trkpt lat="44.26624" lon="5.66689">
        <ele>941.73046875</ele>
        <time>2020-02-20T09:14:13Z</time>
      </trkpt>
      <trkpt lat="44.26627" lon="5.667">
        <ele>941.71484375</ele>
        <time>2020-02-20T09:14:21Z</time>
      </trkpt>
      <trkpt lat="44.26627" lon="5.66706">
        <ele>941.3046875</ele>
        <time>2020-02-20T09:14:25Z</time>
      </trkpt>
      <trkpt lat="44.26631" lon="5.66717">
        <ele>941.328125</ele>
        <time>2020-02-20T09:14:33Z</time>
      </trkpt>
      <trkpt lat="44.26638" lon="5.6673">
        <ele>941.609375</ele>
        <time>2020-02-20T09:14:44Z</time>
      </trkpt>
      <trkpt lat="44.26642" lon="5.66738">
        <ele>941.79296875</ele>
        <time>2020-02-20T09:14:52Z</time>
      </trkpt>
      <trkpt lat="44.26643" lon="5.6674">
        <ele>941.8203125</ele>
        <time>2020-02-20T09:14:54Z</time>
      </trkpt>
      <trkpt lat="44.26649" lon="5.66753">
        <ele>941.078125</ele>
        <time>2020-02-20T09:15:05Z</time>
      </trkpt>
      <trkpt lat="44.26654" lon="5.66762">
        <ele>940.86328125</ele>
        <time>2020-02-20T09:15:15Z</time>
      </trkpt>
      <trkpt lat="44.26654" lon="5.66762">
        <ele>940.8828125</ele>
        <time>2020-02-20T09:15:16Z</time>
      </trkpt>
      <trkpt lat="44.26654" lon="5.66762">
        <ele>940.875</ele>
        <time>2020-02-20T09:15:17Z</time>
      </trkpt>
      <trkpt lat="44.26654" lon="5.66762">
        <ele>940.8671875</ele>
        <time>2020-02-20T09:15:19Z</time>
      </trkpt>
      <trkpt lat="44.26654" lon="5.66762">
        <ele>940.85546875</ele>
        <time>2020-02-20T09:15:20Z</time>
      </trkpt>
      <trkpt lat="44.26654" lon="5.66762">
        <ele>940.8515625</ele>
        <time>2020-02-20T09:15:21Z</time>
      </trkpt>
      <trkpt lat="44.26654" lon="5.66762">
        <ele>940.86328125</ele>
        <time>2020-02-20T09:15:23Z</time>
      </trkpt>
      <trkpt lat="44.26654" lon="5.66762">
        <ele>940.86328125</ele>
        <time>2020-02-20T09:15:24Z</time>
      </trkpt>
      <trkpt lat="44.26654" lon="5.66762">
        <ele>940.85546875</ele>
        <time>2020-02-20T09:15:25Z</time>
      </trkpt>
      <trkpt lat="44.26654" lon="5.66762">
        <ele>940.859375</ele>
        <time>2020-02-20T09:15:26Z</time>
      </trkpt>
      <trkpt lat="44.26654" lon="5.66762">
        <ele>940.8984375</ele>
        <time>2020-02-20T09:15:27Z</time>
      </trkpt>
      <trkpt lat="44.26655" lon="5.66765">
        <ele>940.57421875</ele>
        <time>2020-02-20T09:15:39Z</time>
      </trkpt>
      <trkpt lat="44.26656" lon="5.66769">
        <ele>940.03515625</ele>
        <time>2020-02-20T09:15:50Z</time>
      </trkpt>
      <trkpt lat="44.26657" lon="5.66768">
        <ele>940.3203125</ele>
        <time>2020-02-20T09:16:00Z</time>
      </trkpt>
      <trkpt lat="44.26657" lon="5.66768">
        <ele>940.37890625</ele>
        <time>2020-02-20T09:16:01Z</time>
      </trkpt>
      <trkpt lat="44.26657" lon="5.66768">
        <ele>940.4140625</ele>
        <time>2020-02-20T09:16:02Z</time>
      </trkpt>
      <trkpt lat="44.26656" lon="5.66768">
        <ele>940.12890625</ele>
        <time>2020-02-20T09:16:18Z</time>
      </trkpt>
      <trkpt lat="44.26655" lon="5.6677">
        <ele>939.57421875</ele>
        <time>2020-02-20T09:16:28Z</time>
      </trkpt>
      <trkpt lat="44.26655" lon="5.6677">
        <ele>939.44921875</ele>
        <time>2020-02-20T09:16:39Z</time>
      </trkpt>
      <trkpt lat="44.26655" lon="5.66763">
        <ele>941.03125</ele>
        <time>2020-02-20T09:16:48Z</time>
      </trkpt>
      <trkpt lat="44.26656" lon="5.66764">
        <ele>941.03515625</ele>
        <time>2020-02-20T09:16:55Z</time>
      </trkpt>
      <trkpt lat="44.26656" lon="5.66765">
        <ele>940.9453125</ele>
        <time>2020-02-20T09:17:17Z</time>
      </trkpt>
      <trkpt lat="44.26656" lon="5.66765">
        <ele>940.96484375</ele>
        <time>2020-02-20T09:17:41Z</time>
      </trkpt>
      <trkpt lat="44.26656" lon="5.66766">
        <ele>940.59765625</ele>
        <time>2020-02-20T09:18:04Z</time>
      </trkpt>
      <trkpt lat="44.26656" lon="5.66766">
        <ele>940.7109375</ele>
        <time>2020-02-20T09:18:28Z</time>
      </trkpt>
      <trkpt lat="44.26656" lon="5.66765">
        <ele>940.86328125</ele>
        <time>2020-02-20T09:18:51Z</time>
      </trkpt>
      <trkpt lat="44.26656" lon="5.66766">
        <ele>940.8046875</ele>
        <time>2020-02-20T09:19:06Z</time>
      </trkpt>
      <trkpt lat="44.26656" lon="5.66766">
        <ele>940.59765625</ele>
        <time>2020-02-20T09:19:29Z</time>
      </trkpt>
      <trkpt lat="44.26655" lon="5.66765">
        <ele>940.59765625</ele>
        <time>2020-02-20T09:19:40Z</time>
      </trkpt>
      <trkpt lat="44.26656" lon="5.66766">
        <ele>940.62109375</ele>
        <time>2020-02-20T09:19:56Z</time>
      </trkpt>
      <trkpt lat="44.26656" lon="5.66766">
        <ele>940.64453125</ele>
        <time>2020-02-20T09:20:16Z</time>
      </trkpt>
      <trkpt lat="44.26657" lon="5.66767">
        <ele>940.75390625</ele>
        <time>2020-02-20T09:20:38Z</time>
      </trkpt>
      <trkpt lat="44.26657" lon="5.66766">
        <ele>940.77734375</ele>
        <time>2020-02-20T09:20:49Z</time>
      </trkpt>
      <trkpt lat="44.26658" lon="5.66767">
        <ele>940.93359375</ele>
        <time>2020-02-20T09:20:53Z</time>
      </trkpt>
      <trkpt lat="44.26659" lon="5.66769">
        <ele>940.96875</ele>
        <time>2020-02-20T09:20:55Z</time>
      </trkpt>
      <trkpt lat="44.26659" lon="5.66769">
        <ele>940.87890625</ele>
        <time>2020-02-20T09:20:56Z</time>
      </trkpt>
      <trkpt lat="44.2666" lon="5.6677">
        <ele>940.75</ele>
        <time>2020-02-20T09:20:57Z</time>
      </trkpt>
      <trkpt lat="44.26659" lon="5.6677">
        <ele>940.6953125</ele>
        <time>2020-02-20T09:20:59Z</time>
      </trkpt>
      <trkpt lat="44.26659" lon="5.6677">
        <ele>940.734375</ele>
        <time>2020-02-20T09:21:00Z</time>
      </trkpt>
      <trkpt lat="44.26659" lon="5.6677">
        <ele>940.76953125</ele>
        <time>2020-02-20T09:21:02Z</time>
      </trkpt>
      <trkpt lat="44.26659" lon="5.6677">
        <ele>940.75</ele>
        <time>2020-02-20T09:21:03Z</time>
      </trkpt>
      <trkpt lat="44.26659" lon="5.6677">
        <ele>940.73046875</ele>
        <time>2020-02-20T09:21:04Z</time>
      </trkpt>
      <trkpt lat="44.26659" lon="5.6677">
        <ele>940.70703125</ele>
        <time>2020-02-20T09:21:05Z</time>
      </trkpt>
      <trkpt lat="44.26659" lon="5.6677">
        <ele>940.69140625</ele>
        <time>2020-02-20T09:21:06Z</time>
      </trkpt>
      <trkpt lat="44.26659" lon="5.6677">
        <ele>940.671875</ele>
        <time>2020-02-20T09:21:07Z</time>
      </trkpt>
      <trkpt lat="44.26659" lon="5.6677">
        <ele>940.65625</ele>
        <time>2020-02-20T09:21:08Z</time>
      </trkpt>
      <trkpt lat="44.26659" lon="5.6677">
        <ele>940.640625</ele>
        <time>2020-02-20T09:21:10Z</time>
      </trkpt>
      <trkpt lat="44.26659" lon="5.6677">
        <ele>940.625</ele>
        <time>2020-02-20T09:21:11Z</time>
      </trkpt>
      <trkpt lat="44.26659" lon="5.6677">
        <ele>940.6484375</ele>
        <time>2020-02-20T09:21:14Z</time>
      </trkpt>
      <trkpt lat="44.2666" lon="5.66773">
        <ele>940.27734375</ele>
        <time>2020-02-20T09:21:17Z</time>
      </trkpt>
      <trkpt lat="44.26665" lon="5.66779">
        <ele>940.32421875</ele>
        <time>2020-02-20T09:21:23Z</time>
      </trkpt>
      <trkpt lat="44.26669" lon="5.66783">
        <ele>940.42578125</ele>
        <time>2020-02-20T09:21:27Z</time>
      </trkpt>
      <trkpt lat="44.26678" lon="5.66795">
        <ele>940.1796875</ele>
        <time>2020-02-20T09:21:38Z</time>
      </trkpt>
      <trkpt lat="44.26687" lon="5.66803">
        <ele>940.80078125</ele>
        <time>2020-02-20T09:21:49Z</time>
      </trkpt>
      <trkpt lat="44.26691" lon="5.66806">
        <ele>941.0625</ele>
        <time>2020-02-20T09:21:53Z</time>
      </trkpt>
      <trkpt lat="44.26691" lon="5.66807">
        <ele>941.05859375</ele>
        <time>2020-02-20T09:21:54Z</time>
      </trkpt>
      <trkpt lat="44.26695" lon="5.66809">
        <ele>941.4765625</ele>
        <time>2020-02-20T09:21:57Z</time>
      </trkpt>
      <trkpt lat="44.26696" lon="5.6681">
        <ele>941.52734375</ele>
        <time>2020-02-20T09:21:58Z</time>
      </trkpt>
      <trkpt lat="44.26698" lon="5.66812">
        <ele>941.73046875</ele>
        <time>2020-02-20T09:22:02Z</time>
      </trkpt>
      <trkpt lat="44.26698" lon="5.66811">
        <ele>941.74609375</ele>
        <time>2020-02-20T09:22:03Z</time>
      </trkpt>
      <trkpt lat="44.26698" lon="5.66811">
        <ele>941.80078125</ele>
        <time>2020-02-20T09:22:04Z</time>
      </trkpt>
      <trkpt lat="44.267" lon="5.66812">
        <ele>942.08984375</ele>
        <time>2020-02-20T09:22:15Z</time>
      </trkpt>
      <trkpt lat="44.26703" lon="5.66814">
        <ele>942.58984375</ele>
        <time>2020-02-20T09:22:26Z</time>
      </trkpt>
      <trkpt lat="44.26703" lon="5.66813">
        <ele>942.74609375</ele>
        <time>2020-02-20T09:22:52Z</time>
      </trkpt>
      <trkpt lat="44.26703" lon="5.66813">
        <ele>942.87109375</ele>
        <time>2020-02-20T09:22:55Z</time>
      </trkpt>
      <trkpt lat="44.26703" lon="5.66813">
        <ele>942.8671875</ele>
        <time>2020-02-20T09:22:56Z</time>
      </trkpt>
      <trkpt lat="44.26703" lon="5.66814">
        <ele>942.796875</ele>
        <time>2020-02-20T09:23:04Z</time>
      </trkpt>
      <trkpt lat="44.26703" lon="5.66814">
        <ele>942.80078125</ele>
        <time>2020-02-20T09:23:05Z</time>
      </trkpt>
      <trkpt lat="44.26704" lon="5.66814">
        <ele>942.81640625</ele>
        <time>2020-02-20T09:23:24Z</time>
      </trkpt>
      <trkpt lat="44.26703" lon="5.66814">
        <ele>942.5859375</ele>
        <time>2020-02-20T09:23:34Z</time>
      </trkpt>
      <trkpt lat="44.26701" lon="5.66814">
        <ele>942.06640625</ele>
        <time>2020-02-20T09:23:44Z</time>
      </trkpt>
      <trkpt lat="44.267" lon="5.66815">
        <ele>941.7109375</ele>
        <time>2020-02-20T09:23:58Z</time>
      </trkpt>
      <trkpt lat="44.26701" lon="5.66815">
        <ele>941.96484375</ele>
        <time>2020-02-20T09:24:10Z</time>
      </trkpt>
      <trkpt lat="44.26702" lon="5.66815">
        <ele>941.98046875</ele>
        <time>2020-02-20T09:24:11Z</time>
      </trkpt>
      <trkpt lat="44.26702" lon="5.66815">
        <ele>941.98046875</ele>
        <time>2020-02-20T09:24:12Z</time>
      </trkpt>
      <trkpt lat="44.26702" lon="5.66815">
        <ele>942.03125</ele>
        <time>2020-02-20T09:24:14Z</time>
      </trkpt>
      <trkpt lat="44.26702" lon="5.66815">
        <ele>942.046875</ele>
        <time>2020-02-20T09:24:15Z</time>
      </trkpt>
      <trkpt lat="44.26702" lon="5.66815">
        <ele>942.1171875</ele>
        <time>2020-02-20T09:24:18Z</time>
      </trkpt>
      <trkpt lat="44.26702" lon="5.66816">
        <ele>941.859375</ele>
        <time>2020-02-20T09:24:29Z</time>
      </trkpt>
      <trkpt lat="44.26702" lon="5.66814">
        <ele>942.38671875</ele>
        <time>2020-02-20T09:24:45Z</time>
      </trkpt>
      <trkpt lat="44.26703" lon="5.66816">
        <ele>942.14453125</ele>
        <time>2020-02-20T09:25:08Z</time>
      </trkpt>
      <trkpt lat="44.26703" lon="5.66817">
        <ele>942.17578125</ele>
        <time>2020-02-20T09:25:25Z</time>
      </trkpt>
      <trkpt lat="44.26704" lon="5.66817">
        <ele>942.3671875</ele>
        <time>2020-02-20T09:25:37Z</time>
      </trkpt>
      <trkpt lat="44.26704" lon="5.66817">
        <ele>942.3671875</ele>
        <time>2020-02-20T09:25:50Z</time>
      </trkpt>
      <trkpt lat="44.26708" lon="5.66818">
        <ele>943.34375</ele>
        <time>2020-02-20T09:26:00Z</time>
      </trkpt>
      <trkpt lat="44.26709" lon="5.66819">
        <ele>943.55859375</ele>
        <time>2020-02-20T09:26:01Z</time>
      </trkpt>
      <trkpt lat="44.26711" lon="5.66819">
        <ele>943.9140625</ele>
        <time>2020-02-20T09:26:03Z</time>
      </trkpt>
      <trkpt lat="44.26712" lon="5.66819">
        <ele>944.07421875</ele>
        <time>2020-02-20T09:26:04Z</time>
      </trkpt>
      <trkpt lat="44.26712" lon="5.66819">
        <ele>944.30078125</ele>
        <time>2020-02-20T09:26:05Z</time>
      </trkpt>
      <trkpt lat="44.26713" lon="5.66819">
        <ele>944.53515625</ele>
        <time>2020-02-20T09:26:06Z</time>
      </trkpt>
      <trkpt lat="44.26717" lon="5.66821">
        <ele>945.21484375</ele>
        <time>2020-02-20T09:26:10Z</time>
      </trkpt>
      <trkpt lat="44.26722" lon="5.66824">
        <ele>946.36328125</ele>
        <time>2020-02-20T09:26:18Z</time>
      </trkpt>
      <trkpt lat="44.26734" lon="5.66832">
        <ele>949.3984375</ele>
        <time>2020-02-20T09:26:32Z</time>
      </trkpt>
      <trkpt lat="44.26745" lon="5.66844">
        <ele>951.69140625</ele>
        <time>2020-02-20T09:26:45Z</time>
      </trkpt>
      <trkpt lat="44.2675" lon="5.66853">
        <ele>952.5625</ele>
        <time>2020-02-20T09:26:54Z</time>
      </trkpt>
      <trkpt lat="44.26751" lon="5.66856">
        <ele>952.91015625</ele>
        <time>2020-02-20T09:26:56Z</time>
      </trkpt>
      <trkpt lat="44.26752" lon="5.66857">
        <ele>952.9765625</ele>
        <time>2020-02-20T09:26:57Z</time>
      </trkpt>
      <trkpt lat="44.26752" lon="5.66858">
        <ele>953.0546875</ele>
        <time>2020-02-20T09:26:58Z</time>
      </trkpt>
      <trkpt lat="44.26752" lon="5.66859">
        <ele>953.17578125</ele>
        <time>2020-02-20T09:26:59Z</time>
      </trkpt>
      <trkpt lat="44.26753" lon="5.66859">
        <ele>953.20703125</ele>
        <time>2020-02-20T09:27:00Z</time>
      </trkpt>
      <trkpt lat="44.26757" lon="5.66872">
        <ele>953.92578125</ele>
        <time>2020-02-20T09:27:11Z</time>
      </trkpt>
      <trkpt lat="44.26764" lon="5.6689">
        <ele>955.6640625</ele>
        <time>2020-02-20T09:27:26Z</time>
      </trkpt>
      <trkpt lat="44.26772" lon="5.66902">
        <ele>957.86328125</ele>
        <time>2020-02-20T09:27:39Z</time>
      </trkpt>
      <trkpt lat="44.26778" lon="5.66915">
        <ele>959.859375</ele>
        <time>2020-02-20T09:27:51Z</time>
      </trkpt>
      <trkpt lat="44.26782" lon="5.66925">
        <ele>960.671875</ele>
        <time>2020-02-20T09:28:00Z</time>
      </trkpt>
      <trkpt lat="44.26787" lon="5.66938">
        <ele>961.90234375</ele>
        <time>2020-02-20T09:28:10Z</time>
      </trkpt>
      <trkpt lat="44.26789" lon="5.66948">
        <ele>962.30078125</ele>
        <time>2020-02-20T09:28:18Z</time>
      </trkpt>
      <trkpt lat="44.2679" lon="5.66951">
        <ele>962.47265625</ele>
        <time>2020-02-20T09:28:22Z</time>
      </trkpt>
      <trkpt lat="44.26793" lon="5.66957">
        <ele>962.86328125</ele>
        <time>2020-02-20T09:28:28Z</time>
      </trkpt>
      <trkpt lat="44.26795" lon="5.66969">
        <ele>963.33203125</ele>
        <time>2020-02-20T09:28:37Z</time>
      </trkpt>
      <trkpt lat="44.26796" lon="5.6697">
        <ele>963.47265625</ele>
        <time>2020-02-20T09:28:38Z</time>
      </trkpt>
      <trkpt lat="44.268" lon="5.6698">
        <ele>964.37109375</ele>
        <time>2020-02-20T09:28:47Z</time>
      </trkpt>
      <trkpt lat="44.26802" lon="5.66985">
        <ele>964.765625</ele>
        <time>2020-02-20T09:28:51Z</time>
      </trkpt>
      <trkpt lat="44.26805" lon="5.66993">
        <ele>965.4921875</ele>
        <time>2020-02-20T09:28:58Z</time>
      </trkpt>
      <trkpt lat="44.26806" lon="5.66997">
        <ele>965.671875</ele>
        <time>2020-02-20T09:29:01Z</time>
      </trkpt>
      <trkpt lat="44.26812" lon="5.67008">
        <ele>966.890625</ele>
        <time>2020-02-20T09:29:11Z</time>
      </trkpt>
      <trkpt lat="44.26817" lon="5.67019">
        <ele>967.92578125</ele>
        <time>2020-02-20T09:29:21Z</time>
      </trkpt>
      <trkpt lat="44.2682" lon="5.67027">
        <ele>968.34375</ele>
        <time>2020-02-20T09:29:30Z</time>
      </trkpt>
      <trkpt lat="44.26826" lon="5.67035">
        <ele>969.375</ele>
        <time>2020-02-20T09:29:42Z</time>
      </trkpt>
      <trkpt lat="44.26828" lon="5.67039">
        <ele>969.67578125</ele>
        <time>2020-02-20T09:29:53Z</time>
      </trkpt>
      <trkpt lat="44.26827" lon="5.6704">
        <ele>969.29296875</ele>
        <time>2020-02-20T09:30:04Z</time>
      </trkpt>
      <trkpt lat="44.26828" lon="5.67045">
        <ele>969.48046875</ele>
        <time>2020-02-20T09:30:08Z</time>
      </trkpt>
      <trkpt lat="44.26829" lon="5.6705">
        <ele>969.84375</ele>
        <time>2020-02-20T09:30:17Z</time>
      </trkpt>
      <trkpt lat="44.2683" lon="5.67055">
        <ele>970.390625</ele>
        <time>2020-02-20T09:30:25Z</time>
      </trkpt>
      <trkpt lat="44.26832" lon="5.67061">
        <ele>971</ele>
        <time>2020-02-20T09:30:29Z</time>
      </trkpt>
      <trkpt lat="44.26836" lon="5.67074">
        <ele>972.37109375</ele>
        <time>2020-02-20T09:30:38Z</time>
      </trkpt>
      <trkpt lat="44.26837" lon="5.67077">
        <ele>972.78515625</ele>
        <time>2020-02-20T09:30:41Z</time>
      </trkpt>
      <trkpt lat="44.26841" lon="5.67089">
        <ele>974.0859375</ele>
        <time>2020-02-20T09:30:51Z</time>
      </trkpt>
      <trkpt lat="44.26842" lon="5.67092">
        <ele>974.24609375</ele>
        <time>2020-02-20T09:30:53Z</time>
      </trkpt>
      <trkpt lat="44.26842" lon="5.67095">
        <ele>974.4296875</ele>
        <time>2020-02-20T09:30:55Z</time>
      </trkpt>
      <trkpt lat="44.26845" lon="5.6711">
        <ele>975.20703125</ele>
        <time>2020-02-20T09:31:06Z</time>
      </trkpt>
      <trkpt lat="44.26846" lon="5.67115">
        <ele>975.265625</ele>
        <time>2020-02-20T09:31:10Z</time>
      </trkpt>
      <trkpt lat="44.26845" lon="5.67129">
        <ele>974.91015625</ele>
        <time>2020-02-20T09:31:21Z</time>
      </trkpt>
      <trkpt lat="44.26846" lon="5.67137">
        <ele>974.69921875</ele>
        <time>2020-02-20T09:31:27Z</time>
      </trkpt>
      <trkpt lat="44.26842" lon="5.67154">
        <ele>972.93359375</ele>
        <time>2020-02-20T09:31:38Z</time>
      </trkpt>
      <trkpt lat="44.26838" lon="5.67164">
        <ele>971.1015625</ele>
        <time>2020-02-20T09:31:47Z</time>
      </trkpt>
      <trkpt lat="44.26837" lon="5.67165">
        <ele>970.75390625</ele>
        <time>2020-02-20T09:31:49Z</time>
      </trkpt>
      <trkpt lat="44.26835" lon="5.67172">
        <ele>969.7109375</ele>
        <time>2020-02-20T09:31:55Z</time>
      </trkpt>
      <trkpt lat="44.26835" lon="5.67188">
        <ele>967.9140625</ele>
        <time>2020-02-20T09:32:05Z</time>
      </trkpt>
      <trkpt lat="44.26842" lon="5.67202">
        <ele>967.16796875</ele>
        <time>2020-02-20T09:32:17Z</time>
      </trkpt>
      <trkpt lat="44.26852" lon="5.67212">
        <ele>968.4296875</ele>
        <time>2020-02-20T09:32:28Z</time>
      </trkpt>
      <trkpt lat="44.26858" lon="5.67215">
        <ele>969.97265625</ele>
        <time>2020-02-20T09:32:35Z</time>
      </trkpt>
      <trkpt lat="44.26863" lon="5.67211">
        <ele>972.20703125</ele>
        <time>2020-02-20T09:32:40Z</time>
      </trkpt>
      <trkpt lat="44.26865" lon="5.67206">
        <ele>973.484375</ele>
        <time>2020-02-20T09:32:44Z</time>
      </trkpt>
      <trkpt lat="44.26869" lon="5.6719">
        <ele>976.5859375</ele>
        <time>2020-02-20T09:32:57Z</time>
      </trkpt>
      <trkpt lat="44.26869" lon="5.67177">
        <ele>978.1171875</ele>
        <time>2020-02-20T09:33:07Z</time>
      </trkpt>
      <trkpt lat="44.2687" lon="5.67172">
        <ele>978.51953125</ele>
        <time>2020-02-20T09:33:11Z</time>
      </trkpt>
      <trkpt lat="44.26872" lon="5.67163">
        <ele>979.55859375</ele>
        <time>2020-02-20T09:33:18Z</time>
      </trkpt>
      <trkpt lat="44.26875" lon="5.67155">
        <ele>980.62890625</ele>
        <time>2020-02-20T09:33:25Z</time>
      </trkpt>
      <trkpt lat="44.26876" lon="5.67155">
        <ele>980.7734375</ele>
        <time>2020-02-20T09:33:26Z</time>
      </trkpt>
      <trkpt lat="44.26877" lon="5.67153">
        <ele>981.12109375</ele>
        <time>2020-02-20T09:33:28Z</time>
      </trkpt>
      <trkpt lat="44.2688" lon="5.67149">
        <ele>981.8203125</ele>
        <time>2020-02-20T09:33:32Z</time>
      </trkpt>
      <trkpt lat="44.26886" lon="5.67143">
        <ele>983.4921875</ele>
        <time>2020-02-20T09:33:41Z</time>
      </trkpt>
      <trkpt lat="44.2689" lon="5.67142">
        <ele>984.4609375</ele>
        <time>2020-02-20T09:33:44Z</time>
      </trkpt>
      <trkpt lat="44.269" lon="5.67131">
        <ele>986.9375</ele>
        <time>2020-02-20T09:33:56Z</time>
      </trkpt>
      <trkpt lat="44.26903" lon="5.67128">
        <ele>987.64453125</ele>
        <time>2020-02-20T09:34:01Z</time>
      </trkpt>
      <trkpt lat="44.26905" lon="5.67128">
        <ele>988.03515625</ele>
        <time>2020-02-20T09:34:04Z</time>
      </trkpt>
      <trkpt lat="44.26905" lon="5.67129">
        <ele>988.1171875</ele>
        <time>2020-02-20T09:34:05Z</time>
      </trkpt>
      <trkpt lat="44.26906" lon="5.6713">
        <ele>988.3671875</ele>
        <time>2020-02-20T09:34:07Z</time>
      </trkpt>
      <trkpt lat="44.26907" lon="5.6713">
        <ele>988.4375</ele>
        <time>2020-02-20T09:34:09Z</time>
      </trkpt>
      <trkpt lat="44.26907" lon="5.6713">
        <ele>988.45703125</ele>
        <time>2020-02-20T09:34:10Z</time>
      </trkpt>
      <trkpt lat="44.26907" lon="5.6713">
        <ele>988.46484375</ele>
        <time>2020-02-20T09:34:12Z</time>
      </trkpt>
      <trkpt lat="44.26907" lon="5.6713">
        <ele>988.44921875</ele>
        <time>2020-02-20T09:34:13Z</time>
      </trkpt>
      <trkpt lat="44.26909" lon="5.67119">
        <ele>989.03125</ele>
        <time>2020-02-20T09:34:22Z</time>
      </trkpt>
      <trkpt lat="44.26913" lon="5.67112">
        <ele>989.72265625</ele>
        <time>2020-02-20T09:34:29Z</time>
      </trkpt>
      <trkpt lat="44.26915" lon="5.67096">
        <ele>990.25390625</ele>
        <time>2020-02-20T09:34:39Z</time>
      </trkpt>
      <trkpt lat="44.26915" lon="5.67085">
        <ele>990.25</ele>
        <time>2020-02-20T09:34:48Z</time>
      </trkpt>
      <trkpt lat="44.26914" lon="5.6707">
        <ele>990.18359375</ele>
        <time>2020-02-20T09:35:00Z</time>
      </trkpt>
      <trkpt lat="44.26914" lon="5.67056">
        <ele>990.59375</ele>
        <time>2020-02-20T09:35:10Z</time>
      </trkpt>
      <trkpt lat="44.26914" lon="5.67042">
        <ele>991.0234375</ele>
        <time>2020-02-20T09:35:21Z</time>
      </trkpt>
      <trkpt lat="44.26912" lon="5.67029">
        <ele>991.05859375</ele>
        <time>2020-02-20T09:35:31Z</time>
      </trkpt>
      <trkpt lat="44.26909" lon="5.67015">
        <ele>990.98046875</ele>
        <time>2020-02-20T09:35:41Z</time>
      </trkpt>
      <trkpt lat="44.26909" lon="5.67">
        <ele>992.4609375</ele>
        <time>2020-02-20T09:35:52Z</time>
      </trkpt>
      <trkpt lat="44.26915" lon="5.67">
        <ele>993.890625</ele>
        <time>2020-02-20T09:36:02Z</time>
      </trkpt>
      <trkpt lat="44.26917" lon="5.67004">
        <ele>994.0859375</ele>
        <time>2020-02-20T09:36:07Z</time>
      </trkpt>
      <trkpt lat="44.26918" lon="5.67006">
        <ele>994.0703125</ele>
        <time>2020-02-20T09:36:09Z</time>
      </trkpt>
      <trkpt lat="44.26924" lon="5.67016">
        <ele>994.48046875</ele>
        <time>2020-02-20T09:36:19Z</time>
      </trkpt>
      <trkpt lat="44.26931" lon="5.67026">
        <ele>995.76171875</ele>
        <time>2020-02-20T09:36:30Z</time>
      </trkpt>
      <trkpt lat="44.26939" lon="5.67035">
        <ele>996.921875</ele>
        <time>2020-02-20T09:36:40Z</time>
      </trkpt>
      <trkpt lat="44.26946" lon="5.67043">
        <ele>998.41015625</ele>
        <time>2020-02-20T09:36:50Z</time>
      </trkpt>
      <trkpt lat="44.26952" lon="5.67051">
        <ele>1000.20703125</ele>
        <time>2020-02-20T09:37:00Z</time>
      </trkpt>
      <trkpt lat="44.26959" lon="5.6706">
        <ele>1002.26171875</ele>
        <time>2020-02-20T09:37:10Z</time>
      </trkpt>
      <trkpt lat="44.26964" lon="5.6707">
        <ele>1003.3671875</ele>
        <time>2020-02-20T09:37:19Z</time>
      </trkpt>
      <trkpt lat="44.26965" lon="5.67073">
        <ele>1003.66015625</ele>
        <time>2020-02-20T09:37:21Z</time>
      </trkpt>
      <trkpt lat="44.26967" lon="5.67077">
        <ele>1004.3515625</ele>
        <time>2020-02-20T09:37:25Z</time>
      </trkpt>
      <trkpt lat="44.2697" lon="5.67085">
        <ele>1005.16796875</ele>
        <time>2020-02-20T09:37:32Z</time>
      </trkpt>
      <trkpt lat="44.26974" lon="5.67097">
        <ele>1006.48046875</ele>
        <time>2020-02-20T09:37:42Z</time>
      </trkpt>
      <trkpt lat="44.26975" lon="5.67098">
        <ele>1006.67578125</ele>
        <time>2020-02-20T09:37:44Z</time>
      </trkpt>
      <trkpt lat="44.26979" lon="5.6711">
        <ele>1007.81640625</ele>
        <time>2020-02-20T09:37:55Z</time>
      </trkpt>
      <trkpt lat="44.26979" lon="5.67114">
        <ele>1008.09375</ele>
        <time>2020-02-20T09:37:58Z</time>
      </trkpt>
      <trkpt lat="44.2698" lon="5.6712">
        <ele>1008.48046875</ele>
        <time>2020-02-20T09:38:03Z</time>
      </trkpt>
      <trkpt lat="44.26981" lon="5.6713">
        <ele>1008.73828125</ele>
        <time>2020-02-20T09:38:09Z</time>
      </trkpt>
      <trkpt lat="44.26984" lon="5.67141">
        <ele>1009.62109375</ele>
        <time>2020-02-20T09:38:18Z</time>
      </trkpt>
      <trkpt lat="44.26987" lon="5.67153">
        <ele>1010.765625</ele>
        <time>2020-02-20T09:38:27Z</time>
      </trkpt>
      <trkpt lat="44.2699" lon="5.67167">
        <ele>1011.57421875</ele>
        <time>2020-02-20T09:38:37Z</time>
      </trkpt>
      <trkpt lat="44.26991" lon="5.67177">
        <ele>1012.1328125</ele>
        <time>2020-02-20T09:38:45Z</time>
      </trkpt>
      <trkpt lat="44.26994" lon="5.6719">
        <ele>1012.6796875</ele>
        <time>2020-02-20T09:38:54Z</time>
      </trkpt>
      <trkpt lat="44.26996" lon="5.67202">
        <ele>1012.94921875</ele>
        <time>2020-02-20T09:39:03Z</time>
      </trkpt>
      <trkpt lat="44.26998" lon="5.67216">
        <ele>1012.79296875</ele>
        <time>2020-02-20T09:39:13Z</time>
      </trkpt>
      <trkpt lat="44.26999" lon="5.67218">
        <ele>1012.99609375</ele>
        <time>2020-02-20T09:39:15Z</time>
      </trkpt>
      <trkpt lat="44.27002" lon="5.67232">
        <ele>1012.8203125</ele>
        <time>2020-02-20T09:39:25Z</time>
      </trkpt>
      <trkpt lat="44.27008" lon="5.67243">
        <ele>1013.25</ele>
        <time>2020-02-20T09:39:34Z</time>
      </trkpt>
      <trkpt lat="44.27016" lon="5.67254">
        <ele>1013.296875</ele>
        <time>2020-02-20T09:39:46Z</time>
      </trkpt>
      <trkpt lat="44.2702" lon="5.67261">
        <ele>1013.22265625</ele>
        <time>2020-02-20T09:39:56Z</time>
      </trkpt>
      <trkpt lat="44.27024" lon="5.67267">
        <ele>1013.4296875</ele>
        <time>2020-02-20T09:40:06Z</time>
      </trkpt>
      <trkpt lat="44.27029" lon="5.67275">
        <ele>1013.828125</ele>
        <time>2020-02-20T09:40:15Z</time>
      </trkpt>
      <trkpt lat="44.27031" lon="5.67277">
        <ele>1014.2578125</ele>
        <time>2020-02-20T09:40:27Z</time>
      </trkpt>
      <trkpt lat="44.27032" lon="5.67277">
        <ele>1014.5</ele>
        <time>2020-02-20T09:40:43Z</time>
      </trkpt>
      <trkpt lat="44.27033" lon="5.67278">
        <ele>1014.4375</ele>
        <time>2020-02-20T09:41:01Z</time>
      </trkpt>
      <trkpt lat="44.27033" lon="5.67278">
        <ele>1014.46484375</ele>
        <time>2020-02-20T09:41:14Z</time>
      </trkpt>
      <trkpt lat="44.27032" lon="5.67278">
        <ele>1014.23828125</ele>
        <time>2020-02-20T09:41:27Z</time>
      </trkpt>
      <trkpt lat="44.27031" lon="5.67277">
        <ele>1014.06640625</ele>
        <time>2020-02-20T09:41:45Z</time>
      </trkpt>
      <trkpt lat="44.27033" lon="5.6728">
        <ele>1014.3203125</ele>
        <time>2020-02-20T09:41:57Z</time>
      </trkpt>
      <trkpt lat="44.27034" lon="5.67286">
        <ele>1013.7890625</ele>
        <time>2020-02-20T09:42:12Z</time>
      </trkpt>
      <trkpt lat="44.27035" lon="5.67286">
        <ele>1013.921875</ele>
        <time>2020-02-20T09:42:21Z</time>
      </trkpt>
      <trkpt lat="44.27034" lon="5.67287">
        <ele>1013.24609375</ele>
        <time>2020-02-20T09:42:30Z</time>
      </trkpt>
      <trkpt lat="44.27034" lon="5.67286">
        <ele>1013.5</ele>
        <time>2020-02-20T09:42:55Z</time>
      </trkpt>
      <trkpt lat="44.27034" lon="5.67286">
        <ele>1013.73046875</ele>
        <time>2020-02-20T09:43:09Z</time>
      </trkpt>
      <trkpt lat="44.27035" lon="5.67287">
        <ele>1013.84375</ele>
        <time>2020-02-20T09:43:23Z</time>
      </trkpt>
      <trkpt lat="44.27041" lon="5.67291">
        <ele>1015.2734375</ele>
        <time>2020-02-20T09:43:33Z</time>
      </trkpt>
      <trkpt lat="44.27048" lon="5.67301">
        <ele>1015.46484375</ele>
        <time>2020-02-20T09:43:44Z</time>
      </trkpt>
      <trkpt lat="44.27054" lon="5.67309">
        <ele>1016.140625</ele>
        <time>2020-02-20T09:43:53Z</time>
      </trkpt>
      <trkpt lat="44.27059" lon="5.67316">
        <ele>1016.85546875</ele>
        <time>2020-02-20T09:44:02Z</time>
      </trkpt>
      <trkpt lat="44.27066" lon="5.67324">
        <ele>1017.77734375</ele>
        <time>2020-02-20T09:44:12Z</time>
      </trkpt>
      <trkpt lat="44.27068" lon="5.67327">
        <ele>1017.734375</ele>
        <time>2020-02-20T09:44:15Z</time>
      </trkpt>
      <trkpt lat="44.27076" lon="5.67335">
        <ele>1018.66015625</ele>
        <time>2020-02-20T09:44:26Z</time>
      </trkpt>
      <trkpt lat="44.27083" lon="5.67342">
        <ele>1019.95703125</ele>
        <time>2020-02-20T09:44:36Z</time>
      </trkpt>
      <trkpt lat="44.27085" lon="5.67344">
        <ele>1020.14453125</ele>
        <time>2020-02-20T09:44:38Z</time>
      </trkpt>
      <trkpt lat="44.27091" lon="5.67352">
        <ele>1020.91796875</ele>
        <time>2020-02-20T09:44:48Z</time>
      </trkpt>
      <trkpt lat="44.27097" lon="5.6736">
        <ele>1020.6875</ele>
        <time>2020-02-20T09:44:57Z</time>
      </trkpt>
      <trkpt lat="44.271" lon="5.67364">
        <ele>1020.8359375</ele>
        <time>2020-02-20T09:45:01Z</time>
      </trkpt>
      <trkpt lat="44.27109" lon="5.67378">
        <ele>1019.828125</ele>
        <time>2020-02-20T09:45:14Z</time>
      </trkpt>
      <trkpt lat="44.27117" lon="5.67387">
        <ele>1020.30859375</ele>
        <time>2020-02-20T09:45:25Z</time>
      </trkpt>
      <trkpt lat="44.27125" lon="5.67398">
        <ele>1019.9921875</ele>
        <time>2020-02-20T09:45:37Z</time>
      </trkpt>
      <trkpt lat="44.27133" lon="5.67409">
        <ele>1019.1875</ele>
        <time>2020-02-20T09:45:48Z</time>
      </trkpt>
      <trkpt lat="44.27141" lon="5.67419">
        <ele>1019.35546875</ele>
        <time>2020-02-20T09:46:02Z</time>
      </trkpt>
      <trkpt lat="44.27151" lon="5.67431">
        <ele>1020.13671875</ele>
        <time>2020-02-20T09:46:15Z</time>
      </trkpt>
      <trkpt lat="44.2716" lon="5.67439">
        <ele>1021.89453125</ele>
        <time>2020-02-20T09:46:24Z</time>
      </trkpt>
      <trkpt lat="44.27163" lon="5.67441">
        <ele>1022.515625</ele>
        <time>2020-02-20T09:46:27Z</time>
      </trkpt>
      <trkpt lat="44.27174" lon="5.67447">
        <ele>1025.75390625</ele>
        <time>2020-02-20T09:46:38Z</time>
      </trkpt>
      <trkpt lat="44.27183" lon="5.67454">
        <ele>1028.51171875</ele>
        <time>2020-02-20T09:46:47Z</time>
      </trkpt>
      <trkpt lat="44.27193" lon="5.6746">
        <ele>1031.7421875</ele>
        <time>2020-02-20T09:46:58Z</time>
      </trkpt>
      <trkpt lat="44.27196" lon="5.67464">
        <ele>1032.3984375</ele>
        <time>2020-02-20T09:47:02Z</time>
      </trkpt>
      <trkpt lat="44.27197" lon="5.67466">
        <ele>1032.44921875</ele>
        <time>2020-02-20T09:47:04Z</time>
      </trkpt>
      <trkpt lat="44.2721" lon="5.67477">
        <ele>1035.98046875</ele>
        <time>2020-02-20T09:47:18Z</time>
      </trkpt>
      <trkpt lat="44.27212" lon="5.6748">
        <ele>1036.03515625</ele>
        <time>2020-02-20T09:47:21Z</time>
      </trkpt>
      <trkpt lat="44.27217" lon="5.67486">
        <ele>1037.08203125</ele>
        <time>2020-02-20T09:47:29Z</time>
      </trkpt>
      <trkpt lat="44.27218" lon="5.67489">
        <ele>1037.22265625</ele>
        <time>2020-02-20T09:47:32Z</time>
      </trkpt>
      <trkpt lat="44.2722" lon="5.67492">
        <ele>1037.359375</ele>
        <time>2020-02-20T09:47:34Z</time>
      </trkpt>
      <trkpt lat="44.27222" lon="5.67505">
        <ele>1035.55859375</ele>
        <time>2020-02-20T09:47:43Z</time>
      </trkpt>
      <trkpt lat="44.27222" lon="5.67506">
        <ele>1035.34765625</ele>
        <time>2020-02-20T09:47:44Z</time>
      </trkpt>
      <trkpt lat="44.27223" lon="5.67521">
        <ele>1032.70703125</ele>
        <time>2020-02-20T09:47:54Z</time>
      </trkpt>
      <trkpt lat="44.27224" lon="5.67524">
        <ele>1032.6484375</ele>
        <time>2020-02-20T09:47:56Z</time>
      </trkpt>
      <trkpt lat="44.27227" lon="5.67539">
        <ele>1031.6328125</ele>
        <time>2020-02-20T09:48:07Z</time>
      </trkpt>
      <trkpt lat="44.2723" lon="5.67551">
        <ele>1030.24609375</ele>
        <time>2020-02-20T09:48:16Z</time>
      </trkpt>
      <trkpt lat="44.27231" lon="5.67555">
        <ele>1030.125</ele>
        <time>2020-02-20T09:48:19Z</time>
      </trkpt>
      <trkpt lat="44.27232" lon="5.67558">
        <ele>1029.67578125</ele>
        <time>2020-02-20T09:48:21Z</time>
      </trkpt>
      <trkpt lat="44.27232" lon="5.6756">
        <ele>1029.5390625</ele>
        <time>2020-02-20T09:48:22Z</time>
      </trkpt>
      <trkpt lat="44.27233" lon="5.67561">
        <ele>1029.42578125</ele>
        <time>2020-02-20T09:48:23Z</time>
      </trkpt>
      <trkpt lat="44.27233" lon="5.67563">
        <ele>1029.09765625</ele>
        <time>2020-02-20T09:48:24Z</time>
      </trkpt>
      <trkpt lat="44.27233" lon="5.67565">
        <ele>1028.93359375</ele>
        <time>2020-02-20T09:48:25Z</time>
      </trkpt>
      <trkpt lat="44.27233" lon="5.67566">
        <ele>1028.71875</ele>
        <time>2020-02-20T09:48:26Z</time>
      </trkpt>
      <trkpt lat="44.27234" lon="5.67567">
        <ele>1028.4921875</ele>
        <time>2020-02-20T09:48:27Z</time>
      </trkpt>
      <trkpt lat="44.27234" lon="5.67569">
        <ele>1028.36328125</ele>
        <time>2020-02-20T09:48:28Z</time>
      </trkpt>
      <trkpt lat="44.27234" lon="5.6757">
        <ele>1028.2734375</ele>
        <time>2020-02-20T09:48:29Z</time>
      </trkpt>
      <trkpt lat="44.27238" lon="5.6758">
        <ele>1027.94140625</ele>
        <time>2020-02-20T09:48:35Z</time>
      </trkpt>
      <trkpt lat="44.27238" lon="5.67581">
        <ele>1027.94921875</ele>
        <time>2020-02-20T09:48:36Z</time>
      </trkpt>
      <trkpt lat="44.2724" lon="5.67587">
        <ele>1027.4609375</ele>
        <time>2020-02-20T09:48:41Z</time>
      </trkpt>
      <trkpt lat="44.2724" lon="5.67588">
        <ele>1027.1953125</ele>
        <time>2020-02-20T09:48:42Z</time>
      </trkpt>
      <trkpt lat="44.27241" lon="5.67591">
        <ele>1026.8828125</ele>
        <time>2020-02-20T09:48:44Z</time>
      </trkpt>
      <trkpt lat="44.27246" lon="5.67601">
        <ele>1026.8828125</ele>
        <time>2020-02-20T09:48:53Z</time>
      </trkpt>
      <trkpt lat="44.2725" lon="5.67617">
        <ele>1025.390625</ele>
        <time>2020-02-20T09:49:02Z</time>
      </trkpt>
      <trkpt lat="44.27257" lon="5.67633">
        <ele>1024.65234375</ele>
        <time>2020-02-20T09:49:13Z</time>
      </trkpt>
      <trkpt lat="44.27263" lon="5.67646">
        <ele>1024.09765625</ele>
        <time>2020-02-20T09:49:22Z</time>
      </trkpt>
      <trkpt lat="44.27271" lon="5.67664">
        <ele>1022.55859375</ele>
        <time>2020-02-20T09:49:34Z</time>
      </trkpt>
      <trkpt lat="44.27273" lon="5.67669">
        <ele>1022.3203125</ele>
        <time>2020-02-20T09:49:38Z</time>
      </trkpt>
      <trkpt lat="44.27284" lon="5.67688">
        <ele>1022</ele>
        <time>2020-02-20T09:49:52Z</time>
      </trkpt>
      <trkpt lat="44.27296" lon="5.67702">
        <ele>1023.83984375</ele>
        <time>2020-02-20T09:50:06Z</time>
      </trkpt>
      <trkpt lat="44.27307" lon="5.67703">
        <ele>1028.1328125</ele>
        <time>2020-02-20T09:50:16Z</time>
      </trkpt>
      <trkpt lat="44.27312" lon="5.67705">
        <ele>1029.8125</ele>
        <time>2020-02-20T09:50:20Z</time>
      </trkpt>
      <trkpt lat="44.27318" lon="5.67716">
        <ele>1030.76171875</ele>
        <time>2020-02-20T09:50:29Z</time>
      </trkpt>
      <trkpt lat="44.2732" lon="5.67726">
        <ele>1030.46484375</ele>
        <time>2020-02-20T09:50:38Z</time>
      </trkpt>
      <trkpt lat="44.2732" lon="5.67736">
        <ele>1029.53125</ele>
        <time>2020-02-20T09:50:46Z</time>
      </trkpt>
      <trkpt lat="44.27322" lon="5.67749">
        <ele>1028.546875</ele>
        <time>2020-02-20T09:50:56Z</time>
      </trkpt>
      <trkpt lat="44.27326" lon="5.6776">
        <ele>1029.4296875</ele>
        <time>2020-02-20T09:51:06Z</time>
      </trkpt>
      <trkpt lat="44.27328" lon="5.67764">
        <ele>1030.18359375</ele>
        <time>2020-02-20T09:51:10Z</time>
      </trkpt>
      <trkpt lat="44.27342" lon="5.67775">
        <ele>1035.34765625</ele>
        <time>2020-02-20T09:51:23Z</time>
      </trkpt>
      <trkpt lat="44.27352" lon="5.67787">
        <ele>1038.76953125</ele>
        <time>2020-02-20T09:51:34Z</time>
      </trkpt>
      <trkpt lat="44.27356" lon="5.67794">
        <ele>1040.08203125</ele>
        <time>2020-02-20T09:51:40Z</time>
      </trkpt>
      <trkpt lat="44.27362" lon="5.67811">
        <ele>1041.21484375</ele>
        <time>2020-02-20T09:51:52Z</time>
      </trkpt>
      <trkpt lat="44.27364" lon="5.67818">
        <ele>1041.3984375</ele>
        <time>2020-02-20T09:51:58Z</time>
      </trkpt>
      <trkpt lat="44.27364" lon="5.67826">
        <ele>1040.64453125</ele>
        <time>2020-02-20T09:52:03Z</time>
      </trkpt>
      <trkpt lat="44.27364" lon="5.67844">
        <ele>1038.8515625</ele>
        <time>2020-02-20T09:52:15Z</time>
      </trkpt>
      <trkpt lat="44.27366" lon="5.67849">
        <ele>1039.07421875</ele>
        <time>2020-02-20T09:52:18Z</time>
      </trkpt>
      <trkpt lat="44.27366" lon="5.67853">
        <ele>1038.9296875</ele>
        <time>2020-02-20T09:52:20Z</time>
      </trkpt>
      <trkpt lat="44.27365" lon="5.67855">
        <ele>1038.78515625</ele>
        <time>2020-02-20T09:52:21Z</time>
      </trkpt>
      <trkpt lat="44.27365" lon="5.67856">
        <ele>1038.6875</ele>
        <time>2020-02-20T09:52:22Z</time>
      </trkpt>
      <trkpt lat="44.27364" lon="5.67863">
        <ele>1037.9609375</ele>
        <time>2020-02-20T09:52:26Z</time>
      </trkpt>
      <trkpt lat="44.27365" lon="5.67865">
        <ele>1037.94921875</ele>
        <time>2020-02-20T09:52:27Z</time>
      </trkpt>
      <trkpt lat="44.27365" lon="5.67867">
        <ele>1038.00390625</ele>
        <time>2020-02-20T09:52:28Z</time>
      </trkpt>
      <trkpt lat="44.27366" lon="5.67889">
        <ele>1037.453125</ele>
        <time>2020-02-20T09:52:41Z</time>
      </trkpt>
      <trkpt lat="44.27365" lon="5.67894">
        <ele>1036.75390625</ele>
        <time>2020-02-20T09:52:44Z</time>
      </trkpt>
      <trkpt lat="44.27366" lon="5.67911">
        <ele>1036.5078125</ele>
        <time>2020-02-20T09:52:56Z</time>
      </trkpt>
      <trkpt lat="44.27366" lon="5.67925">
        <ele>1035.82421875</ele>
        <time>2020-02-20T09:53:06Z</time>
      </trkpt>
      <trkpt lat="44.27366" lon="5.67941">
        <ele>1035.21484375</ele>
        <time>2020-02-20T09:53:18Z</time>
      </trkpt>
      <trkpt lat="44.27364" lon="5.67957">
        <ele>1033.20703125</ele>
        <time>2020-02-20T09:53:28Z</time>
      </trkpt>
      <trkpt lat="44.27363" lon="5.67973">
        <ele>1032.3125</ele>
        <time>2020-02-20T09:53:38Z</time>
      </trkpt>
      <trkpt lat="44.27363" lon="5.67989">
        <ele>1031.99609375</ele>
        <time>2020-02-20T09:53:49Z</time>
      </trkpt>
      <trkpt lat="44.27364" lon="5.68008">
        <ele>1031.625</ele>
        <time>2020-02-20T09:54:00Z</time>
      </trkpt>
      <trkpt lat="44.27363" lon="5.68025">
        <ele>1030.390625</ele>
        <time>2020-02-20T09:54:10Z</time>
      </trkpt>
      <trkpt lat="44.27364" lon="5.68042">
        <ele>1030.26171875</ele>
        <time>2020-02-20T09:54:21Z</time>
      </trkpt>
      <trkpt lat="44.27366" lon="5.68056">
        <ele>1030.40234375</ele>
        <time>2020-02-20T09:54:30Z</time>
      </trkpt>
      <trkpt lat="44.27366" lon="5.68057">
        <ele>1030.0859375</ele>
        <time>2020-02-20T09:54:31Z</time>
      </trkpt>
      <trkpt lat="44.27364" lon="5.68075">
        <ele>1027.7890625</ele>
        <time>2020-02-20T09:54:41Z</time>
      </trkpt>
      <trkpt lat="44.27364" lon="5.68082">
        <ele>1026.50390625</ele>
        <time>2020-02-20T09:54:45Z</time>
      </trkpt>
      <trkpt lat="44.27364" lon="5.68086">
        <ele>1026.01953125</ele>
        <time>2020-02-20T09:54:47Z</time>
      </trkpt>
      <trkpt lat="44.27364" lon="5.68093">
        <ele>1024.95703125</ele>
        <time>2020-02-20T09:54:51Z</time>
      </trkpt>
      <trkpt lat="44.27365" lon="5.68101">
        <ele>1024.125</ele>
        <time>2020-02-20T09:54:56Z</time>
      </trkpt>
      <trkpt lat="44.2737" lon="5.68119">
        <ele>1023.5078125</ele>
        <time>2020-02-20T09:55:08Z</time>
      </trkpt>
      <trkpt lat="44.27371" lon="5.68125">
        <ele>1023.30078125</ele>
        <time>2020-02-20T09:55:12Z</time>
      </trkpt>
      <trkpt lat="44.27374" lon="5.6813">
        <ele>1024.32421875</ele>
        <time>2020-02-20T09:55:16Z</time>
      </trkpt>
      <trkpt lat="44.2738" lon="5.68142">
        <ele>1026.15625</ele>
        <time>2020-02-20T09:55:25Z</time>
      </trkpt>
      <trkpt lat="44.27386" lon="5.68157">
        <ele>1027.92578125</ele>
        <time>2020-02-20T09:55:36Z</time>
      </trkpt>
      <trkpt lat="44.27392" lon="5.68169">
        <ele>1029.421875</ele>
        <time>2020-02-20T09:55:46Z</time>
      </trkpt>
      <trkpt lat="44.27399" lon="5.68186">
        <ele>1030.69921875</ele>
        <time>2020-02-20T09:55:58Z</time>
      </trkpt>
      <trkpt lat="44.274" lon="5.68189">
        <ele>1030.890625</ele>
        <time>2020-02-20T09:56:00Z</time>
      </trkpt>
      <trkpt lat="44.27403" lon="5.68208">
        <ele>1030.625</ele>
        <time>2020-02-20T09:56:12Z</time>
      </trkpt>
      <trkpt lat="44.27404" lon="5.68221">
        <ele>1030.53515625</ele>
        <time>2020-02-20T09:56:21Z</time>
      </trkpt>
      <trkpt lat="44.27405" lon="5.68238">
        <ele>1029.70703125</ele>
        <time>2020-02-20T09:56:31Z</time>
      </trkpt>
      <trkpt lat="44.27407" lon="5.68254">
        <ele>1029.41796875</ele>
        <time>2020-02-20T09:56:41Z</time>
      </trkpt>
      <trkpt lat="44.27407" lon="5.68272">
        <ele>1028.82421875</ele>
        <time>2020-02-20T09:56:51Z</time>
      </trkpt>
      <trkpt lat="44.27407" lon="5.68276">
        <ele>1028.56640625</ele>
        <time>2020-02-20T09:56:53Z</time>
      </trkpt>
      <trkpt lat="44.27408" lon="5.6828">
        <ele>1028.63671875</ele>
        <time>2020-02-20T09:56:56Z</time>
      </trkpt>
      <trkpt lat="44.27408" lon="5.68289">
        <ele>1028.4375</ele>
        <time>2020-02-20T09:57:02Z</time>
      </trkpt>
      <trkpt lat="44.27408" lon="5.68303">
        <ele>1028.17578125</ele>
        <time>2020-02-20T09:57:11Z</time>
      </trkpt>
      <trkpt lat="44.27409" lon="5.68318">
        <ele>1027.96484375</ele>
        <time>2020-02-20T09:57:20Z</time>
      </trkpt>
      <trkpt lat="44.27407" lon="5.68338">
        <ele>1026.6015625</ele>
        <time>2020-02-20T09:57:31Z</time>
      </trkpt>
      <trkpt lat="44.27407" lon="5.6835">
        <ele>1026.375</ele>
        <time>2020-02-20T09:57:40Z</time>
      </trkpt>
      <trkpt lat="44.27408" lon="5.68365">
        <ele>1026.55859375</ele>
        <time>2020-02-20T09:57:50Z</time>
      </trkpt>
      <trkpt lat="44.27407" lon="5.68372">
        <ele>1026.33203125</ele>
        <time>2020-02-20T09:57:54Z</time>
      </trkpt>
      <trkpt lat="44.27407" lon="5.68379">
        <ele>1026.3203125</ele>
        <time>2020-02-20T09:57:58Z</time>
      </trkpt>
      <trkpt lat="44.27407" lon="5.68391">
        <ele>1026.4375</ele>
        <time>2020-02-20T09:58:06Z</time>
      </trkpt>
      <trkpt lat="44.27408" lon="5.68406">
        <ele>1026.6484375</ele>
        <time>2020-02-20T09:58:17Z</time>
      </trkpt>
      <trkpt lat="44.27408" lon="5.68418">
        <ele>1026.86328125</ele>
        <time>2020-02-20T09:58:24Z</time>
      </trkpt>
      <trkpt lat="44.27404" lon="5.68442">
        <ele>1026.41015625</ele>
        <time>2020-02-20T09:58:37Z</time>
      </trkpt>
      <trkpt lat="44.27402" lon="5.68459">
        <ele>1026.79296875</ele>
        <time>2020-02-20T09:58:47Z</time>
      </trkpt>
      <trkpt lat="44.27398" lon="5.68475">
        <ele>1025.81640625</ele>
        <time>2020-02-20T09:58:58Z</time>
      </trkpt>
      <trkpt lat="44.27397" lon="5.68491">
        <ele>1025.6640625</ele>
        <time>2020-02-20T09:59:09Z</time>
      </trkpt>
      <trkpt lat="44.27397" lon="5.68493">
        <ele>1025.61328125</ele>
        <time>2020-02-20T09:59:11Z</time>
      </trkpt>
      <trkpt lat="44.27394" lon="5.68505">
        <ele>1024.93359375</ele>
        <time>2020-02-20T09:59:18Z</time>
      </trkpt>
      <trkpt lat="44.27389" lon="5.68521">
        <ele>1023.25390625</ele>
        <time>2020-02-20T09:59:29Z</time>
      </trkpt>
      <trkpt lat="44.27385" lon="5.68531">
        <ele>1021.53515625</ele>
        <time>2020-02-20T09:59:37Z</time>
      </trkpt>
      <trkpt lat="44.27383" lon="5.68534">
        <ele>1020.98046875</ele>
        <time>2020-02-20T09:59:39Z</time>
      </trkpt>
      <trkpt lat="44.27379" lon="5.68548">
        <ele>1019.23828125</ele>
        <time>2020-02-20T09:59:49Z</time>
      </trkpt>
      <trkpt lat="44.27378" lon="5.68563">
        <ele>1018.03125</ele>
        <time>2020-02-20T09:59:58Z</time>
      </trkpt>
      <trkpt lat="44.27377" lon="5.68568">
        <ele>1017.73046875</ele>
        <time>2020-02-20T10:00:01Z</time>
      </trkpt>
      <trkpt lat="44.27377" lon="5.68583">
        <ele>1016.5859375</ele>
        <time>2020-02-20T10:00:11Z</time>
      </trkpt>
      <trkpt lat="44.27377" lon="5.68589">
        <ele>1016.1953125</ele>
        <time>2020-02-20T10:00:15Z</time>
      </trkpt>
      <trkpt lat="44.27378" lon="5.68603">
        <ele>1015.359375</ele>
        <time>2020-02-20T10:00:26Z</time>
      </trkpt>
      <trkpt lat="44.27378" lon="5.68605">
        <ele>1015.28515625</ele>
        <time>2020-02-20T10:00:38Z</time>
      </trkpt>
      <trkpt lat="44.27378" lon="5.68606">
        <ele>1015.28125</ele>
        <time>2020-02-20T10:00:54Z</time>
      </trkpt>
      <trkpt lat="44.27379" lon="5.68605">
        <ele>1015.6328125</ele>
        <time>2020-02-20T10:01:10Z</time>
      </trkpt>
      <trkpt lat="44.27379" lon="5.68606">
        <ele>1015.67578125</ele>
        <time>2020-02-20T10:01:20Z</time>
      </trkpt>
      <trkpt lat="44.27379" lon="5.68606">
        <ele>1015.65625</ele>
        <time>2020-02-20T10:01:36Z</time>
      </trkpt>
      <trkpt lat="44.27379" lon="5.68606">
        <ele>1015.5859375</ele>
        <time>2020-02-20T10:01:54Z</time>
      </trkpt>
      <trkpt lat="44.27379" lon="5.68606">
        <ele>1015.65234375</ele>
        <time>2020-02-20T10:02:11Z</time>
      </trkpt>
      <trkpt lat="44.2738" lon="5.68606">
        <ele>1015.80859375</ele>
        <time>2020-02-20T10:02:25Z</time>
      </trkpt>
      <trkpt lat="44.2738" lon="5.68606">
        <ele>1015.80859375</ele>
        <time>2020-02-20T10:02:42Z</time>
      </trkpt>
      <trkpt lat="44.2738" lon="5.68606">
        <ele>1015.89453125</ele>
        <time>2020-02-20T10:02:51Z</time>
      </trkpt>
      <trkpt lat="44.27379" lon="5.68606">
        <ele>1015.71484375</ele>
        <time>2020-02-20T10:03:08Z</time>
      </trkpt>
      <trkpt lat="44.27379" lon="5.68605">
        <ele>1015.44140625</ele>
        <time>2020-02-20T10:03:16Z</time>
      </trkpt>
      <trkpt lat="44.27378" lon="5.68605">
        <ele>1015.33984375</ele>
        <time>2020-02-20T10:03:32Z</time>
      </trkpt>
      <trkpt lat="44.27379" lon="5.68605">
        <ele>1015.48046875</ele>
        <time>2020-02-20T10:03:46Z</time>
      </trkpt>
      <trkpt lat="44.27379" lon="5.68604">
        <ele>1015.56640625</ele>
        <time>2020-02-20T10:04:07Z</time>
      </trkpt>
      <trkpt lat="44.27379" lon="5.68604">
        <ele>1015.6640625</ele>
        <time>2020-02-20T10:04:24Z</time>
      </trkpt>
      <trkpt lat="44.27379" lon="5.68604">
        <ele>1015.55078125</ele>
        <time>2020-02-20T10:04:39Z</time>
      </trkpt>
      <trkpt lat="44.27379" lon="5.68604">
        <ele>1015.65625</ele>
        <time>2020-02-20T10:04:55Z</time>
      </trkpt>
      <trkpt lat="44.27379" lon="5.68604">
        <ele>1015.66015625</ele>
        <time>2020-02-20T10:05:04Z</time>
      </trkpt>
      <trkpt lat="44.27379" lon="5.68605">
        <ele>1015.78125</ele>
        <time>2020-02-20T10:05:15Z</time>
      </trkpt>
      <trkpt lat="44.2738" lon="5.68604">
        <ele>1016.12109375</ele>
        <time>2020-02-20T10:05:35Z</time>
      </trkpt>
      <trkpt lat="44.27381" lon="5.68603">
        <ele>1016.66796875</ele>
        <time>2020-02-20T10:06:01Z</time>
      </trkpt>
      <trkpt lat="44.27381" lon="5.68603">
        <ele>1016.5703125</ele>
        <time>2020-02-20T10:06:29Z</time>
      </trkpt>
      <trkpt lat="44.27381" lon="5.68603">
        <ele>1016.6328125</ele>
        <time>2020-02-20T10:06:45Z</time>
      </trkpt>
      <trkpt lat="44.27381" lon="5.68604">
        <ele>1016.3984375</ele>
        <time>2020-02-20T10:07:06Z</time>
      </trkpt>
      <trkpt lat="44.27381" lon="5.68605">
        <ele>1016.28125</ele>
        <time>2020-02-20T10:07:36Z</time>
      </trkpt>
      <trkpt lat="44.27381" lon="5.68605">
        <ele>1016.4296875</ele>
        <time>2020-02-20T10:08:05Z</time>
      </trkpt>
      <trkpt lat="44.2738" lon="5.68605">
        <ele>1016.046875</ele>
        <time>2020-02-20T10:08:34Z</time>
      </trkpt>
      <trkpt lat="44.2738" lon="5.68604">
        <ele>1016.0234375</ele>
        <time>2020-02-20T10:09:02Z</time>
      </trkpt>
      <trkpt lat="44.2738" lon="5.68604">
        <ele>1016.33203125</ele>
        <time>2020-02-20T10:09:35Z</time>
      </trkpt>
      <trkpt lat="44.27381" lon="5.68603">
        <ele>1016.4609375</ele>
        <time>2020-02-20T10:09:45Z</time>
      </trkpt>
      <trkpt lat="44.2738" lon="5.68604">
        <ele>1016.265625</ele>
        <time>2020-02-20T10:09:57Z</time>
      </trkpt>
      <trkpt lat="44.27379" lon="5.68615">
        <ele>1014.6171875</ele>
        <time>2020-02-20T10:10:08Z</time>
      </trkpt>
      <trkpt lat="44.27378" lon="5.68624">
        <ele>1013.48828125</ele>
        <time>2020-02-20T10:10:13Z</time>
      </trkpt>
      <trkpt lat="44.27381" lon="5.68643">
        <ele>1012.4453125</ele>
        <time>2020-02-20T10:10:25Z</time>
      </trkpt>
      <trkpt lat="44.27383" lon="5.68659">
        <ele>1011.4453125</ele>
        <time>2020-02-20T10:10:36Z</time>
      </trkpt>
      <trkpt lat="44.27387" lon="5.68676">
        <ele>1009.9765625</ele>
        <time>2020-02-20T10:10:48Z</time>
      </trkpt>
      <trkpt lat="44.2739" lon="5.68694">
        <ele>1007.93359375</ele>
        <time>2020-02-20T10:10:59Z</time>
      </trkpt>
      <trkpt lat="44.27393" lon="5.687">
        <ele>1007.85546875</ele>
        <time>2020-02-20T10:11:04Z</time>
      </trkpt>
      <trkpt lat="44.27405" lon="5.68715">
        <ele>1009.234375</ele>
        <time>2020-02-20T10:11:18Z</time>
      </trkpt>
      <trkpt lat="44.27415" lon="5.68729">
        <ele>1010.6953125</ele>
        <time>2020-02-20T10:11:31Z</time>
      </trkpt>
      <trkpt lat="44.27425" lon="5.68743">
        <ele>1011.88671875</ele>
        <time>2020-02-20T10:11:44Z</time>
      </trkpt>
      <trkpt lat="44.27433" lon="5.6876">
        <ele>1011.953125</ele>
        <time>2020-02-20T10:11:57Z</time>
      </trkpt>
      <trkpt lat="44.27437" lon="5.68778">
        <ele>1010.72265625</ele>
        <time>2020-02-20T10:12:09Z</time>
      </trkpt>
      <trkpt lat="44.27438" lon="5.68792">
        <ele>1008.81640625</ele>
        <time>2020-02-20T10:12:16Z</time>
      </trkpt>
      <trkpt lat="44.27441" lon="5.68814">
        <ele>1005.921875</ele>
        <time>2020-02-20T10:12:28Z</time>
      </trkpt>
      <trkpt lat="44.27443" lon="5.68823">
        <ele>1005.32421875</ele>
        <time>2020-02-20T10:12:33Z</time>
      </trkpt>
      <trkpt lat="44.27451" lon="5.6884">
        <ele>1005.25390625</ele>
        <time>2020-02-20T10:12:45Z</time>
      </trkpt>
      <trkpt lat="44.27454" lon="5.68847">
        <ele>1005.359375</ele>
        <time>2020-02-20T10:12:51Z</time>
      </trkpt>
      <trkpt lat="44.27459" lon="5.68853">
        <ele>1006.11328125</ele>
        <time>2020-02-20T10:12:57Z</time>
      </trkpt>
      <trkpt lat="44.27468" lon="5.68866">
        <ele>1007.74609375</ele>
        <time>2020-02-20T10:13:08Z</time>
      </trkpt>
      <trkpt lat="44.27477" lon="5.68881">
        <ele>1010.09375</ele>
        <time>2020-02-20T10:13:20Z</time>
      </trkpt>
      <trkpt lat="44.27479" lon="5.68884">
        <ele>1010.78515625</ele>
        <time>2020-02-20T10:13:23Z</time>
      </trkpt>
      <trkpt lat="44.27488" lon="5.68905">
        <ele>1012.62109375</ele>
        <time>2020-02-20T10:13:39Z</time>
      </trkpt>
      <trkpt lat="44.27493" lon="5.68921">
        <ele>1012.7421875</ele>
        <time>2020-02-20T10:13:52Z</time>
      </trkpt>
      <trkpt lat="44.27497" lon="5.68927">
        <ele>1013.6484375</ele>
        <time>2020-02-20T10:14:04Z</time>
      </trkpt>
      <trkpt lat="44.27498" lon="5.68928">
        <ele>1014.0234375</ele>
        <time>2020-02-20T10:14:18Z</time>
      </trkpt>
      <trkpt lat="44.27498" lon="5.68928">
        <ele>1014.23828125</ele>
        <time>2020-02-20T10:14:39Z</time>
      </trkpt>
      <trkpt lat="44.27498" lon="5.68928">
        <ele>1014.22265625</ele>
        <time>2020-02-20T10:14:55Z</time>
      </trkpt>
      <trkpt lat="44.27499" lon="5.68927">
        <ele>1014.7265625</ele>
        <time>2020-02-20T10:15:06Z</time>
      </trkpt>
      <trkpt lat="44.27499" lon="5.68928">
        <ele>1014.79296875</ele>
        <time>2020-02-20T10:15:19Z</time>
      </trkpt>
      <trkpt lat="44.27499" lon="5.68919">
        <ele>1015.5859375</ele>
        <time>2020-02-20T10:15:36Z</time>
      </trkpt>
      <trkpt lat="44.27498" lon="5.68918">
        <ele>1015.6015625</ele>
        <time>2020-02-20T10:15:37Z</time>
      </trkpt>
      <trkpt lat="44.27498" lon="5.68917">
        <ele>1015.68359375</ele>
        <time>2020-02-20T10:15:38Z</time>
      </trkpt>
      <trkpt lat="44.27497" lon="5.68914">
        <ele>1015.69140625</ele>
        <time>2020-02-20T10:15:41Z</time>
      </trkpt>
      <trkpt lat="44.27497" lon="5.68913">
        <ele>1015.73828125</ele>
        <time>2020-02-20T10:15:42Z</time>
      </trkpt>
      <trkpt lat="44.27496" lon="5.68909">
        <ele>1015.796875</ele>
        <time>2020-02-20T10:15:46Z</time>
      </trkpt>
      <trkpt lat="44.27496" lon="5.68908">
        <ele>1015.8359375</ele>
        <time>2020-02-20T10:15:47Z</time>
      </trkpt>
      <trkpt lat="44.27493" lon="5.68896">
        <ele>1016.00390625</ele>
        <time>2020-02-20T10:15:59Z</time>
      </trkpt>
      <trkpt lat="44.27492" lon="5.68887">
        <ele>1016.3046875</ele>
        <time>2020-02-20T10:16:08Z</time>
      </trkpt>
      <trkpt lat="44.2749" lon="5.68876">
        <ele>1016.84765625</ele>
        <time>2020-02-20T10:16:17Z</time>
      </trkpt>
      <trkpt lat="44.27489" lon="5.68866">
        <ele>1017.25390625</ele>
        <time>2020-02-20T10:16:28Z</time>
      </trkpt>
      <trkpt lat="44.27488" lon="5.6886">
        <ele>1017.51953125</ele>
        <time>2020-02-20T10:16:38Z</time>
      </trkpt>
      <trkpt lat="44.27486" lon="5.6885">
        <ele>1017.52734375</ele>
        <time>2020-02-20T10:16:48Z</time>
      </trkpt>
      <trkpt lat="44.27485" lon="5.68837">
        <ele>1018.99609375</ele>
        <time>2020-02-20T10:17:00Z</time>
      </trkpt>
      <trkpt lat="44.27483" lon="5.68822">
        <ele>1020.73046875</ele>
        <time>2020-02-20T10:17:11Z</time>
      </trkpt>
      <trkpt lat="44.27482" lon="5.68806">
        <ele>1022.16015625</ele>
        <time>2020-02-20T10:17:21Z</time>
      </trkpt>
      <trkpt lat="44.2748" lon="5.68794">
        <ele>1023.08984375</ele>
        <time>2020-02-20T10:17:33Z</time>
      </trkpt>
      <trkpt lat="44.27479" lon="5.68784">
        <ele>1024.33203125</ele>
        <time>2020-02-20T10:17:43Z</time>
      </trkpt>
      <trkpt lat="44.27478" lon="5.68776">
        <ele>1024.84765625</ele>
        <time>2020-02-20T10:17:51Z</time>
      </trkpt>
      <trkpt lat="44.27476" lon="5.68768">
        <ele>1025.44921875</ele>
        <time>2020-02-20T10:17:57Z</time>
      </trkpt>
      <trkpt lat="44.27476" lon="5.68751">
        <ele>1027.55078125</ele>
        <time>2020-02-20T10:18:09Z</time>
      </trkpt>
      <trkpt lat="44.27473" lon="5.68733">
        <ele>1029.078125</ele>
        <time>2020-02-20T10:18:21Z</time>
      </trkpt>
      <trkpt lat="44.27469" lon="5.6872">
        <ele>1029.61328125</ele>
        <time>2020-02-20T10:18:32Z</time>
      </trkpt>
      <trkpt lat="44.27468" lon="5.68706">
        <ele>1031.125</ele>
        <time>2020-02-20T10:18:44Z</time>
      </trkpt>
      <trkpt lat="44.27466" lon="5.68701">
        <ele>1031.109375</ele>
        <time>2020-02-20T10:18:56Z</time>
      </trkpt>
      <trkpt lat="44.27462" lon="5.68693">
        <ele>1030.87109375</ele>
        <time>2020-02-20T10:19:06Z</time>
      </trkpt>
      <trkpt lat="44.27457" lon="5.68683">
        <ele>1030.68359375</ele>
        <time>2020-02-20T10:19:18Z</time>
      </trkpt>
      <trkpt lat="44.27454" lon="5.68678">
        <ele>1030.68359375</ele>
        <time>2020-02-20T10:19:29Z</time>
      </trkpt>
      <trkpt lat="44.27452" lon="5.68673">
        <ele>1030.63671875</ele>
        <time>2020-02-20T10:19:39Z</time>
      </trkpt>
      <trkpt lat="44.27451" lon="5.68662">
        <ele>1032.0078125</ele>
        <time>2020-02-20T10:19:48Z</time>
      </trkpt>
      <trkpt lat="44.27453" lon="5.68648">
        <ele>1034.70703125</ele>
        <time>2020-02-20T10:20:00Z</time>
      </trkpt>
      <trkpt lat="44.27453" lon="5.68645">
        <ele>1035.20703125</ele>
        <time>2020-02-20T10:20:03Z</time>
      </trkpt>
      <trkpt lat="44.27456" lon="5.68638">
        <ele>1037.171875</ele>
        <time>2020-02-20T10:20:15Z</time>
      </trkpt>
      <trkpt lat="44.27457" lon="5.68635">
        <ele>1038.25</ele>
        <time>2020-02-20T10:20:26Z</time>
      </trkpt>
      <trkpt lat="44.27463" lon="5.68627">
        <ele>1041.46875</ele>
        <time>2020-02-20T10:20:36Z</time>
      </trkpt>
      <trkpt lat="44.27466" lon="5.68622">
        <ele>1043.59765625</ele>
        <time>2020-02-20T10:20:47Z</time>
      </trkpt>
      <trkpt lat="44.27472" lon="5.68616">
        <ele>1046.98828125</ele>
        <time>2020-02-20T10:20:57Z</time>
      </trkpt>
      <trkpt lat="44.27475" lon="5.68607">
        <ele>1050.36328125</ele>
        <time>2020-02-20T10:21:09Z</time>
      </trkpt>
      <trkpt lat="44.2748" lon="5.68593">
        <ele>1054.83203125</ele>
        <time>2020-02-20T10:21:20Z</time>
      </trkpt>
      <trkpt lat="44.27481" lon="5.68579">
        <ele>1057.51953125</ele>
        <time>2020-02-20T10:21:31Z</time>
      </trkpt>
      <trkpt lat="44.27483" lon="5.68568">
        <ele>1059.96875</ele>
        <time>2020-02-20T10:21:42Z</time>
      </trkpt>
      <trkpt lat="44.27485" lon="5.68561">
        <ele>1061.6328125</ele>
        <time>2020-02-20T10:21:54Z</time>
      </trkpt>
      <trkpt lat="44.27484" lon="5.68561">
        <ele>1060.98828125</ele>
        <time>2020-02-20T10:22:10Z</time>
      </trkpt>
      <trkpt lat="44.27487" lon="5.68556">
        <ele>1062.93359375</ele>
        <time>2020-02-20T10:22:20Z</time>
      </trkpt>
      <trkpt lat="44.27489" lon="5.68552">
        <ele>1064.2421875</ele>
        <time>2020-02-20T10:22:29Z</time>
      </trkpt>
      <trkpt lat="44.27489" lon="5.68551">
        <ele>1064.65234375</ele>
        <time>2020-02-20T10:22:40Z</time>
      </trkpt>
      <trkpt lat="44.27489" lon="5.68549">
        <ele>1064.765625</ele>
        <time>2020-02-20T10:22:59Z</time>
      </trkpt>
      <trkpt lat="44.2749" lon="5.6854">
        <ele>1066.14453125</ele>
        <time>2020-02-20T10:23:11Z</time>
      </trkpt>
      <trkpt lat="44.27495" lon="5.68536">
        <ele>1068.43359375</ele>
        <time>2020-02-20T10:23:20Z</time>
      </trkpt>
      <trkpt lat="44.27499" lon="5.68531">
        <ele>1070.87109375</ele>
        <time>2020-02-20T10:23:29Z</time>
      </trkpt>
      <trkpt lat="44.27505" lon="5.68523">
        <ele>1074.6484375</ele>
        <time>2020-02-20T10:23:39Z</time>
      </trkpt>
      <trkpt lat="44.2751" lon="5.68519">
        <ele>1077.359375</ele>
        <time>2020-02-20T10:23:48Z</time>
      </trkpt>
      <trkpt lat="44.27513" lon="5.68513">
        <ele>1079.08984375</ele>
        <time>2020-02-20T10:23:56Z</time>
      </trkpt>
      <trkpt lat="44.27518" lon="5.68505">
        <ele>1081.80859375</ele>
        <time>2020-02-20T10:24:06Z</time>
      </trkpt>
      <trkpt lat="44.27521" lon="5.68499">
        <ele>1083.90234375</ele>
        <time>2020-02-20T10:24:18Z</time>
      </trkpt>
      <trkpt lat="44.27523" lon="5.68489">
        <ele>1085.296875</ele>
        <time>2020-02-20T10:24:29Z</time>
      </trkpt>
      <trkpt lat="44.27527" lon="5.68481">
        <ele>1087.60546875</ele>
        <time>2020-02-20T10:24:40Z</time>
      </trkpt>
      <trkpt lat="44.27531" lon="5.68476">
        <ele>1090.18359375</ele>
        <time>2020-02-20T10:24:51Z</time>
      </trkpt>
      <trkpt lat="44.27535" lon="5.68466">
        <ele>1092.76171875</ele>
        <time>2020-02-20T10:25:04Z</time>
      </trkpt>
      <trkpt lat="44.27537" lon="5.6846">
        <ele>1094.125</ele>
        <time>2020-02-20T10:25:15Z</time>
      </trkpt>
      <trkpt lat="44.27539" lon="5.6845">
        <ele>1095.640625</ele>
        <time>2020-02-20T10:25:28Z</time>
      </trkpt>
      <trkpt lat="44.27541" lon="5.6844">
        <ele>1097.31640625</ele>
        <time>2020-02-20T10:25:40Z</time>
      </trkpt>
      <trkpt lat="44.27542" lon="5.68433">
        <ele>1098.52734375</ele>
        <time>2020-02-20T10:25:52Z</time>
      </trkpt>
      <trkpt lat="44.27542" lon="5.68428">
        <ele>1099.16015625</ele>
        <time>2020-02-20T10:26:01Z</time>
      </trkpt>
      <trkpt lat="44.27544" lon="5.68425">
        <ele>1100.234375</ele>
        <time>2020-02-20T10:26:11Z</time>
      </trkpt>
      <trkpt lat="44.27545" lon="5.68422">
        <ele>1101.2734375</ele>
        <time>2020-02-20T10:26:21Z</time>
      </trkpt>
      <trkpt lat="44.27546" lon="5.68416">
        <ele>1102.12890625</ele>
        <time>2020-02-20T10:26:34Z</time>
      </trkpt>
      <trkpt lat="44.27546" lon="5.68409">
        <ele>1102.8359375</ele>
        <time>2020-02-20T10:26:45Z</time>
      </trkpt>
      <trkpt lat="44.27548" lon="5.68401">
        <ele>1104.58984375</ele>
        <time>2020-02-20T10:26:59Z</time>
      </trkpt>
      <trkpt lat="44.27548" lon="5.68393">
        <ele>1105.40625</ele>
        <time>2020-02-20T10:27:09Z</time>
      </trkpt>
      <trkpt lat="44.27549" lon="5.68381">
        <ele>1106.875</ele>
        <time>2020-02-20T10:27:21Z</time>
      </trkpt>
      <trkpt lat="44.27548" lon="5.68374">
        <ele>1107.2890625</ele>
        <time>2020-02-20T10:27:32Z</time>
      </trkpt>
      <trkpt lat="44.2755" lon="5.68366">
        <ele>1109.359375</ele>
        <time>2020-02-20T10:27:44Z</time>
      </trkpt>
      <trkpt lat="44.27549" lon="5.68352">
        <ele>1110.3359375</ele>
        <time>2020-02-20T10:27:54Z</time>
      </trkpt>
      <trkpt lat="44.2755" lon="5.68343">
        <ele>1112.015625</ele>
        <time>2020-02-20T10:28:04Z</time>
      </trkpt>
      <trkpt lat="44.27551" lon="5.68331">
        <ele>1113.74609375</ele>
        <time>2020-02-20T10:28:15Z</time>
      </trkpt>
      <trkpt lat="44.27552" lon="5.68316">
        <ele>1116.32421875</ele>
        <time>2020-02-20T10:28:26Z</time>
      </trkpt>
      <trkpt lat="44.27554" lon="5.68307">
        <ele>1118.44921875</ele>
        <time>2020-02-20T10:28:37Z</time>
      </trkpt>
      <trkpt lat="44.27554" lon="5.683">
        <ele>1119.08203125</ele>
        <time>2020-02-20T10:28:47Z</time>
      </trkpt>
      <trkpt lat="44.27555" lon="5.68291">
        <ele>1120.875</ele>
        <time>2020-02-20T10:28:56Z</time>
      </trkpt>
      <trkpt lat="44.27557" lon="5.68284">
        <ele>1122.44921875</ele>
        <time>2020-02-20T10:29:05Z</time>
      </trkpt>
      <trkpt lat="44.27559" lon="5.68274">
        <ele>1124.69921875</ele>
        <time>2020-02-20T10:29:16Z</time>
      </trkpt>
      <trkpt lat="44.27559" lon="5.68267">
        <ele>1124.90234375</ele>
        <time>2020-02-20T10:29:24Z</time>
      </trkpt>
      <trkpt lat="44.27558" lon="5.68255">
        <ele>1125.3046875</ele>
        <time>2020-02-20T10:29:35Z</time>
      </trkpt>
      <trkpt lat="44.27558" lon="5.68246">
        <ele>1126.0078125</ele>
        <time>2020-02-20T10:29:45Z</time>
      </trkpt>
      <trkpt lat="44.27559" lon="5.68235">
        <ele>1127.203125</ele>
        <time>2020-02-20T10:29:55Z</time>
      </trkpt>
      <trkpt lat="44.27558" lon="5.68225">
        <ele>1127.66015625</ele>
        <time>2020-02-20T10:30:05Z</time>
      </trkpt>
      <trkpt lat="44.2756" lon="5.68217">
        <ele>1129.1328125</ele>
        <time>2020-02-20T10:30:15Z</time>
      </trkpt>
      <trkpt lat="44.27557" lon="5.68206">
        <ele>1128.34375</ele>
        <time>2020-02-20T10:30:24Z</time>
      </trkpt>
      <trkpt lat="44.27553" lon="5.6819">
        <ele>1127.09765625</ele>
        <time>2020-02-20T10:30:38Z</time>
      </trkpt>
      <trkpt lat="44.27553" lon="5.68178">
        <ele>1127.6796875</ele>
        <time>2020-02-20T10:30:51Z</time>
      </trkpt>
      <trkpt lat="44.27553" lon="5.68168">
        <ele>1128.1796875</ele>
        <time>2020-02-20T10:31:02Z</time>
      </trkpt>
      <trkpt lat="44.27555" lon="5.68161">
        <ele>1129.25</ele>
        <time>2020-02-20T10:31:13Z</time>
      </trkpt>
      <trkpt lat="44.27558" lon="5.68153">
        <ele>1132.08984375</ele>
        <time>2020-02-20T10:31:25Z</time>
      </trkpt>
      <trkpt lat="44.2756" lon="5.68145">
        <ele>1133.9609375</ele>
        <time>2020-02-20T10:31:37Z</time>
      </trkpt>
      <trkpt lat="44.27562" lon="5.68132">
        <ele>1136.16015625</ele>
        <time>2020-02-20T10:31:48Z</time>
      </trkpt>
      <trkpt lat="44.27562" lon="5.68116">
        <ele>1136.46484375</ele>
        <time>2020-02-20T10:32:01Z</time>
      </trkpt>
      <trkpt lat="44.2756" lon="5.68111">
        <ele>1135.6484375</ele>
        <time>2020-02-20T10:32:06Z</time>
      </trkpt>
      <trkpt lat="44.2756" lon="5.68098">
        <ele>1135.79296875</ele>
        <time>2020-02-20T10:32:16Z</time>
      </trkpt>
      <trkpt lat="44.27558" lon="5.6808">
        <ele>1134.96875</ele>
        <time>2020-02-20T10:32:27Z</time>
      </trkpt>
      <trkpt lat="44.27558" lon="5.68068">
        <ele>1135.49609375</ele>
        <time>2020-02-20T10:32:37Z</time>
      </trkpt>
      <trkpt lat="44.27559" lon="5.6806">
        <ele>1136.62890625</ele>
        <time>2020-02-20T10:32:46Z</time>
      </trkpt>
      <trkpt lat="44.2756" lon="5.6805">
        <ele>1137.31640625</ele>
        <time>2020-02-20T10:32:57Z</time>
      </trkpt>
      <trkpt lat="44.27562" lon="5.68043">
        <ele>1139.421875</ele>
        <time>2020-02-20T10:33:09Z</time>
      </trkpt>
      <trkpt lat="44.27564" lon="5.68036">
        <ele>1141.3046875</ele>
        <time>2020-02-20T10:33:20Z</time>
      </trkpt>
      <trkpt lat="44.27566" lon="5.68029">
        <ele>1143.21484375</ele>
        <time>2020-02-20T10:33:31Z</time>
      </trkpt>
      <trkpt lat="44.27567" lon="5.6802">
        <ele>1144.4765625</ele>
        <time>2020-02-20T10:33:41Z</time>
      </trkpt>
      <trkpt lat="44.27566" lon="5.68006">
        <ele>1145.29296875</ele>
        <time>2020-02-20T10:33:52Z</time>
      </trkpt>
      <trkpt lat="44.27564" lon="5.67993">
        <ele>1145.0703125</ele>
        <time>2020-02-20T10:34:04Z</time>
      </trkpt>
      <trkpt lat="44.27564" lon="5.67989">
        <ele>1145.52734375</ele>
        <time>2020-02-20T10:34:18Z</time>
      </trkpt>
      <trkpt lat="44.27564" lon="5.67982">
        <ele>1145.93359375</ele>
        <time>2020-02-20T10:34:27Z</time>
      </trkpt>
      <trkpt lat="44.27565" lon="5.67976">
        <ele>1147.15234375</ele>
        <time>2020-02-20T10:34:36Z</time>
      </trkpt>
      <trkpt lat="44.27568" lon="5.67965">
        <ele>1149.734375</ele>
        <time>2020-02-20T10:34:48Z</time>
      </trkpt>
      <trkpt lat="44.27568" lon="5.67953">
        <ele>1150.76953125</ele>
        <time>2020-02-20T10:35:00Z</time>
      </trkpt>
      <trkpt lat="44.27567" lon="5.67949">
        <ele>1150.578125</ele>
        <time>2020-02-20T10:35:08Z</time>
      </trkpt>
      <trkpt lat="44.27567" lon="5.67942">
        <ele>1150.98046875</ele>
        <time>2020-02-20T10:35:19Z</time>
      </trkpt>
      <trkpt lat="44.27567" lon="5.67933">
        <ele>1152.015625</ele>
        <time>2020-02-20T10:35:30Z</time>
      </trkpt>
      <trkpt lat="44.27568" lon="5.67922">
        <ele>1153.98828125</ele>
        <time>2020-02-20T10:35:41Z</time>
      </trkpt>
      <trkpt lat="44.27568" lon="5.67911">
        <ele>1154.75390625</ele>
        <time>2020-02-20T10:35:52Z</time>
      </trkpt>
      <trkpt lat="44.27569" lon="5.67902">
        <ele>1156.7578125</ele>
        <time>2020-02-20T10:36:02Z</time>
      </trkpt>
      <trkpt lat="44.27571" lon="5.67898">
        <ele>1158.65625</ele>
        <time>2020-02-20T10:36:13Z</time>
      </trkpt>
      <trkpt lat="44.2757" lon="5.6789">
        <ele>1158.09375</ele>
        <time>2020-02-20T10:36:24Z</time>
      </trkpt>
      <trkpt lat="44.2757" lon="5.67884">
        <ele>1158.69921875</ele>
        <time>2020-02-20T10:36:36Z</time>
      </trkpt>
      <trkpt lat="44.2757" lon="5.6788">
        <ele>1159.2578125</ele>
        <time>2020-02-20T10:36:46Z</time>
      </trkpt>
      <trkpt lat="44.2757" lon="5.67879">
        <ele>1159.45703125</ele>
        <time>2020-02-20T10:37:03Z</time>
      </trkpt>
      <trkpt lat="44.27569" lon="5.67871">
        <ele>1159.46875</ele>
        <time>2020-02-20T10:37:14Z</time>
      </trkpt>
      <trkpt lat="44.27567" lon="5.67863">
        <ele>1159.00390625</ele>
        <time>2020-02-20T10:37:22Z</time>
      </trkpt>
      <trkpt lat="44.27567" lon="5.67853">
        <ele>1159.61328125</ele>
        <time>2020-02-20T10:37:33Z</time>
      </trkpt>
      <trkpt lat="44.27567" lon="5.67846">
        <ele>1160.515625</ele>
        <time>2020-02-20T10:37:43Z</time>
      </trkpt>
      <trkpt lat="44.27566" lon="5.67835">
        <ele>1160.66796875</ele>
        <time>2020-02-20T10:37:53Z</time>
      </trkpt>
      <trkpt lat="44.27565" lon="5.67826">
        <ele>1160.93359375</ele>
        <time>2020-02-20T10:38:03Z</time>
      </trkpt>
      <trkpt lat="44.27565" lon="5.6782">
        <ele>1161.5703125</ele>
        <time>2020-02-20T10:38:12Z</time>
      </trkpt>
      <trkpt lat="44.27568" lon="5.67812">
        <ele>1164.0546875</ele>
        <time>2020-02-20T10:38:26Z</time>
      </trkpt>
      <trkpt lat="44.27569" lon="5.67802">
        <ele>1166.4375</ele>
        <time>2020-02-20T10:38:37Z</time>
      </trkpt>
      <trkpt lat="44.27568" lon="5.67793">
        <ele>1166.4296875</ele>
        <time>2020-02-20T10:38:48Z</time>
      </trkpt>
      <trkpt lat="44.27568" lon="5.67788">
        <ele>1167.375</ele>
        <time>2020-02-20T10:38:58Z</time>
      </trkpt>
      <trkpt lat="44.27569" lon="5.67774">
        <ele>1169.8125</ele>
        <time>2020-02-20T10:39:09Z</time>
      </trkpt>
      <trkpt lat="44.27569" lon="5.67767">
        <ele>1171</ele>
        <time>2020-02-20T10:39:22Z</time>
      </trkpt>
      <trkpt lat="44.27568" lon="5.67765">
        <ele>1170.21484375</ele>
        <time>2020-02-20T10:39:39Z</time>
      </trkpt>
      <trkpt lat="44.27566" lon="5.67755">
        <ele>1170.45703125</ele>
        <time>2020-02-20T10:39:50Z</time>
      </trkpt>
      <trkpt lat="44.27567" lon="5.67747">
        <ele>1172.140625</ele>
        <time>2020-02-20T10:40:00Z</time>
      </trkpt>
      <trkpt lat="44.27566" lon="5.67735">
        <ele>1172.87109375</ele>
        <time>2020-02-20T10:40:11Z</time>
      </trkpt>
      <trkpt lat="44.27565" lon="5.67725">
        <ele>1173.73828125</ele>
        <time>2020-02-20T10:40:23Z</time>
      </trkpt>
      <trkpt lat="44.27565" lon="5.67716">
        <ele>1174.80078125</ele>
        <time>2020-02-20T10:40:36Z</time>
      </trkpt>
      <trkpt lat="44.27565" lon="5.67709">
        <ele>1175.60546875</ele>
        <time>2020-02-20T10:40:47Z</time>
      </trkpt>
      <trkpt lat="44.27565" lon="5.67699">
        <ele>1177.4140625</ele>
        <time>2020-02-20T10:40:58Z</time>
      </trkpt>
      <trkpt lat="44.27566" lon="5.67692">
        <ele>1178.8046875</ele>
        <time>2020-02-20T10:41:08Z</time>
      </trkpt>
      <trkpt lat="44.27566" lon="5.6768">
        <ele>1180.50390625</ele>
        <time>2020-02-20T10:41:22Z</time>
      </trkpt>
      <trkpt lat="44.27564" lon="5.67671">
        <ele>1180.12890625</ele>
        <time>2020-02-20T10:41:32Z</time>
      </trkpt>
      <trkpt lat="44.27563" lon="5.67659">
        <ele>1181.5703125</ele>
        <time>2020-02-20T10:41:42Z</time>
      </trkpt>
      <trkpt lat="44.27562" lon="5.6765">
        <ele>1181.85546875</ele>
        <time>2020-02-20T10:41:52Z</time>
      </trkpt>
      <trkpt lat="44.27563" lon="5.67645">
        <ele>1183.078125</ele>
        <time>2020-02-20T10:42:02Z</time>
      </trkpt>
      <trkpt lat="44.27562" lon="5.67635">
        <ele>1184.1796875</ele>
        <time>2020-02-20T10:42:12Z</time>
      </trkpt>
      <trkpt lat="44.2756" lon="5.67625">
        <ele>1184.390625</ele>
        <time>2020-02-20T10:42:22Z</time>
      </trkpt>
      <trkpt lat="44.27559" lon="5.67614">
        <ele>1185.27734375</ele>
        <time>2020-02-20T10:42:32Z</time>
      </trkpt>
      <trkpt lat="44.27558" lon="5.67602">
        <ele>1186.265625</ele>
        <time>2020-02-20T10:42:45Z</time>
      </trkpt>
      <trkpt lat="44.27558" lon="5.67599">
        <ele>1186.61328125</ele>
        <time>2020-02-20T10:42:57Z</time>
      </trkpt>
      <trkpt lat="44.27557" lon="5.67587">
        <ele>1188.30078125</ele>
        <time>2020-02-20T10:43:09Z</time>
      </trkpt>
      <trkpt lat="44.27556" lon="5.67578">
        <ele>1189.25</ele>
        <time>2020-02-20T10:43:20Z</time>
      </trkpt>
      <trkpt lat="44.27555" lon="5.67568">
        <ele>1190.6015625</ele>
        <time>2020-02-20T10:43:32Z</time>
      </trkpt>
      <trkpt lat="44.27555" lon="5.6756">
        <ele>1191.89453125</ele>
        <time>2020-02-20T10:43:41Z</time>
      </trkpt>
      <trkpt lat="44.27556" lon="5.67553">
        <ele>1193.140625</ele>
        <time>2020-02-20T10:43:52Z</time>
      </trkpt>
      <trkpt lat="44.27556" lon="5.6755">
        <ele>1193.6328125</ele>
        <time>2020-02-20T10:44:03Z</time>
      </trkpt>
      <trkpt lat="44.27556" lon="5.67548">
        <ele>1194.171875</ele>
        <time>2020-02-20T10:44:16Z</time>
      </trkpt>
      <trkpt lat="44.27557" lon="5.67545">
        <ele>1194.5859375</ele>
        <time>2020-02-20T10:44:29Z</time>
      </trkpt>
      <trkpt lat="44.27557" lon="5.6754">
        <ele>1195.36328125</ele>
        <time>2020-02-20T10:44:39Z</time>
      </trkpt>
      <trkpt lat="44.27556" lon="5.67534">
        <ele>1195.9609375</ele>
        <time>2020-02-20T10:44:52Z</time>
      </trkpt>
      <trkpt lat="44.27555" lon="5.67524">
        <ele>1197.125</ele>
        <time>2020-02-20T10:45:03Z</time>
      </trkpt>
      <trkpt lat="44.27555" lon="5.67512">
        <ele>1198.12109375</ele>
        <time>2020-02-20T10:45:15Z</time>
      </trkpt>
      <trkpt lat="44.27557" lon="5.67508">
        <ele>1198.10546875</ele>
        <time>2020-02-20T10:45:24Z</time>
      </trkpt>
      <trkpt lat="44.27561" lon="5.67512">
        <ele>1198.4453125</ele>
        <time>2020-02-20T10:45:32Z</time>
      </trkpt>
      <trkpt lat="44.27562" lon="5.67514">
        <ele>1198.6171875</ele>
        <time>2020-02-20T10:45:44Z</time>
      </trkpt>
      <trkpt lat="44.27563" lon="5.67516">
        <ele>1198.75</ele>
        <time>2020-02-20T10:45:54Z</time>
      </trkpt>
      <trkpt lat="44.27563" lon="5.67517">
        <ele>1198.6328125</ele>
        <time>2020-02-20T10:46:09Z</time>
      </trkpt>
      <trkpt lat="44.2757" lon="5.6752">
        <ele>1199.0234375</ele>
        <time>2020-02-20T10:46:19Z</time>
      </trkpt>
      <trkpt lat="44.27574" lon="5.67521">
        <ele>1199.34765625</ele>
        <time>2020-02-20T10:46:27Z</time>
      </trkpt>
      <trkpt lat="44.27575" lon="5.67523">
        <ele>1199.43359375</ele>
        <time>2020-02-20T10:46:30Z</time>
      </trkpt>
      <trkpt lat="44.27578" lon="5.67527">
        <ele>1199.78125</ele>
        <time>2020-02-20T10:46:39Z</time>
      </trkpt>
      <trkpt lat="44.27582" lon="5.67524">
        <ele>1199.96875</ele>
        <time>2020-02-20T10:46:48Z</time>
      </trkpt>
      <trkpt lat="44.27582" lon="5.67522">
        <ele>1199.953125</ele>
        <time>2020-02-20T10:46:59Z</time>
      </trkpt>
      <trkpt lat="44.27581" lon="5.6752">
        <ele>1199.96875</ele>
        <time>2020-02-20T10:47:14Z</time>
      </trkpt>
      <trkpt lat="44.2758" lon="5.67516">
        <ele>1199.9765625</ele>
        <time>2020-02-20T10:47:24Z</time>
      </trkpt>
      <trkpt lat="44.2758" lon="5.67514">
        <ele>1199.8359375</ele>
        <time>2020-02-20T10:47:40Z</time>
      </trkpt>
      <trkpt lat="44.27579" lon="5.67513">
        <ele>1199.609375</ele>
        <time>2020-02-20T10:47:53Z</time>
      </trkpt>
      <trkpt lat="44.27579" lon="5.67514">
        <ele>1199.6015625</ele>
        <time>2020-02-20T11:40:26Z</time>
      </trkpt>
      <trkpt lat="44.27578" lon="5.67514">
        <ele>1199.58984375</ele>
        <time>2020-02-20T11:40:52Z</time>
      </trkpt>
      <trkpt lat="44.27579" lon="5.67512">
        <ele>1199.3515625</ele>
        <time>2020-02-20T11:47:22Z</time>
      </trkpt>
      <trkpt lat="44.2758" lon="5.67511">
        <ele>1199.27734375</ele>
        <time>2020-02-20T11:47:33Z</time>
      </trkpt>
      <trkpt lat="44.27581" lon="5.6751">
        <ele>1199.0546875</ele>
        <time>2020-02-20T11:47:44Z</time>
      </trkpt>
      <trkpt lat="44.27582" lon="5.67509">
        <ele>1198.74609375</ele>
        <time>2020-02-20T11:47:56Z</time>
      </trkpt>
      <trkpt lat="44.27583" lon="5.67508">
        <ele>1198.3125</ele>
        <time>2020-02-20T11:48:09Z</time>
      </trkpt>
      <trkpt lat="44.27583" lon="5.67508">
        <ele>1198.203125</ele>
        <time>2020-02-20T11:48:26Z</time>
      </trkpt>
      <trkpt lat="44.27585" lon="5.67504">
        <ele>1197.23046875</ele>
        <time>2020-02-20T11:48:40Z</time>
      </trkpt>
      <trkpt lat="44.27587" lon="5.67493">
        <ele>1194.45703125</ele>
        <time>2020-02-20T11:48:52Z</time>
      </trkpt>
      <trkpt lat="44.27587" lon="5.67481">
        <ele>1191.59765625</ele>
        <time>2020-02-20T11:49:05Z</time>
      </trkpt>
      <trkpt lat="44.27584" lon="5.67471">
        <ele>1190.00390625</ele>
        <time>2020-02-20T11:49:17Z</time>
      </trkpt>
      <trkpt lat="44.27581" lon="5.67463">
        <ele>1189.23828125</ele>
        <time>2020-02-20T11:49:29Z</time>
      </trkpt>
      <trkpt lat="44.2758" lon="5.67455">
        <ele>1188.03125</ele>
        <time>2020-02-20T11:49:41Z</time>
      </trkpt>
      <trkpt lat="44.2758" lon="5.67449">
        <ele>1186.62890625</ele>
        <time>2020-02-20T11:49:53Z</time>
      </trkpt>
      <trkpt lat="44.2758" lon="5.67448">
        <ele>1186.40234375</ele>
        <time>2020-02-20T11:49:56Z</time>
      </trkpt>
      <trkpt lat="44.2758" lon="5.67438">
        <ele>1184.36328125</ele>
        <time>2020-02-20T11:50:05Z</time>
      </trkpt>
      <trkpt lat="44.27585" lon="5.67442">
        <ele>1183.171875</ele>
        <time>2020-02-20T11:50:17Z</time>
      </trkpt>
      <trkpt lat="44.27588" lon="5.67447">
        <ele>1182.82421875</ele>
        <time>2020-02-20T11:50:25Z</time>
      </trkpt>
      <trkpt lat="44.27588" lon="5.67448">
        <ele>1182.76953125</ele>
        <time>2020-02-20T11:50:26Z</time>
      </trkpt>
      <trkpt lat="44.27588" lon="5.67448">
        <ele>1182.90625</ele>
        <time>2020-02-20T11:50:34Z</time>
      </trkpt>
      <trkpt lat="44.27588" lon="5.67448">
        <ele>1182.87890625</ele>
        <time>2020-02-20T11:50:35Z</time>
      </trkpt>
      <trkpt lat="44.27588" lon="5.67448">
        <ele>1182.84375</ele>
        <time>2020-02-20T11:50:36Z</time>
      </trkpt>
      <trkpt lat="44.27588" lon="5.67448">
        <ele>1182.80859375</ele>
        <time>2020-02-20T11:50:37Z</time>
      </trkpt>
      <trkpt lat="44.27588" lon="5.67448">
        <ele>1182.77734375</ele>
        <time>2020-02-20T11:50:38Z</time>
      </trkpt>
      <trkpt lat="44.27589" lon="5.67448">
        <ele>1182.875</ele>
        <time>2020-02-20T11:50:54Z</time>
      </trkpt>
      <trkpt lat="44.27591" lon="5.6745">
        <ele>1182.2109375</ele>
        <time>2020-02-20T11:51:05Z</time>
      </trkpt>
      <trkpt lat="44.27595" lon="5.67454">
        <ele>1181.73046875</ele>
        <time>2020-02-20T11:51:18Z</time>
      </trkpt>
      <trkpt lat="44.27602" lon="5.6746">
        <ele>1180.5703125</ele>
        <time>2020-02-20T11:51:30Z</time>
      </trkpt>
      <trkpt lat="44.27612" lon="5.67469">
        <ele>1179.19921875</ele>
        <time>2020-02-20T11:51:41Z</time>
      </trkpt>
      <trkpt lat="44.27619" lon="5.67471">
        <ele>1176.5390625</ele>
        <time>2020-02-20T11:51:54Z</time>
      </trkpt>
      <trkpt lat="44.27622" lon="5.67471">
        <ele>1175.35546875</ele>
        <time>2020-02-20T11:52:04Z</time>
      </trkpt>
      <trkpt lat="44.27623" lon="5.67472">
        <ele>1174.97265625</ele>
        <time>2020-02-20T11:52:15Z</time>
      </trkpt>
      <trkpt lat="44.27623" lon="5.67472">
        <ele>1174.84375</ele>
        <time>2020-02-20T11:52:16Z</time>
      </trkpt>
      <trkpt lat="44.27624" lon="5.67471">
        <ele>1174.08984375</ele>
        <time>2020-02-20T11:52:24Z</time>
      </trkpt>
      <trkpt lat="44.27624" lon="5.67471">
        <ele>1174.06640625</ele>
        <time>2020-02-20T11:52:25Z</time>
      </trkpt>
      <trkpt lat="44.27625" lon="5.67471">
        <ele>1173.8984375</ele>
        <time>2020-02-20T11:52:29Z</time>
      </trkpt>
      <trkpt lat="44.27627" lon="5.67471">
        <ele>1173.04296875</ele>
        <time>2020-02-20T11:52:42Z</time>
      </trkpt>
      <trkpt lat="44.27628" lon="5.67472">
        <ele>1172.46484375</ele>
        <time>2020-02-20T11:52:56Z</time>
      </trkpt>
      <trkpt lat="44.27634" lon="5.67474">
        <ele>1170.19921875</ele>
        <time>2020-02-20T11:53:06Z</time>
      </trkpt>
      <trkpt lat="44.27643" lon="5.67478">
        <ele>1168.3125</ele>
        <time>2020-02-20T11:53:17Z</time>
      </trkpt>
      <trkpt lat="44.27648" lon="5.67482">
        <ele>1167.39453125</ele>
        <time>2020-02-20T11:53:27Z</time>
      </trkpt>
      <trkpt lat="44.27657" lon="5.6749">
        <ele>1166.765625</ele>
        <time>2020-02-20T11:53:40Z</time>
      </trkpt>
      <trkpt lat="44.2766" lon="5.67489">
        <ele>1164.94140625</ele>
        <time>2020-02-20T11:53:51Z</time>
      </trkpt>
      <trkpt lat="44.27661" lon="5.67488">
        <ele>1164.32421875</ele>
        <time>2020-02-20T11:53:54Z</time>
      </trkpt>
      <trkpt lat="44.27662" lon="5.67489">
        <ele>1164.09375</ele>
        <time>2020-02-20T11:54:03Z</time>
      </trkpt>
      <trkpt lat="44.27662" lon="5.67489">
        <ele>1164.11328125</ele>
        <time>2020-02-20T11:54:04Z</time>
      </trkpt>
      <trkpt lat="44.27663" lon="5.67489">
        <ele>1164.08203125</ele>
        <time>2020-02-20T11:54:08Z</time>
      </trkpt>
      <trkpt lat="44.27664" lon="5.6749">
        <ele>1163.578125</ele>
        <time>2020-02-20T11:54:20Z</time>
      </trkpt>
      <trkpt lat="44.27667" lon="5.67491">
        <ele>1163.0546875</ele>
        <time>2020-02-20T11:54:37Z</time>
      </trkpt>
      <trkpt lat="44.2767" lon="5.67492">
        <ele>1161.63671875</ele>
        <time>2020-02-20T11:54:51Z</time>
      </trkpt>
      <trkpt lat="44.27675" lon="5.67495">
        <ele>1160.8671875</ele>
        <time>2020-02-20T11:55:04Z</time>
      </trkpt>
      <trkpt lat="44.27688" lon="5.67502">
        <ele>1157.22265625</ele>
        <time>2020-02-20T11:55:15Z</time>
      </trkpt>
      <trkpt lat="44.27707" lon="5.6751">
        <ele>1151.84375</ele>
        <time>2020-02-20T11:55:26Z</time>
      </trkpt>
      <trkpt lat="44.27722" lon="5.67518">
        <ele>1147.8359375</ele>
        <time>2020-02-20T11:55:40Z</time>
      </trkpt>
      <trkpt lat="44.27727" lon="5.6752">
        <ele>1146.2890625</ele>
        <time>2020-02-20T11:55:51Z</time>
      </trkpt>
      <trkpt lat="44.27739" lon="5.67524">
        <ele>1142.05078125</ele>
        <time>2020-02-20T11:56:04Z</time>
      </trkpt>
      <trkpt lat="44.27746" lon="5.67526">
        <ele>1139.48828125</ele>
        <time>2020-02-20T11:56:14Z</time>
      </trkpt>
      <trkpt lat="44.27753" lon="5.67526">
        <ele>1135.9765625</ele>
        <time>2020-02-20T11:56:25Z</time>
      </trkpt>
      <trkpt lat="44.27764" lon="5.67528">
        <ele>1131.70703125</ele>
        <time>2020-02-20T11:56:37Z</time>
      </trkpt>
      <trkpt lat="44.27765" lon="5.67529">
        <ele>1131.078125</ele>
        <time>2020-02-20T11:56:50Z</time>
      </trkpt>
      <trkpt lat="44.27774" lon="5.67526">
        <ele>1126.45703125</ele>
        <time>2020-02-20T11:57:02Z</time>
      </trkpt>
      <trkpt lat="44.27782" lon="5.6752">
        <ele>1122.1171875</ele>
        <time>2020-02-20T11:57:12Z</time>
      </trkpt>
      <trkpt lat="44.27786" lon="5.67516">
        <ele>1119.4296875</ele>
        <time>2020-02-20T11:57:23Z</time>
      </trkpt>
      <trkpt lat="44.2779" lon="5.67511">
        <ele>1116.8125</ele>
        <time>2020-02-20T11:57:34Z</time>
      </trkpt>
      <trkpt lat="44.27793" lon="5.67508">
        <ele>1115.12890625</ele>
        <time>2020-02-20T11:57:50Z</time>
      </trkpt>
      <trkpt lat="44.27791" lon="5.67502">
        <ele>1114.83203125</ele>
        <time>2020-02-20T11:58:03Z</time>
      </trkpt>
      <trkpt lat="44.2779" lon="5.67501">
        <ele>1115.015625</ele>
        <time>2020-02-20T11:58:04Z</time>
      </trkpt>
      <trkpt lat="44.27776" lon="5.67497">
        <ele>1119.203125</ele>
        <time>2020-02-20T11:58:17Z</time>
      </trkpt>
      <trkpt lat="44.27768" lon="5.67496">
        <ele>1122.578125</ele>
        <time>2020-02-20T11:58:28Z</time>
      </trkpt>
      <trkpt lat="44.27761" lon="5.675">
        <ele>1126.24609375</ele>
        <time>2020-02-20T11:58:39Z</time>
      </trkpt>
      <trkpt lat="44.27753" lon="5.67498">
        <ele>1128.99609375</ele>
        <time>2020-02-20T11:58:49Z</time>
      </trkpt>
      <trkpt lat="44.27747" lon="5.67494">
        <ele>1130.734375</ele>
        <time>2020-02-20T11:58:59Z</time>
      </trkpt>
      <trkpt lat="44.27734" lon="5.67486">
        <ele>1133.19921875</ele>
        <time>2020-02-20T11:59:11Z</time>
      </trkpt>
      <trkpt lat="44.27727" lon="5.67481">
        <ele>1134.33203125</ele>
        <time>2020-02-20T11:59:19Z</time>
      </trkpt>
      <trkpt lat="44.27721" lon="5.67474">
        <ele>1134.16015625</ele>
        <time>2020-02-20T11:59:26Z</time>
      </trkpt>
      <trkpt lat="44.27719" lon="5.67471">
        <ele>1134.34765625</ele>
        <time>2020-02-20T11:59:29Z</time>
      </trkpt>
      <trkpt lat="44.2771" lon="5.67462">
        <ele>1134.703125</ele>
        <time>2020-02-20T11:59:41Z</time>
      </trkpt>
      <trkpt lat="44.27702" lon="5.67447">
        <ele>1133.3984375</ele>
        <time>2020-02-20T11:59:52Z</time>
      </trkpt>
      <trkpt lat="44.27697" lon="5.67432">
        <ele>1131.265625</ele>
        <time>2020-02-20T12:00:04Z</time>
      </trkpt>
      <trkpt lat="44.27693" lon="5.67427">
        <ele>1131.0625</ele>
        <time>2020-02-20T12:00:09Z</time>
      </trkpt>
      <trkpt lat="44.27682" lon="5.67408">
        <ele>1130.8046875</ele>
        <time>2020-02-20T12:00:21Z</time>
      </trkpt>
      <trkpt lat="44.27675" lon="5.67394">
        <ele>1130.19921875</ele>
        <time>2020-02-20T12:00:33Z</time>
      </trkpt>
      <trkpt lat="44.27667" lon="5.67385">
        <ele>1130.53515625</ele>
        <time>2020-02-20T12:00:43Z</time>
      </trkpt>
      <trkpt lat="44.27659" lon="5.67372">
        <ele>1131.0546875</ele>
        <time>2020-02-20T12:00:51Z</time>
      </trkpt>
      <trkpt lat="44.27653" lon="5.67362">
        <ele>1131.86328125</ele>
        <time>2020-02-20T12:01:00Z</time>
      </trkpt>
      <trkpt lat="44.27644" lon="5.67356">
        <ele>1133.98046875</ele>
        <time>2020-02-20T12:01:10Z</time>
      </trkpt>
      <trkpt lat="44.27636" lon="5.67349">
        <ele>1135.93359375</ele>
        <time>2020-02-20T12:01:22Z</time>
      </trkpt>
      <trkpt lat="44.27631" lon="5.67344">
        <ele>1137.3046875</ele>
        <time>2020-02-20T12:01:33Z</time>
      </trkpt>
      <trkpt lat="44.27625" lon="5.67333">
        <ele>1137.41015625</ele>
        <time>2020-02-20T12:01:43Z</time>
      </trkpt>
      <trkpt lat="44.27618" lon="5.67313">
        <ele>1136.32421875</ele>
        <time>2020-02-20T12:01:54Z</time>
      </trkpt>
      <trkpt lat="44.27617" lon="5.67301">
        <ele>1134.73828125</ele>
        <time>2020-02-20T12:02:05Z</time>
      </trkpt>
      <trkpt lat="44.27615" lon="5.67289">
        <ele>1133.61328125</ele>
        <time>2020-02-20T12:02:16Z</time>
      </trkpt>
      <trkpt lat="44.27613" lon="5.67277">
        <ele>1132.4140625</ele>
        <time>2020-02-20T12:02:28Z</time>
      </trkpt>
      <trkpt lat="44.27609" lon="5.67262">
        <ele>1132.109375</ele>
        <time>2020-02-20T12:02:37Z</time>
      </trkpt>
      <trkpt lat="44.27609" lon="5.6726">
        <ele>1131.98828125</ele>
        <time>2020-02-20T12:02:38Z</time>
      </trkpt>
      <trkpt lat="44.27608" lon="5.67258">
        <ele>1131.98828125</ele>
        <time>2020-02-20T12:02:39Z</time>
      </trkpt>
      <trkpt lat="44.27608" lon="5.67257">
        <ele>1132.01953125</ele>
        <time>2020-02-20T12:02:40Z</time>
      </trkpt>
      <trkpt lat="44.27607" lon="5.67256">
        <ele>1132.30859375</ele>
        <time>2020-02-20T12:02:42Z</time>
      </trkpt>
      <trkpt lat="44.27607" lon="5.67256">
        <ele>1132.28125</ele>
        <time>2020-02-20T12:02:43Z</time>
      </trkpt>
      <trkpt lat="44.27607" lon="5.67255">
        <ele>1132.41015625</ele>
        <time>2020-02-20T12:02:44Z</time>
      </trkpt>
      <trkpt lat="44.27606" lon="5.67255">
        <ele>1132.5625</ele>
        <time>2020-02-20T12:02:45Z</time>
      </trkpt>
      <trkpt lat="44.27606" lon="5.67254">
        <ele>1132.6640625</ele>
        <time>2020-02-20T12:02:47Z</time>
      </trkpt>
      <trkpt lat="44.27606" lon="5.67254">
        <ele>1132.6796875</ele>
        <time>2020-02-20T12:02:48Z</time>
      </trkpt>
      <trkpt lat="44.27599" lon="5.67241">
        <ele>1134.08203125</ele>
        <time>2020-02-20T12:03:00Z</time>
      </trkpt>
      <trkpt lat="44.27598" lon="5.67237">
        <ele>1134.1953125</ele>
        <time>2020-02-20T12:03:04Z</time>
      </trkpt>
      <trkpt lat="44.27597" lon="5.67235">
        <ele>1134.1875</ele>
        <time>2020-02-20T12:03:05Z</time>
      </trkpt>
      <trkpt lat="44.2759" lon="5.67217">
        <ele>1134.9140625</ele>
        <time>2020-02-20T12:03:19Z</time>
      </trkpt>
      <trkpt lat="44.27588" lon="5.6721">
        <ele>1134.80859375</ele>
        <time>2020-02-20T12:03:27Z</time>
      </trkpt>
      <trkpt lat="44.27584" lon="5.67197">
        <ele>1135.00390625</ele>
        <time>2020-02-20T12:03:39Z</time>
      </trkpt>
      <trkpt lat="44.27579" lon="5.67185">
        <ele>1135.8046875</ele>
        <time>2020-02-20T12:03:50Z</time>
      </trkpt>
      <trkpt lat="44.27575" lon="5.67176">
        <ele>1136.40625</ele>
        <time>2020-02-20T12:04:00Z</time>
      </trkpt>
      <trkpt lat="44.27573" lon="5.67164">
        <ele>1135.765625</ele>
        <time>2020-02-20T12:04:14Z</time>
      </trkpt>
      <trkpt lat="44.27568" lon="5.6715">
        <ele>1136.13671875</ele>
        <time>2020-02-20T12:04:25Z</time>
      </trkpt>
      <trkpt lat="44.27566" lon="5.6714">
        <ele>1136.1328125</ele>
        <time>2020-02-20T12:04:35Z</time>
      </trkpt>
      <trkpt lat="44.27564" lon="5.67132">
        <ele>1136.1953125</ele>
        <time>2020-02-20T12:04:45Z</time>
      </trkpt>
      <trkpt lat="44.2756" lon="5.67121">
        <ele>1137.0390625</ele>
        <time>2020-02-20T12:04:53Z</time>
      </trkpt>
      <trkpt lat="44.27555" lon="5.67106">
        <ele>1137.4296875</ele>
        <time>2020-02-20T12:05:05Z</time>
      </trkpt>
      <trkpt lat="44.27553" lon="5.67097">
        <ele>1137.5546875</ele>
        <time>2020-02-20T12:05:15Z</time>
      </trkpt>
      <trkpt lat="44.27547" lon="5.67082">
        <ele>1139.31640625</ele>
        <time>2020-02-20T12:05:24Z</time>
      </trkpt>
      <trkpt lat="44.27543" lon="5.67063">
        <ele>1139.86328125</ele>
        <time>2020-02-20T12:05:37Z</time>
      </trkpt>
      <trkpt lat="44.27542" lon="5.67055">
        <ele>1140.01953125</ele>
        <time>2020-02-20T12:05:48Z</time>
      </trkpt>
      <trkpt lat="44.27539" lon="5.67034">
        <ele>1140.3046875</ele>
        <time>2020-02-20T12:05:59Z</time>
      </trkpt>
      <trkpt lat="44.27539" lon="5.67019">
        <ele>1138.88671875</ele>
        <time>2020-02-20T12:06:10Z</time>
      </trkpt>
      <trkpt lat="44.27535" lon="5.67001">
        <ele>1139.5546875</ele>
        <time>2020-02-20T12:06:23Z</time>
      </trkpt>
      <trkpt lat="44.27532" lon="5.66987">
        <ele>1139.74609375</ele>
        <time>2020-02-20T12:06:34Z</time>
      </trkpt>
      <trkpt lat="44.2753" lon="5.66975">
        <ele>1140.19921875</ele>
        <time>2020-02-20T12:06:46Z</time>
      </trkpt>
      <trkpt lat="44.27527" lon="5.6696">
        <ele>1140.44140625</ele>
        <time>2020-02-20T12:06:58Z</time>
      </trkpt>
      <trkpt lat="44.27526" lon="5.66946">
        <ele>1140.0390625</ele>
        <time>2020-02-20T12:07:08Z</time>
      </trkpt>
      <trkpt lat="44.27522" lon="5.66933">
        <ele>1141.3984375</ele>
        <time>2020-02-20T12:07:18Z</time>
      </trkpt>
      <trkpt lat="44.27519" lon="5.66923">
        <ele>1142.73828125</ele>
        <time>2020-02-20T12:07:27Z</time>
      </trkpt>
      <trkpt lat="44.27514" lon="5.66918">
        <ele>1145.18359375</ele>
        <time>2020-02-20T12:07:39Z</time>
      </trkpt>
      <trkpt lat="44.27512" lon="5.66904">
        <ele>1145.1171875</ele>
        <time>2020-02-20T12:07:48Z</time>
      </trkpt>
      <trkpt lat="44.27509" lon="5.66889">
        <ele>1145.13671875</ele>
        <time>2020-02-20T12:07:59Z</time>
      </trkpt>
      <trkpt lat="44.27508" lon="5.66874">
        <ele>1144.25</ele>
        <time>2020-02-20T12:08:11Z</time>
      </trkpt>
      <trkpt lat="44.27506" lon="5.66857">
        <ele>1144.203125</ele>
        <time>2020-02-20T12:08:21Z</time>
      </trkpt>
      <trkpt lat="44.27502" lon="5.66842">
        <ele>1145.58203125</ele>
        <time>2020-02-20T12:08:33Z</time>
      </trkpt>
      <trkpt lat="44.27499" lon="5.66828">
        <ele>1146.50390625</ele>
        <time>2020-02-20T12:08:44Z</time>
      </trkpt>
      <trkpt lat="44.27494" lon="5.66817">
        <ele>1148.6640625</ele>
        <time>2020-02-20T12:08:53Z</time>
      </trkpt>
      <trkpt lat="44.2749" lon="5.66805">
        <ele>1149.73046875</ele>
        <time>2020-02-20T12:09:04Z</time>
      </trkpt>
      <trkpt lat="44.27488" lon="5.66794">
        <ele>1149.81640625</ele>
        <time>2020-02-20T12:09:16Z</time>
      </trkpt>
      <trkpt lat="44.27484" lon="5.66775">
        <ele>1150.765625</ele>
        <time>2020-02-20T12:09:28Z</time>
      </trkpt>
      <trkpt lat="44.27477" lon="5.66767">
        <ele>1154.0234375</ele>
        <time>2020-02-20T12:09:37Z</time>
      </trkpt>
      <trkpt lat="44.27471" lon="5.66753">
        <ele>1155.94140625</ele>
        <time>2020-02-20T12:09:48Z</time>
      </trkpt>
      <trkpt lat="44.27466" lon="5.66741">
        <ele>1157.4296875</ele>
        <time>2020-02-20T12:09:58Z</time>
      </trkpt>
      <trkpt lat="44.27465" lon="5.6673">
        <ele>1156.29296875</ele>
        <time>2020-02-20T12:10:08Z</time>
      </trkpt>
      <trkpt lat="44.27463" lon="5.66721">
        <ele>1156.54296875</ele>
        <time>2020-02-20T12:10:19Z</time>
      </trkpt>
      <trkpt lat="44.27459" lon="5.66711">
        <ele>1157.29296875</ele>
        <time>2020-02-20T12:10:28Z</time>
      </trkpt>
      <trkpt lat="44.27456" lon="5.66699">
        <ele>1157.32421875</ele>
        <time>2020-02-20T12:10:39Z</time>
      </trkpt>
      <trkpt lat="44.27456" lon="5.66693">
        <ele>1156.8828125</ele>
        <time>2020-02-20T12:10:48Z</time>
      </trkpt>
      <trkpt lat="44.27455" lon="5.66688">
        <ele>1156.1953125</ele>
        <time>2020-02-20T12:11:00Z</time>
      </trkpt>
      <trkpt lat="44.27454" lon="5.66682">
        <ele>1156.125</ele>
        <time>2020-02-20T12:11:09Z</time>
      </trkpt>
      <trkpt lat="44.27452" lon="5.66673">
        <ele>1156.0625</ele>
        <time>2020-02-20T12:11:13Z</time>
      </trkpt>
      <trkpt lat="44.27449" lon="5.66654">
        <ele>1154.640625</ele>
        <time>2020-02-20T12:11:23Z</time>
      </trkpt>
      <trkpt lat="44.27446" lon="5.6664">
        <ele>1154.43359375</ele>
        <time>2020-02-20T12:11:32Z</time>
      </trkpt>
      <trkpt lat="44.27443" lon="5.6663">
        <ele>1154.7421875</ele>
        <time>2020-02-20T12:11:43Z</time>
      </trkpt>
      <trkpt lat="44.27441" lon="5.66613">
        <ele>1153.2421875</ele>
        <time>2020-02-20T12:11:53Z</time>
      </trkpt>
      <trkpt lat="44.27436" lon="5.66597">
        <ele>1153.98828125</ele>
        <time>2020-02-20T12:12:04Z</time>
      </trkpt>
      <trkpt lat="44.27433" lon="5.66587">
        <ele>1154.31640625</ele>
        <time>2020-02-20T12:12:12Z</time>
      </trkpt>
      <trkpt lat="44.27431" lon="5.66577">
        <ele>1153.82421875</ele>
        <time>2020-02-20T12:12:21Z</time>
      </trkpt>
      <trkpt lat="44.27432" lon="5.66569">
        <ele>1152.828125</ele>
        <time>2020-02-20T12:12:29Z</time>
      </trkpt>
      <trkpt lat="44.27433" lon="5.66556">
        <ele>1151.734375</ele>
        <time>2020-02-20T12:12:39Z</time>
      </trkpt>
      <trkpt lat="44.27439" lon="5.66551">
        <ele>1148.1796875</ele>
        <time>2020-02-20T12:12:48Z</time>
      </trkpt>
      <trkpt lat="44.27445" lon="5.66548">
        <ele>1145.67578125</ele>
        <time>2020-02-20T12:12:59Z</time>
      </trkpt>
      <trkpt lat="44.27454" lon="5.66536">
        <ele>1142.12109375</ele>
        <time>2020-02-20T12:13:13Z</time>
      </trkpt>
      <trkpt lat="44.27459" lon="5.66521">
        <ele>1140.34375</ele>
        <time>2020-02-20T12:13:27Z</time>
      </trkpt>
      <trkpt lat="44.27469" lon="5.66503">
        <ele>1136.59375</ele>
        <time>2020-02-20T12:13:41Z</time>
      </trkpt>
      <trkpt lat="44.27476" lon="5.66496">
        <ele>1134.109375</ele>
        <time>2020-02-20T12:13:51Z</time>
      </trkpt>
      <trkpt lat="44.27484" lon="5.66483">
        <ele>1131.64453125</ele>
        <time>2020-02-20T12:14:01Z</time>
      </trkpt>
      <trkpt lat="44.27484" lon="5.66474">
        <ele>1131.69921875</ele>
        <time>2020-02-20T12:14:12Z</time>
      </trkpt>
      <trkpt lat="44.27482" lon="5.66468">
        <ele>1132.21484375</ele>
        <time>2020-02-20T12:14:19Z</time>
      </trkpt>
      <trkpt lat="44.27478" lon="5.66456">
        <ele>1134.3359375</ele>
        <time>2020-02-20T12:14:29Z</time>
      </trkpt>
      <trkpt lat="44.27475" lon="5.66439">
        <ele>1136.23828125</ele>
        <time>2020-02-20T12:14:39Z</time>
      </trkpt>
      <trkpt lat="44.27473" lon="5.66435">
        <ele>1137.265625</ele>
        <time>2020-02-20T12:14:45Z</time>
      </trkpt>
      <trkpt lat="44.27466" lon="5.66417">
        <ele>1139.48046875</ele>
        <time>2020-02-20T12:14:55Z</time>
      </trkpt>
      <trkpt lat="44.27464" lon="5.66408">
        <ele>1139.8359375</ele>
        <time>2020-02-20T12:15:04Z</time>
      </trkpt>
      <trkpt lat="44.2746" lon="5.66394">
        <ele>1141.6953125</ele>
        <time>2020-02-20T12:15:14Z</time>
      </trkpt>
      <trkpt lat="44.27456" lon="5.66383">
        <ele>1143.03515625</ele>
        <time>2020-02-20T12:15:24Z</time>
      </trkpt>
      <trkpt lat="44.27454" lon="5.66373">
        <ele>1144.0703125</ele>
        <time>2020-02-20T12:15:35Z</time>
      </trkpt>
      <trkpt lat="44.2745" lon="5.66366">
        <ele>1145.65234375</ele>
        <time>2020-02-20T12:15:40Z</time>
      </trkpt>
      <trkpt lat="44.27446" lon="5.66353">
        <ele>1146.81640625</ele>
        <time>2020-02-20T12:15:52Z</time>
      </trkpt>
      <trkpt lat="44.2744" lon="5.66343">
        <ele>1149.18359375</ele>
        <time>2020-02-20T12:16:04Z</time>
      </trkpt>
      <trkpt lat="44.2744" lon="5.66338">
        <ele>1149.18359375</ele>
        <time>2020-02-20T12:16:13Z</time>
      </trkpt>
      <trkpt lat="44.27438" lon="5.66329">
        <ele>1150.19921875</ele>
        <time>2020-02-20T12:16:23Z</time>
      </trkpt>
      <trkpt lat="44.27435" lon="5.66325">
        <ele>1151.296875</ele>
        <time>2020-02-20T12:16:27Z</time>
      </trkpt>
      <trkpt lat="44.27434" lon="5.66321">
        <ele>1152.05859375</ele>
        <time>2020-02-20T12:16:28Z</time>
      </trkpt>
      <trkpt lat="44.2743" lon="5.66318">
        <ele>1154.0546875</ele>
        <time>2020-02-20T12:16:32Z</time>
      </trkpt>
      <trkpt lat="44.2743" lon="5.66318">
        <ele>1154.2421875</ele>
        <time>2020-02-20T12:16:33Z</time>
      </trkpt>
      <trkpt lat="44.27429" lon="5.66318">
        <ele>1154.41015625</ele>
        <time>2020-02-20T12:16:38Z</time>
      </trkpt>
      <trkpt lat="44.27429" lon="5.66318">
        <ele>1154.35546875</ele>
        <time>2020-02-20T12:16:39Z</time>
      </trkpt>
      <trkpt lat="44.27429" lon="5.66319">
        <ele>1154.2578125</ele>
        <time>2020-02-20T12:16:40Z</time>
      </trkpt>
      <trkpt lat="44.27428" lon="5.66321">
        <ele>1155.078125</ele>
        <time>2020-02-20T12:16:51Z</time>
      </trkpt>
      <trkpt lat="44.27428" lon="5.66321">
        <ele>1155.07421875</ele>
        <time>2020-02-20T12:16:52Z</time>
      </trkpt>
      <trkpt lat="44.27428" lon="5.66321">
        <ele>1155.08984375</ele>
        <time>2020-02-20T12:16:53Z</time>
      </trkpt>
      <trkpt lat="44.27428" lon="5.66321">
        <ele>1155.1015625</ele>
        <time>2020-02-20T12:16:54Z</time>
      </trkpt>
      <trkpt lat="44.27428" lon="5.66321">
        <ele>1155.09765625</ele>
        <time>2020-02-20T12:16:55Z</time>
      </trkpt>
      <trkpt lat="44.27428" lon="5.66322">
        <ele>1155.16015625</ele>
        <time>2020-02-20T12:17:00Z</time>
      </trkpt>
      <trkpt lat="44.27428" lon="5.66322">
        <ele>1155.28515625</ele>
        <time>2020-02-20T12:17:01Z</time>
      </trkpt>
      <trkpt lat="44.27424" lon="5.66331">
        <ele>1157.4609375</ele>
        <time>2020-02-20T12:17:12Z</time>
      </trkpt>
      <trkpt lat="44.27426" lon="5.66343">
        <ele>1157.19140625</ele>
        <time>2020-02-20T12:17:25Z</time>
      </trkpt>
      <trkpt lat="44.27424" lon="5.66342">
        <ele>1157.97265625</ele>
        <time>2020-02-20T12:17:37Z</time>
      </trkpt>
      <trkpt lat="44.27424" lon="5.66339">
        <ele>1157.828125</ele>
        <time>2020-02-20T12:17:48Z</time>
      </trkpt>
      <trkpt lat="44.27424" lon="5.66332">
        <ele>1157.90234375</ele>
        <time>2020-02-20T12:18:01Z</time>
      </trkpt>
      <trkpt lat="44.27421" lon="5.66327">
        <ele>1158.8984375</ele>
        <time>2020-02-20T12:18:14Z</time>
      </trkpt>
      <trkpt lat="44.27419" lon="5.66321">
        <ele>1159.98828125</ele>
        <time>2020-02-20T12:18:30Z</time>
      </trkpt>
      <trkpt lat="44.27416" lon="5.66306">
        <ele>1160.86328125</ele>
        <time>2020-02-20T12:18:45Z</time>
      </trkpt>
      <trkpt lat="44.27417" lon="5.66302">
        <ele>1160.3984375</ele>
        <time>2020-02-20T12:18:56Z</time>
      </trkpt>
      <trkpt lat="44.27418" lon="5.66299">
        <ele>1159.97265625</ele>
        <time>2020-02-20T12:19:07Z</time>
      </trkpt>
      <trkpt lat="44.27418" lon="5.66288">
        <ele>1159.37109375</ele>
        <time>2020-02-20T12:19:19Z</time>
      </trkpt>
      <trkpt lat="44.2742" lon="5.66281">
        <ele>1158.49609375</ele>
        <time>2020-02-20T12:19:30Z</time>
      </trkpt>
      <trkpt lat="44.2742" lon="5.66269">
        <ele>1157.859375</ele>
        <time>2020-02-20T12:19:40Z</time>
      </trkpt>
      <trkpt lat="44.27419" lon="5.66254">
        <ele>1158.83203125</ele>
        <time>2020-02-20T12:19:50Z</time>
      </trkpt>
      <trkpt lat="44.2742" lon="5.66244">
        <ele>1158.8046875</ele>
        <time>2020-02-20T12:20:00Z</time>
      </trkpt>
      <trkpt lat="44.27419" lon="5.66234">
        <ele>1159.55859375</ele>
        <time>2020-02-20T12:20:10Z</time>
      </trkpt>
      <trkpt lat="44.27415" lon="5.66218">
        <ele>1162.25390625</ele>
        <time>2020-02-20T12:20:18Z</time>
      </trkpt>
      <trkpt lat="44.27413" lon="5.66203">
        <ele>1163.75390625</ele>
        <time>2020-02-20T12:20:28Z</time>
      </trkpt>
      <trkpt lat="44.27414" lon="5.66179">
        <ele>1164.98046875</ele>
        <time>2020-02-20T12:20:38Z</time>
      </trkpt>
      <trkpt lat="44.27415" lon="5.66157">
        <ele>1166.44140625</ele>
        <time>2020-02-20T12:20:49Z</time>
      </trkpt>
      <trkpt lat="44.27414" lon="5.66139">
        <ele>1167.9375</ele>
        <time>2020-02-20T12:21:03Z</time>
      </trkpt>
      <trkpt lat="44.27411" lon="5.66128">
        <ele>1169.84375</ele>
        <time>2020-02-20T12:21:13Z</time>
      </trkpt>
      <trkpt lat="44.27408" lon="5.66125">
        <ele>1171</ele>
        <time>2020-02-20T12:21:27Z</time>
      </trkpt>
      <trkpt lat="44.27408" lon="5.66125">
        <ele>1170.96484375</ele>
        <time>2020-02-20T12:21:40Z</time>
      </trkpt>
      <trkpt lat="44.27408" lon="5.66126">
        <ele>1171.109375</ele>
        <time>2020-02-20T12:21:54Z</time>
      </trkpt>
      <trkpt lat="44.2741" lon="5.66125">
        <ele>1170.25390625</ele>
        <time>2020-02-20T12:22:07Z</time>
      </trkpt>
      <trkpt lat="44.27413" lon="5.66127">
        <ele>1169.1953125</ele>
        <time>2020-02-20T12:22:16Z</time>
      </trkpt>
      <trkpt lat="44.27412" lon="5.66127">
        <ele>1169.52734375</ele>
        <time>2020-02-20T12:22:33Z</time>
      </trkpt>
      <trkpt lat="44.27414" lon="5.66118">
        <ele>1169.0703125</ele>
        <time>2020-02-20T12:22:45Z</time>
      </trkpt>
      <trkpt lat="44.27417" lon="5.66112">
        <ele>1168.421875</ele>
        <time>2020-02-20T12:22:55Z</time>
      </trkpt>
      <trkpt lat="44.27418" lon="5.66111">
        <ele>1168.18359375</ele>
        <time>2020-02-20T12:23:12Z</time>
      </trkpt>
      <trkpt lat="44.27424" lon="5.66095">
        <ele>1166.921875</ele>
        <time>2020-02-20T12:23:26Z</time>
      </trkpt>
      <trkpt lat="44.27429" lon="5.66079">
        <ele>1166.9765625</ele>
        <time>2020-02-20T12:23:38Z</time>
      </trkpt>
      <trkpt lat="44.27435" lon="5.66066">
        <ele>1166.19921875</ele>
        <time>2020-02-20T12:23:50Z</time>
      </trkpt>
      <trkpt lat="44.27439" lon="5.66056">
        <ele>1165.171875</ele>
        <time>2020-02-20T12:24:02Z</time>
      </trkpt>
      <trkpt lat="44.27445" lon="5.66046">
        <ele>1164.08984375</ele>
        <time>2020-02-20T12:24:13Z</time>
      </trkpt>
      <trkpt lat="44.27448" lon="5.66039">
        <ele>1163.67578125</ele>
        <time>2020-02-20T12:24:24Z</time>
      </trkpt>
      <trkpt lat="44.27444" lon="5.66036">
        <ele>1164.71875</ele>
        <time>2020-02-20T12:24:34Z</time>
      </trkpt>
      <trkpt lat="44.27444" lon="5.66035">
        <ele>1164.953125</ele>
        <time>2020-02-20T12:24:44Z</time>
      </trkpt>
      <trkpt lat="44.27443" lon="5.66033">
        <ele>1165.2890625</ele>
        <time>2020-02-20T12:24:53Z</time>
      </trkpt>
      <trkpt lat="44.27442" lon="5.66033">
        <ele>1165.5078125</ele>
        <time>2020-02-20T12:25:13Z</time>
      </trkpt>
      <trkpt lat="44.27442" lon="5.66033">
        <ele>1165.69921875</ele>
        <time>2020-02-20T12:25:31Z</time>
      </trkpt>
      <trkpt lat="44.27441" lon="5.66033">
        <ele>1165.98828125</ele>
        <time>2020-02-20T12:25:51Z</time>
      </trkpt>
      <trkpt lat="44.2744" lon="5.6603">
        <ele>1166.3203125</ele>
        <time>2020-02-20T12:26:16Z</time>
      </trkpt>
      <trkpt lat="44.2744" lon="5.6603">
        <ele>1166.28515625</ele>
        <time>2020-02-20T12:26:43Z</time>
      </trkpt>
      <trkpt lat="44.2744" lon="5.6603">
        <ele>1166.26171875</ele>
        <time>2020-02-20T12:27:00Z</time>
      </trkpt>
      <trkpt lat="44.27441" lon="5.66032">
        <ele>1165.82421875</ele>
        <time>2020-02-20T12:27:29Z</time>
      </trkpt>
      <trkpt lat="44.27442" lon="5.66032">
        <ele>1165.5390625</ele>
        <time>2020-02-20T12:27:52Z</time>
      </trkpt>
      <trkpt lat="44.27437" lon="5.66026">
        <ele>1167.62109375</ele>
        <time>2020-02-20T12:28:00Z</time>
      </trkpt>
      <trkpt lat="44.27433" lon="5.66022">
        <ele>1168.87109375</ele>
        <time>2020-02-20T12:28:04Z</time>
      </trkpt>
      <trkpt lat="44.2743" lon="5.6602">
        <ele>1170.01171875</ele>
        <time>2020-02-20T12:28:07Z</time>
      </trkpt>
      <trkpt lat="44.27427" lon="5.66016">
        <ele>1171.26171875</ele>
        <time>2020-02-20T12:28:11Z</time>
      </trkpt>
      <trkpt lat="44.27414" lon="5.66006">
        <ele>1175.11328125</ele>
        <time>2020-02-20T12:28:23Z</time>
      </trkpt>
      <trkpt lat="44.27408" lon="5.66">
        <ele>1177.34765625</ele>
        <time>2020-02-20T12:28:31Z</time>
      </trkpt>
      <trkpt lat="44.27405" lon="5.65998">
        <ele>1178.3828125</ele>
        <time>2020-02-20T12:28:34Z</time>
      </trkpt>
      <trkpt lat="44.27399" lon="5.65987">
        <ele>1180.78515625</ele>
        <time>2020-02-20T12:28:45Z</time>
      </trkpt>
      <trkpt lat="44.274" lon="5.65987">
        <ele>1180.59375</ele>
        <time>2020-02-20T12:28:58Z</time>
      </trkpt>
      <trkpt lat="44.27398" lon="5.65984">
        <ele>1181.40625</ele>
        <time>2020-02-20T12:29:08Z</time>
      </trkpt>
      <trkpt lat="44.274" lon="5.6598">
        <ele>1181.13671875</ele>
        <time>2020-02-20T12:29:23Z</time>
      </trkpt>
      <trkpt lat="44.27402" lon="5.65967">
        <ele>1181.16796875</ele>
        <time>2020-02-20T12:29:34Z</time>
      </trkpt>
      <trkpt lat="44.27405" lon="5.6595">
        <ele>1181.953125</ele>
        <time>2020-02-20T12:29:47Z</time>
      </trkpt>
      <trkpt lat="44.27412" lon="5.65937">
        <ele>1181.20703125</ele>
        <time>2020-02-20T12:29:58Z</time>
      </trkpt>
      <trkpt lat="44.27422" lon="5.65925">
        <ele>1179.74609375</ele>
        <time>2020-02-20T12:30:10Z</time>
      </trkpt>
      <trkpt lat="44.27427" lon="5.65914">
        <ele>1179.83203125</ele>
        <time>2020-02-20T12:30:20Z</time>
      </trkpt>
      <trkpt lat="44.27433" lon="5.65902">
        <ele>1180.1640625</ele>
        <time>2020-02-20T12:30:30Z</time>
      </trkpt>
      <trkpt lat="44.27433" lon="5.65894">
        <ele>1181.75390625</ele>
        <time>2020-02-20T12:30:39Z</time>
      </trkpt>
      <trkpt lat="44.27434" lon="5.65884">
        <ele>1183.3984375</ele>
        <time>2020-02-20T12:30:47Z</time>
      </trkpt>
      <trkpt lat="44.27438" lon="5.65873">
        <ele>1184.97265625</ele>
        <time>2020-02-20T12:30:56Z</time>
      </trkpt>
      <trkpt lat="44.27438" lon="5.65872">
        <ele>1185.09765625</ele>
        <time>2020-02-20T12:30:57Z</time>
      </trkpt>
      <trkpt lat="44.27447" lon="5.65864">
        <ele>1184.92578125</ele>
        <time>2020-02-20T12:31:07Z</time>
      </trkpt>
      <trkpt lat="44.27456" lon="5.65852">
        <ele>1185.11328125</ele>
        <time>2020-02-20T12:31:19Z</time>
      </trkpt>
      <trkpt lat="44.27467" lon="5.65846">
        <ele>1183.8515625</ele>
        <time>2020-02-20T12:31:30Z</time>
      </trkpt>
      <trkpt lat="44.27469" lon="5.65845">
        <ele>1183.46875</ele>
        <time>2020-02-20T12:31:32Z</time>
      </trkpt>
      <trkpt lat="44.27479" lon="5.65843">
        <ele>1181.61328125</ele>
        <time>2020-02-20T12:31:43Z</time>
      </trkpt>
      <trkpt lat="44.27485" lon="5.65838">
        <ele>1181.734375</ele>
        <time>2020-02-20T12:31:54Z</time>
      </trkpt>
      <trkpt lat="44.27487" lon="5.65831">
        <ele>1183.25</ele>
        <time>2020-02-20T12:32:06Z</time>
      </trkpt>
      <trkpt lat="44.27488" lon="5.65826">
        <ele>1184.0625</ele>
        <time>2020-02-20T12:32:18Z</time>
      </trkpt>
      <trkpt lat="44.27489" lon="5.65825">
        <ele>1184.1484375</ele>
        <time>2020-02-20T12:32:22Z</time>
      </trkpt>
      <trkpt lat="44.27486" lon="5.65814">
        <ele>1187.8203125</ele>
        <time>2020-02-20T12:32:32Z</time>
      </trkpt>
      <trkpt lat="44.27483" lon="5.65797">
        <ele>1192.01171875</ele>
        <time>2020-02-20T12:32:42Z</time>
      </trkpt>
      <trkpt lat="44.27483" lon="5.65785">
        <ele>1194.5859375</ele>
        <time>2020-02-20T12:32:52Z</time>
      </trkpt>
      <trkpt lat="44.27485" lon="5.65773">
        <ele>1196.92578125</ele>
        <time>2020-02-20T12:33:02Z</time>
      </trkpt>
      <trkpt lat="44.27487" lon="5.65768">
        <ele>1197.81640625</ele>
        <time>2020-02-20T12:33:06Z</time>
      </trkpt>
      <trkpt lat="44.27487" lon="5.65764">
        <ele>1198.53125</ele>
        <time>2020-02-20T12:33:10Z</time>
      </trkpt>
      <trkpt lat="44.27488" lon="5.65761">
        <ele>1199.30078125</ele>
        <time>2020-02-20T12:33:12Z</time>
      </trkpt>
      <trkpt lat="44.27492" lon="5.65753">
        <ele>1200.61328125</ele>
        <time>2020-02-20T12:33:18Z</time>
      </trkpt>
      <trkpt lat="44.27494" lon="5.6575">
        <ele>1200.73046875</ele>
        <time>2020-02-20T12:33:29Z</time>
      </trkpt>
      <trkpt lat="44.27494" lon="5.6575">
        <ele>1200.7421875</ele>
        <time>2020-02-20T12:33:38Z</time>
      </trkpt>
      <trkpt lat="44.27495" lon="5.65747">
        <ele>1201.37890625</ele>
        <time>2020-02-20T12:33:51Z</time>
      </trkpt>
      <trkpt lat="44.27495" lon="5.65739">
        <ele>1203.28515625</ele>
        <time>2020-02-20T12:34:02Z</time>
      </trkpt>
      <trkpt lat="44.27498" lon="5.65723">
        <ele>1206.1796875</ele>
        <time>2020-02-20T12:34:13Z</time>
      </trkpt>
      <trkpt lat="44.27499" lon="5.6572">
        <ele>1206.78515625</ele>
        <time>2020-02-20T12:34:15Z</time>
      </trkpt>
      <trkpt lat="44.27509" lon="5.65712">
        <ele>1207.390625</ele>
        <time>2020-02-20T12:34:25Z</time>
      </trkpt>
      <trkpt lat="44.27517" lon="5.65712">
        <ele>1206.72265625</ele>
        <time>2020-02-20T12:34:35Z</time>
      </trkpt>
      <trkpt lat="44.27524" lon="5.65706">
        <ele>1206.83984375</ele>
        <time>2020-02-20T12:34:44Z</time>
      </trkpt>
      <trkpt lat="44.27526" lon="5.65701">
        <ele>1207.7265625</ele>
        <time>2020-02-20T12:34:53Z</time>
      </trkpt>
      <trkpt lat="44.27526" lon="5.65701">
        <ele>1207.69921875</ele>
        <time>2020-02-20T12:35:07Z</time>
      </trkpt>
      <trkpt lat="44.27526" lon="5.65701">
        <ele>1207.71875</ele>
        <time>2020-02-20T12:35:08Z</time>
      </trkpt>
      <trkpt lat="44.27526" lon="5.65701">
        <ele>1207.671875</ele>
        <time>2020-02-20T12:35:15Z</time>
      </trkpt>
      <trkpt lat="44.27526" lon="5.65701">
        <ele>1207.65625</ele>
        <time>2020-02-20T12:35:16Z</time>
      </trkpt>
      <trkpt lat="44.27525" lon="5.65702">
        <ele>1207.6328125</ele>
        <time>2020-02-20T12:35:18Z</time>
      </trkpt>
      <trkpt lat="44.27525" lon="5.65702">
        <ele>1207.62890625</ele>
        <time>2020-02-20T12:35:20Z</time>
      </trkpt>
      <trkpt lat="44.27525" lon="5.65702">
        <ele>1207.62890625</ele>
        <time>2020-02-20T12:35:21Z</time>
      </trkpt>
      <trkpt lat="44.27523" lon="5.65697">
        <ele>1208.6953125</ele>
        <time>2020-02-20T12:35:37Z</time>
      </trkpt>
      <trkpt lat="44.27514" lon="5.65698">
        <ele>1209.90625</ele>
        <time>2020-02-20T12:35:46Z</time>
      </trkpt>
      <trkpt lat="44.27506" lon="5.65697">
        <ele>1211.2421875</ele>
        <time>2020-02-20T12:35:57Z</time>
      </trkpt>
      <trkpt lat="44.27504" lon="5.65697">
        <ele>1211.484375</ele>
        <time>2020-02-20T12:36:07Z</time>
      </trkpt>
      <trkpt lat="44.27501" lon="5.65696">
        <ele>1212.125</ele>
        <time>2020-02-20T12:36:17Z</time>
      </trkpt>
      <trkpt lat="44.27499" lon="5.65698">
        <ele>1211.9765625</ele>
        <time>2020-02-20T12:36:28Z</time>
      </trkpt>
      <trkpt lat="44.27495" lon="5.657">
        <ele>1212.01953125</ele>
        <time>2020-02-20T12:36:40Z</time>
      </trkpt>
      <trkpt lat="44.27493" lon="5.657">
        <ele>1212.62109375</ele>
        <time>2020-02-20T12:36:50Z</time>
      </trkpt>
      <trkpt lat="44.27491" lon="5.65702">
        <ele>1212.4765625</ele>
        <time>2020-02-20T12:37:05Z</time>
      </trkpt>
      <trkpt lat="44.2749" lon="5.65701">
        <ele>1212.89453125</ele>
        <time>2020-02-20T12:37:18Z</time>
      </trkpt>
      <trkpt lat="44.27489" lon="5.65702">
        <ele>1212.6796875</ele>
        <time>2020-02-20T12:37:30Z</time>
      </trkpt>
      <trkpt lat="44.27489" lon="5.65702">
        <ele>1212.80078125</ele>
        <time>2020-02-20T12:37:47Z</time>
      </trkpt>
      <trkpt lat="44.27487" lon="5.65704">
        <ele>1212.79296875</ele>
        <time>2020-02-20T12:38:00Z</time>
      </trkpt>
      <trkpt lat="44.27487" lon="5.65705">
        <ele>1212.6328125</ele>
        <time>2020-02-20T12:38:13Z</time>
      </trkpt>
      <trkpt lat="44.27484" lon="5.65707">
        <ele>1212.57421875</ele>
        <time>2020-02-20T12:38:29Z</time>
      </trkpt>
      <trkpt lat="44.27482" lon="5.65707">
        <ele>1213.015625</ele>
        <time>2020-02-20T12:38:38Z</time>
      </trkpt>
      <trkpt lat="44.27481" lon="5.65708">
        <ele>1212.984375</ele>
        <time>2020-02-20T12:38:48Z</time>
      </trkpt>
      <trkpt lat="44.27482" lon="5.65708">
        <ele>1212.95703125</ele>
        <time>2020-02-20T12:39:08Z</time>
      </trkpt>
      <trkpt lat="44.27482" lon="5.65708">
        <ele>1212.96484375</ele>
        <time>2020-02-20T12:39:11Z</time>
      </trkpt>
      <trkpt lat="44.27482" lon="5.65708">
        <ele>1212.96875</ele>
        <time>2020-02-20T12:39:12Z</time>
      </trkpt>
      <trkpt lat="44.27482" lon="5.65708">
        <ele>1212.9765625</ele>
        <time>2020-02-20T12:39:13Z</time>
      </trkpt>
      <trkpt lat="44.27482" lon="5.65708">
        <ele>1212.98828125</ele>
        <time>2020-02-20T12:39:14Z</time>
      </trkpt>
      <trkpt lat="44.27482" lon="5.65708">
        <ele>1213</ele>
        <time>2020-02-20T12:39:15Z</time>
      </trkpt>
      <trkpt lat="44.27482" lon="5.65708">
        <ele>1213.03125</ele>
        <time>2020-02-20T12:39:17Z</time>
      </trkpt>
      <trkpt lat="44.27482" lon="5.65708">
        <ele>1213.05078125</ele>
        <time>2020-02-20T12:39:18Z</time>
      </trkpt>
      <trkpt lat="44.27481" lon="5.65707">
        <ele>1213.2265625</ele>
        <time>2020-02-20T12:39:23Z</time>
      </trkpt>
      <trkpt lat="44.27481" lon="5.65707">
        <ele>1213.28515625</ele>
        <time>2020-02-20T12:39:24Z</time>
      </trkpt>
      <trkpt lat="44.2748" lon="5.65708">
        <ele>1213.265625</ele>
        <time>2020-02-20T12:39:29Z</time>
      </trkpt>
      <trkpt lat="44.2748" lon="5.65708">
        <ele>1213.234375</ele>
        <time>2020-02-20T12:39:31Z</time>
      </trkpt>
      <trkpt lat="44.2748" lon="5.65708">
        <ele>1213.21484375</ele>
        <time>2020-02-20T12:39:32Z</time>
      </trkpt>
      <trkpt lat="44.2748" lon="5.65708">
        <ele>1213.20703125</ele>
        <time>2020-02-20T12:39:33Z</time>
      </trkpt>
      <trkpt lat="44.2748" lon="5.65708">
        <ele>1213.21875</ele>
        <time>2020-02-20T12:39:40Z</time>
      </trkpt>
      <trkpt lat="44.2748" lon="5.65709">
        <ele>1213.1953125</ele>
        <time>2020-02-20T12:39:41Z</time>
      </trkpt>
      <trkpt lat="44.2748" lon="5.65709">
        <ele>1213.18359375</ele>
        <time>2020-02-20T12:39:42Z</time>
      </trkpt>
      <trkpt lat="44.2748" lon="5.65709">
        <ele>1213.1640625</ele>
        <time>2020-02-20T12:39:43Z</time>
      </trkpt>
      <trkpt lat="44.27477" lon="5.6571">
        <ele>1213.265625</ele>
        <time>2020-02-20T12:39:58Z</time>
      </trkpt>
      <trkpt lat="44.27474" lon="5.65712">
        <ele>1213.6328125</ele>
        <time>2020-02-20T12:40:06Z</time>
      </trkpt>
      <trkpt lat="44.27465" lon="5.6572">
        <ele>1214.0546875</ele>
        <time>2020-02-20T12:40:17Z</time>
      </trkpt>
      <trkpt lat="44.27457" lon="5.65732">
        <ele>1213.7421875</ele>
        <time>2020-02-20T12:40:30Z</time>
      </trkpt>
      <trkpt lat="44.27453" lon="5.6574">
        <ele>1213.34765625</ele>
        <time>2020-02-20T12:40:42Z</time>
      </trkpt>
      <trkpt lat="44.27449" lon="5.65745">
        <ele>1213.109375</ele>
        <time>2020-02-20T12:40:50Z</time>
      </trkpt>
      <trkpt lat="44.27443" lon="5.65755">
        <ele>1212.328125</ele>
        <time>2020-02-20T12:41:01Z</time>
      </trkpt>
      <trkpt lat="44.27437" lon="5.65761">
        <ele>1212.53515625</ele>
        <time>2020-02-20T12:41:09Z</time>
      </trkpt>
      <trkpt lat="44.27431" lon="5.65761">
        <ele>1214.640625</ele>
        <time>2020-02-20T12:41:18Z</time>
      </trkpt>
      <trkpt lat="44.27428" lon="5.65759">
        <ele>1216.10546875</ele>
        <time>2020-02-20T12:41:27Z</time>
      </trkpt>
      <trkpt lat="44.27422" lon="5.65753">
        <ele>1219.3359375</ele>
        <time>2020-02-20T12:41:37Z</time>
      </trkpt>
      <trkpt lat="44.27417" lon="5.65745">
        <ele>1222.625</ele>
        <time>2020-02-20T12:41:48Z</time>
      </trkpt>
      <trkpt lat="44.27414" lon="5.65739">
        <ele>1224.63671875</ele>
        <time>2020-02-20T12:41:58Z</time>
      </trkpt>
      <trkpt lat="44.27414" lon="5.65739">
        <ele>1224.8828125</ele>
        <time>2020-02-20T12:42:11Z</time>
      </trkpt>
      <trkpt lat="44.27412" lon="5.65737">
        <ele>1225.515625</ele>
        <time>2020-02-20T12:42:20Z</time>
      </trkpt>
      <trkpt lat="44.27413" lon="5.65737">
        <ele>1225.484375</ele>
        <time>2020-02-20T12:42:24Z</time>
      </trkpt>
      <trkpt lat="44.27406" lon="5.6573">
        <ele>1228.2421875</ele>
        <time>2020-02-20T12:42:33Z</time>
      </trkpt>
      <trkpt lat="44.27396" lon="5.65725">
        <ele>1231.125</ele>
        <time>2020-02-20T12:42:43Z</time>
      </trkpt>
      <trkpt lat="44.27388" lon="5.65723">
        <ele>1232.8984375</ele>
        <time>2020-02-20T12:42:52Z</time>
      </trkpt>
      <trkpt lat="44.27384" lon="5.65717">
        <ele>1234.515625</ele>
        <time>2020-02-20T12:42:59Z</time>
      </trkpt>
      <trkpt lat="44.2738" lon="5.65709">
        <ele>1236.421875</ele>
        <time>2020-02-20T12:43:10Z</time>
      </trkpt>
      <trkpt lat="44.27373" lon="5.65705">
        <ele>1238.03515625</ele>
        <time>2020-02-20T12:43:21Z</time>
      </trkpt>
      <trkpt lat="44.27366" lon="5.65703">
        <ele>1239.515625</ele>
        <time>2020-02-20T12:43:31Z</time>
      </trkpt>
      <trkpt lat="44.2736" lon="5.65701">
        <ele>1240.71875</ele>
        <time>2020-02-20T12:43:42Z</time>
      </trkpt>
      <trkpt lat="44.27356" lon="5.65698">
        <ele>1241.5625</ele>
        <time>2020-02-20T12:43:56Z</time>
      </trkpt>
      <trkpt lat="44.27351" lon="5.65696">
        <ele>1242.8125</ele>
        <time>2020-02-20T12:44:06Z</time>
      </trkpt>
      <trkpt lat="44.27344" lon="5.65688">
        <ele>1244.2890625</ele>
        <time>2020-02-20T12:44:18Z</time>
      </trkpt>
      <trkpt lat="44.27341" lon="5.65687">
        <ele>1244.98046875</ele>
        <time>2020-02-20T12:44:28Z</time>
      </trkpt>
      <trkpt lat="44.27334" lon="5.65684">
        <ele>1246.18359375</ele>
        <time>2020-02-20T12:44:38Z</time>
      </trkpt>
      <trkpt lat="44.27331" lon="5.65684">
        <ele>1246.95703125</ele>
        <time>2020-02-20T12:44:43Z</time>
      </trkpt>
      <trkpt lat="44.27324" lon="5.65684">
        <ele>1249.01171875</ele>
        <time>2020-02-20T12:44:52Z</time>
      </trkpt>
      <trkpt lat="44.27319" lon="5.65684">
        <ele>1250.75</ele>
        <time>2020-02-20T12:45:01Z</time>
      </trkpt>
      <trkpt lat="44.27311" lon="5.65683">
        <ele>1253.359375</ele>
        <time>2020-02-20T12:45:10Z</time>
      </trkpt>
      <trkpt lat="44.27309" lon="5.65682">
        <ele>1253.6171875</ele>
        <time>2020-02-20T12:45:12Z</time>
      </trkpt>
      <trkpt lat="44.27307" lon="5.65681">
        <ele>1253.8671875</ele>
        <time>2020-02-20T12:45:14Z</time>
      </trkpt>
      <trkpt lat="44.27297" lon="5.65676">
        <ele>1256.515625</ele>
        <time>2020-02-20T12:45:26Z</time>
      </trkpt>
      <trkpt lat="44.27295" lon="5.65674">
        <ele>1257.078125</ele>
        <time>2020-02-20T12:45:29Z</time>
      </trkpt>
      <trkpt lat="44.2729" lon="5.65668">
        <ele>1257.18359375</ele>
        <time>2020-02-20T12:45:35Z</time>
      </trkpt>
      <trkpt lat="44.27281" lon="5.6566">
        <ele>1258.22265625</ele>
        <time>2020-02-20T12:45:46Z</time>
      </trkpt>
      <trkpt lat="44.27275" lon="5.65649">
        <ele>1256.7890625</ele>
        <time>2020-02-20T12:45:56Z</time>
      </trkpt>
      <trkpt lat="44.27273" lon="5.65646">
        <ele>1256.26953125</ele>
        <time>2020-02-20T12:46:00Z</time>
      </trkpt>
      <trkpt lat="44.27265" lon="5.65639">
        <ele>1256.61328125</ele>
        <time>2020-02-20T12:46:12Z</time>
      </trkpt>
      <trkpt lat="44.27258" lon="5.65635">
        <ele>1258.15625</ele>
        <time>2020-02-20T12:46:24Z</time>
      </trkpt>
      <trkpt lat="44.27254" lon="5.65633">
        <ele>1259.02734375</ele>
        <time>2020-02-20T12:46:33Z</time>
      </trkpt>
      <trkpt lat="44.27249" lon="5.65629">
        <ele>1259.578125</ele>
        <time>2020-02-20T12:46:42Z</time>
      </trkpt>
      <trkpt lat="44.27247" lon="5.65627">
        <ele>1259.7265625</ele>
        <time>2020-02-20T12:46:53Z</time>
      </trkpt>
      <trkpt lat="44.27243" lon="5.65624">
        <ele>1260.26171875</ele>
        <time>2020-02-20T12:47:05Z</time>
      </trkpt>
      <trkpt lat="44.27234" lon="5.65618">
        <ele>1261.28125</ele>
        <time>2020-02-20T12:47:16Z</time>
      </trkpt>
      <trkpt lat="44.2723" lon="5.65614">
        <ele>1261.3046875</ele>
        <time>2020-02-20T12:47:22Z</time>
      </trkpt>
      <trkpt lat="44.27225" lon="5.6561">
        <ele>1262</ele>
        <time>2020-02-20T12:47:33Z</time>
      </trkpt>
      <trkpt lat="44.27219" lon="5.65604">
        <ele>1262.25</ele>
        <time>2020-02-20T12:47:45Z</time>
      </trkpt>
      <trkpt lat="44.27218" lon="5.65603">
        <ele>1262.23828125</ele>
        <time>2020-02-20T12:47:58Z</time>
      </trkpt>
      <trkpt lat="44.27218" lon="5.65602">
        <ele>1262.19140625</ele>
        <time>2020-02-20T12:48:09Z</time>
      </trkpt>
      <trkpt lat="44.27217" lon="5.65602">
        <ele>1262.09765625</ele>
        <time>2020-02-20T12:48:28Z</time>
      </trkpt>
      <trkpt lat="44.27217" lon="5.65601">
        <ele>1262.125</ele>
        <time>2020-02-20T12:48:48Z</time>
      </trkpt>
      <trkpt lat="44.27217" lon="5.65601">
        <ele>1262.1484375</ele>
        <time>2020-02-20T12:48:50Z</time>
      </trkpt>
      <trkpt lat="44.27215" lon="5.65596">
        <ele>1261.12109375</ele>
        <time>2020-02-20T12:49:02Z</time>
      </trkpt>
      <trkpt lat="44.27212" lon="5.65592">
        <ele>1261.3046875</ele>
        <time>2020-02-20T12:49:13Z</time>
      </trkpt>
      <trkpt lat="44.27208" lon="5.65592">
        <ele>1262.515625</ele>
        <time>2020-02-20T12:49:22Z</time>
      </trkpt>
      <trkpt lat="44.27206" lon="5.65592">
        <ele>1263.234375</ele>
        <time>2020-02-20T12:49:36Z</time>
      </trkpt>
      <trkpt lat="44.27206" lon="5.65592">
        <ele>1263.22265625</ele>
        <time>2020-02-20T12:49:51Z</time>
      </trkpt>
      <trkpt lat="44.27202" lon="5.65591">
        <ele>1264.2890625</ele>
        <time>2020-02-20T12:50:04Z</time>
      </trkpt>
      <trkpt lat="44.27193" lon="5.65588">
        <ele>1266.25390625</ele>
        <time>2020-02-20T12:50:15Z</time>
      </trkpt>
      <trkpt lat="44.27187" lon="5.65588">
        <ele>1268.0078125</ele>
        <time>2020-02-20T12:50:25Z</time>
      </trkpt>
      <trkpt lat="44.27178" lon="5.65586">
        <ele>1269.41015625</ele>
        <time>2020-02-20T12:50:38Z</time>
      </trkpt>
      <trkpt lat="44.27171" lon="5.65581">
        <ele>1269.8359375</ele>
        <time>2020-02-20T12:50:46Z</time>
      </trkpt>
      <trkpt lat="44.27162" lon="5.65575">
        <ele>1270.71484375</ele>
        <time>2020-02-20T12:50:57Z</time>
      </trkpt>
      <trkpt lat="44.27154" lon="5.65573">
        <ele>1271.5546875</ele>
        <time>2020-02-20T12:51:06Z</time>
      </trkpt>
      <trkpt lat="44.27147" lon="5.65573">
        <ele>1272.59765625</ele>
        <time>2020-02-20T12:51:16Z</time>
      </trkpt>
      <trkpt lat="44.27144" lon="5.65573">
        <ele>1272.94921875</ele>
        <time>2020-02-20T12:51:28Z</time>
      </trkpt>
      <trkpt lat="44.27143" lon="5.65574">
        <ele>1273.19921875</ele>
        <time>2020-02-20T12:51:43Z</time>
      </trkpt>
      <trkpt lat="44.27141" lon="5.65576">
        <ele>1273.53125</ele>
        <time>2020-02-20T12:51:59Z</time>
      </trkpt>
      <trkpt lat="44.2714" lon="5.65576">
        <ele>1273.703125</ele>
        <time>2020-02-20T12:52:27Z</time>
      </trkpt>
      <trkpt lat="44.2714" lon="5.65576">
        <ele>1273.79296875</ele>
        <time>2020-02-20T12:52:51Z</time>
      </trkpt>
      <trkpt lat="44.2714" lon="5.65577">
        <ele>1273.8359375</ele>
        <time>2020-02-20T12:53:07Z</time>
      </trkpt>
      <trkpt lat="44.27139" lon="5.65577">
        <ele>1273.91015625</ele>
        <time>2020-02-20T12:53:28Z</time>
      </trkpt>
      <trkpt lat="44.27139" lon="5.65577">
        <ele>1273.96484375</ele>
        <time>2020-02-20T12:53:47Z</time>
      </trkpt>
      <trkpt lat="44.27139" lon="5.65576">
        <ele>1273.96484375</ele>
        <time>2020-02-20T12:54:07Z</time>
      </trkpt>
      <trkpt lat="44.27138" lon="5.65576">
        <ele>1273.95703125</ele>
        <time>2020-02-20T12:54:25Z</time>
      </trkpt>
      <trkpt lat="44.27138" lon="5.65576">
        <ele>1273.953125</ele>
        <time>2020-02-20T12:54:42Z</time>
      </trkpt>
      <trkpt lat="44.27138" lon="5.65576">
        <ele>1273.9609375</ele>
        <time>2020-02-20T12:55:02Z</time>
      </trkpt>
      <trkpt lat="44.27138" lon="5.65576">
        <ele>1273.9765625</ele>
        <time>2020-02-20T12:55:19Z</time>
      </trkpt>
      <trkpt lat="44.27138" lon="5.65576">
        <ele>1274.0078125</ele>
        <time>2020-02-20T12:55:36Z</time>
      </trkpt>
      <trkpt lat="44.27138" lon="5.65576">
        <ele>1274.00390625</ele>
        <time>2020-02-20T12:55:52Z</time>
      </trkpt>
      <trkpt lat="44.27138" lon="5.65576">
        <ele>1274.0625</ele>
        <time>2020-02-20T12:56:08Z</time>
      </trkpt>
      <trkpt lat="44.27138" lon="5.65577">
        <ele>1274.125</ele>
        <time>2020-02-20T12:56:22Z</time>
      </trkpt>
      <trkpt lat="44.27137" lon="5.65576">
        <ele>1274.140625</ele>
        <time>2020-02-20T12:56:38Z</time>
      </trkpt>
      <trkpt lat="44.27136" lon="5.65575">
        <ele>1274.16796875</ele>
        <time>2020-02-20T12:56:40Z</time>
      </trkpt>
      <trkpt lat="44.27132" lon="5.65574">
        <ele>1273.82421875</ele>
        <time>2020-02-20T12:56:50Z</time>
      </trkpt>
      <trkpt lat="44.2713" lon="5.65573">
        <ele>1273.625</ele>
        <time>2020-02-20T12:57:02Z</time>
      </trkpt>
      <trkpt lat="44.27128" lon="5.65569">
        <ele>1273.0625</ele>
        <time>2020-02-20T12:57:12Z</time>
      </trkpt>
      <trkpt lat="44.27126" lon="5.65568">
        <ele>1272.7421875</ele>
        <time>2020-02-20T12:57:23Z</time>
      </trkpt>
      <trkpt lat="44.2712" lon="5.65562">
        <ele>1271.859375</ele>
        <time>2020-02-20T12:57:33Z</time>
      </trkpt>
      <trkpt lat="44.27118" lon="5.65558">
        <ele>1271.5078125</ele>
        <time>2020-02-20T12:57:38Z</time>
      </trkpt>
      <trkpt lat="44.27113" lon="5.6555">
        <ele>1271.0234375</ele>
        <time>2020-02-20T12:57:47Z</time>
      </trkpt>
      <trkpt lat="44.27111" lon="5.65548">
        <ele>1270.984375</ele>
        <time>2020-02-20T12:57:49Z</time>
      </trkpt>
      <trkpt lat="44.27102" lon="5.65544">
        <ele>1270.98828125</ele>
        <time>2020-02-20T12:58:00Z</time>
      </trkpt>
      <trkpt lat="44.27099" lon="5.65542">
        <ele>1270.71875</ele>
        <time>2020-02-20T12:58:11Z</time>
      </trkpt>
      <trkpt lat="44.27093" lon="5.65536">
        <ele>1270.2734375</ele>
        <time>2020-02-20T12:58:20Z</time>
      </trkpt>
      <trkpt lat="44.27089" lon="5.65532">
        <ele>1270.13671875</ele>
        <time>2020-02-20T12:58:24Z</time>
      </trkpt>
      <trkpt lat="44.2708" lon="5.65523">
        <ele>1270.20703125</ele>
        <time>2020-02-20T12:58:35Z</time>
      </trkpt>
      <trkpt lat="44.27073" lon="5.65517">
        <ele>1269.71484375</ele>
        <time>2020-02-20T12:58:44Z</time>
      </trkpt>
      <trkpt lat="44.27065" lon="5.65513">
        <ele>1269.6015625</ele>
        <time>2020-02-20T12:58:52Z</time>
      </trkpt>
      <trkpt lat="44.27058" lon="5.65514">
        <ele>1269.4140625</ele>
        <time>2020-02-20T12:59:00Z</time>
      </trkpt>
      <trkpt lat="44.27052" lon="5.6551">
        <ele>1269.5390625</ele>
        <time>2020-02-20T12:59:06Z</time>
      </trkpt>
      <trkpt lat="44.27044" lon="5.65499">
        <ele>1270.25</ele>
        <time>2020-02-20T12:59:16Z</time>
      </trkpt>
      <trkpt lat="44.27042" lon="5.6549">
        <ele>1271.5</ele>
        <time>2020-02-20T12:59:24Z</time>
      </trkpt>
      <trkpt lat="44.27042" lon="5.65487">
        <ele>1271.3125</ele>
        <time>2020-02-20T12:59:26Z</time>
      </trkpt>
      <trkpt lat="44.2704" lon="5.65477">
        <ele>1269.78125</ele>
        <time>2020-02-20T12:59:36Z</time>
      </trkpt>
      <trkpt lat="44.2704" lon="5.65472">
        <ele>1268.96875</ele>
        <time>2020-02-20T12:59:45Z</time>
      </trkpt>
      <trkpt lat="44.2704" lon="5.65467">
        <ele>1268.1953125</ele>
        <time>2020-02-20T12:59:56Z</time>
      </trkpt>
      <trkpt lat="44.27038" lon="5.65461">
        <ele>1267.6171875</ele>
        <time>2020-02-20T13:00:05Z</time>
      </trkpt>
      <trkpt lat="44.27036" lon="5.65455">
        <ele>1266.79296875</ele>
        <time>2020-02-20T13:00:14Z</time>
      </trkpt>
      <trkpt lat="44.27035" lon="5.65445">
        <ele>1265.015625</ele>
        <time>2020-02-20T13:00:25Z</time>
      </trkpt>
      <trkpt lat="44.27034" lon="5.65433">
        <ele>1263.40234375</ele>
        <time>2020-02-20T13:00:36Z</time>
      </trkpt>
      <trkpt lat="44.27034" lon="5.65425">
        <ele>1261.1953125</ele>
        <time>2020-02-20T13:00:46Z</time>
      </trkpt>
      <trkpt lat="44.2703" lon="5.65417">
        <ele>1260.17578125</ele>
        <time>2020-02-20T13:00:58Z</time>
      </trkpt>
      <trkpt lat="44.27027" lon="5.65407">
        <ele>1258.60546875</ele>
        <time>2020-02-20T13:01:11Z</time>
      </trkpt>
      <trkpt lat="44.27026" lon="5.65397">
        <ele>1256.37890625</ele>
        <time>2020-02-20T13:01:22Z</time>
      </trkpt>
      <trkpt lat="44.27025" lon="5.65392">
        <ele>1255.5078125</ele>
        <time>2020-02-20T13:01:32Z</time>
      </trkpt>
      <trkpt lat="44.27021" lon="5.65383">
        <ele>1255.11328125</ele>
        <time>2020-02-20T13:01:42Z</time>
      </trkpt>
      <trkpt lat="44.27016" lon="5.65371">
        <ele>1254.609375</ele>
        <time>2020-02-20T13:01:54Z</time>
      </trkpt>
      <trkpt lat="44.27012" lon="5.6536">
        <ele>1254.14453125</ele>
        <time>2020-02-20T13:02:03Z</time>
      </trkpt>
      <trkpt lat="44.27007" lon="5.65348">
        <ele>1255.01171875</ele>
        <time>2020-02-20T13:02:13Z</time>
      </trkpt>
      <trkpt lat="44.27002" lon="5.6534">
        <ele>1256.5546875</ele>
        <time>2020-02-20T13:02:22Z</time>
      </trkpt>
      <trkpt lat="44.26996" lon="5.65333">
        <ele>1258.79296875</ele>
        <time>2020-02-20T13:02:32Z</time>
      </trkpt>
      <trkpt lat="44.26996" lon="5.65331">
        <ele>1258.578125</ele>
        <time>2020-02-20T13:02:36Z</time>
      </trkpt>
      <trkpt lat="44.26995" lon="5.65326">
        <ele>1258.20703125</ele>
        <time>2020-02-20T13:02:39Z</time>
      </trkpt>
      <trkpt lat="44.26991" lon="5.65312">
        <ele>1258.01953125</ele>
        <time>2020-02-20T13:02:50Z</time>
      </trkpt>
      <trkpt lat="44.26989" lon="5.65308">
        <ele>1258.3515625</ele>
        <time>2020-02-20T13:02:53Z</time>
      </trkpt>
      <trkpt lat="44.26986" lon="5.65297">
        <ele>1258.4609375</ele>
        <time>2020-02-20T13:03:03Z</time>
      </trkpt>
      <trkpt lat="44.26984" lon="5.65289">
        <ele>1258.78515625</ele>
        <time>2020-02-20T13:03:13Z</time>
      </trkpt>
      <trkpt lat="44.26981" lon="5.65282">
        <ele>1259.6640625</ele>
        <time>2020-02-20T13:03:21Z</time>
      </trkpt>
      <trkpt lat="44.26977" lon="5.65277">
        <ele>1261.02734375</ele>
        <time>2020-02-20T13:03:30Z</time>
      </trkpt>
      <trkpt lat="44.26971" lon="5.65267">
        <ele>1263.42578125</ele>
        <time>2020-02-20T13:03:41Z</time>
      </trkpt>
      <trkpt lat="44.26966" lon="5.65258">
        <ele>1265.15234375</ele>
        <time>2020-02-20T13:03:52Z</time>
      </trkpt>
      <trkpt lat="44.2696" lon="5.65247">
        <ele>1267.296875</ele>
        <time>2020-02-20T13:04:01Z</time>
      </trkpt>
      <trkpt lat="44.26959" lon="5.65239">
        <ele>1267.44140625</ele>
        <time>2020-02-20T13:04:13Z</time>
      </trkpt>
      <trkpt lat="44.26956" lon="5.65228">
        <ele>1267.875</ele>
        <time>2020-02-20T13:04:24Z</time>
      </trkpt>
      <trkpt lat="44.26954" lon="5.65221">
        <ele>1267.89453125</ele>
        <time>2020-02-20T13:04:31Z</time>
      </trkpt>
      <trkpt lat="44.26947" lon="5.65212">
        <ele>1270.57421875</ele>
        <time>2020-02-20T13:04:42Z</time>
      </trkpt>
      <trkpt lat="44.26946" lon="5.65199">
        <ele>1269.6171875</ele>
        <time>2020-02-20T13:04:53Z</time>
      </trkpt>
      <trkpt lat="44.26941" lon="5.65186">
        <ele>1270.51953125</ele>
        <time>2020-02-20T13:05:03Z</time>
      </trkpt>
      <trkpt lat="44.26938" lon="5.6518">
        <ele>1270.58984375</ele>
        <time>2020-02-20T13:05:15Z</time>
      </trkpt>
      <trkpt lat="44.26938" lon="5.65172">
        <ele>1269.87890625</ele>
        <time>2020-02-20T13:05:26Z</time>
      </trkpt>
      <trkpt lat="44.26934" lon="5.65162">
        <ele>1270.10546875</ele>
        <time>2020-02-20T13:05:37Z</time>
      </trkpt>
      <trkpt lat="44.26929" lon="5.65154">
        <ele>1270.8359375</ele>
        <time>2020-02-20T13:05:47Z</time>
      </trkpt>
      <trkpt lat="44.26927" lon="5.65147">
        <ele>1271.0703125</ele>
        <time>2020-02-20T13:05:55Z</time>
      </trkpt>
      <trkpt lat="44.26924" lon="5.65143">
        <ele>1271.875</ele>
        <time>2020-02-20T13:06:02Z</time>
      </trkpt>
      <trkpt lat="44.26921" lon="5.65137">
        <ele>1272.484375</ele>
        <time>2020-02-20T13:06:11Z</time>
      </trkpt>
      <trkpt lat="44.26915" lon="5.65134">
        <ele>1274.84765625</ele>
        <time>2020-02-20T13:06:22Z</time>
      </trkpt>
      <trkpt lat="44.2691" lon="5.65123">
        <ele>1275.8046875</ele>
        <time>2020-02-20T13:06:33Z</time>
      </trkpt>
      <trkpt lat="44.26906" lon="5.65116">
        <ele>1276.89453125</ele>
        <time>2020-02-20T13:06:43Z</time>
      </trkpt>
      <trkpt lat="44.26904" lon="5.65114">
        <ele>1277.359375</ele>
        <time>2020-02-20T13:06:58Z</time>
      </trkpt>
      <trkpt lat="44.26897" lon="5.65115">
        <ele>1279.8515625</ele>
        <time>2020-02-20T13:07:09Z</time>
      </trkpt>
      <trkpt lat="44.26891" lon="5.65114">
        <ele>1281.8046875</ele>
        <time>2020-02-20T13:07:16Z</time>
      </trkpt>
      <trkpt lat="44.26884" lon="5.65115">
        <ele>1283.9375</ele>
        <time>2020-02-20T13:07:27Z</time>
      </trkpt>
      <trkpt lat="44.26882" lon="5.65115">
        <ele>1284.18359375</ele>
        <time>2020-02-20T13:07:41Z</time>
      </trkpt>
      <trkpt lat="44.2688" lon="5.65113">
        <ele>1284.546875</ele>
        <time>2020-02-20T13:07:54Z</time>
      </trkpt>
      <trkpt lat="44.26878" lon="5.65112">
        <ele>1284.85546875</ele>
        <time>2020-02-20T13:08:09Z</time>
      </trkpt>
      <trkpt lat="44.26878" lon="5.65108">
        <ele>1284.95703125</ele>
        <time>2020-02-20T13:08:21Z</time>
      </trkpt>
      <trkpt lat="44.26876" lon="5.65106">
        <ele>1285.26953125</ele>
        <time>2020-02-20T13:08:25Z</time>
      </trkpt>
      <trkpt lat="44.26872" lon="5.65096">
        <ele>1286.125</ele>
        <time>2020-02-20T13:08:36Z</time>
      </trkpt>
      <trkpt lat="44.26869" lon="5.65092">
        <ele>1286.97265625</ele>
        <time>2020-02-20T13:08:46Z</time>
      </trkpt>
      <trkpt lat="44.26867" lon="5.65089">
        <ele>1287.38671875</ele>
        <time>2020-02-20T13:09:02Z</time>
      </trkpt>
      <trkpt lat="44.26863" lon="5.65081">
        <ele>1288.5234375</ele>
        <time>2020-02-20T13:09:13Z</time>
      </trkpt>
      <trkpt lat="44.26855" lon="5.65071">
        <ele>1290.41796875</ele>
        <time>2020-02-20T13:09:24Z</time>
      </trkpt>
      <trkpt lat="44.26851" lon="5.65072">
        <ele>1290.8359375</ele>
        <time>2020-02-20T13:09:30Z</time>
      </trkpt>
      <trkpt lat="44.26846" lon="5.65063">
        <ele>1291.8984375</ele>
        <time>2020-02-20T13:09:39Z</time>
      </trkpt>
      <trkpt lat="44.26843" lon="5.65055">
        <ele>1292.875</ele>
        <time>2020-02-20T13:09:50Z</time>
      </trkpt>
      <trkpt lat="44.26843" lon="5.65051">
        <ele>1293.3046875</ele>
        <time>2020-02-20T13:09:59Z</time>
      </trkpt>
      <trkpt lat="44.26841" lon="5.6504">
        <ele>1294.2734375</ele>
        <time>2020-02-20T13:10:11Z</time>
      </trkpt>
      <trkpt lat="44.26838" lon="5.65032">
        <ele>1295.07421875</ele>
        <time>2020-02-20T13:10:23Z</time>
      </trkpt>
      <trkpt lat="44.26838" lon="5.65029">
        <ele>1295.3046875</ele>
        <time>2020-02-20T13:10:34Z</time>
      </trkpt>
      <trkpt lat="44.26836" lon="5.65023">
        <ele>1296.0078125</ele>
        <time>2020-02-20T13:10:42Z</time>
      </trkpt>
      <trkpt lat="44.26834" lon="5.65015">
        <ele>1297.03125</ele>
        <time>2020-02-20T13:10:52Z</time>
      </trkpt>
      <trkpt lat="44.26835" lon="5.65007">
        <ele>1296.91796875</ele>
        <time>2020-02-20T13:11:02Z</time>
      </trkpt>
      <trkpt lat="44.26836" lon="5.65">
        <ele>1296.83984375</ele>
        <time>2020-02-20T13:11:15Z</time>
      </trkpt>
      <trkpt lat="44.26834" lon="5.64997">
        <ele>1297.3125</ele>
        <time>2020-02-20T13:11:29Z</time>
      </trkpt>
      <trkpt lat="44.26836" lon="5.64997">
        <ele>1296.81640625</ele>
        <time>2020-02-20T13:11:39Z</time>
      </trkpt>
      <trkpt lat="44.26839" lon="5.64993">
        <ele>1295.71484375</ele>
        <time>2020-02-20T13:11:47Z</time>
      </trkpt>
      <trkpt lat="44.26841" lon="5.64979">
        <ele>1294.6640625</ele>
        <time>2020-02-20T13:12:01Z</time>
      </trkpt>
      <trkpt lat="44.26846" lon="5.6497">
        <ele>1292.1796875</ele>
        <time>2020-02-20T13:12:14Z</time>
      </trkpt>
      <trkpt lat="44.26847" lon="5.64965">
        <ele>1291.25</ele>
        <time>2020-02-20T13:12:22Z</time>
      </trkpt>
      <trkpt lat="44.26847" lon="5.64948">
        <ele>1290.59375</ele>
        <time>2020-02-20T13:12:32Z</time>
      </trkpt>
      <trkpt lat="44.26849" lon="5.64937">
        <ele>1288.9765625</ele>
        <time>2020-02-20T13:12:43Z</time>
      </trkpt>
      <trkpt lat="44.26848" lon="5.64927">
        <ele>1288.45703125</ele>
        <time>2020-02-20T13:12:55Z</time>
      </trkpt>
      <trkpt lat="44.26847" lon="5.6492">
        <ele>1288.625</ele>
        <time>2020-02-20T13:13:04Z</time>
      </trkpt>
      <trkpt lat="44.26846" lon="5.64911">
        <ele>1288.68359375</ele>
        <time>2020-02-20T13:13:11Z</time>
      </trkpt>
      <trkpt lat="44.26842" lon="5.64902">
        <ele>1289.97265625</ele>
        <time>2020-02-20T13:13:22Z</time>
      </trkpt>
      <trkpt lat="44.26842" lon="5.64873">
        <ele>1289.0078125</ele>
        <time>2020-02-20T13:13:34Z</time>
      </trkpt>
      <trkpt lat="44.26844" lon="5.64868">
        <ele>1287.33203125</ele>
        <time>2020-02-20T13:13:40Z</time>
      </trkpt>
      <trkpt lat="44.26843" lon="5.6486">
        <ele>1287.45703125</ele>
        <time>2020-02-20T13:13:47Z</time>
      </trkpt>
      <trkpt lat="44.2684" lon="5.64846">
        <ele>1288.72265625</ele>
        <time>2020-02-20T13:13:59Z</time>
      </trkpt>
      <trkpt lat="44.26838" lon="5.64839">
        <ele>1289.83984375</ele>
        <time>2020-02-20T13:14:12Z</time>
      </trkpt>
      <trkpt lat="44.26837" lon="5.64835">
        <ele>1290.76953125</ele>
        <time>2020-02-20T13:14:26Z</time>
      </trkpt>
      <trkpt lat="44.26836" lon="5.64834">
        <ele>1291.109375</ele>
        <time>2020-02-20T13:14:44Z</time>
      </trkpt>
      <trkpt lat="44.26837" lon="5.64834">
        <ele>1290.61328125</ele>
        <time>2020-02-20T13:15:04Z</time>
      </trkpt>
      <trkpt lat="44.26839" lon="5.64829">
        <ele>1289.38671875</ele>
        <time>2020-02-20T13:15:16Z</time>
      </trkpt>
      <trkpt lat="44.2684" lon="5.64828">
        <ele>1288.58203125</ele>
        <time>2020-02-20T13:15:29Z</time>
      </trkpt>
      <trkpt lat="44.26842" lon="5.64827">
        <ele>1287.01171875</ele>
        <time>2020-02-20T13:15:42Z</time>
      </trkpt>
      <trkpt lat="44.26846" lon="5.64824">
        <ele>1284.390625</ele>
        <time>2020-02-20T13:15:54Z</time>
      </trkpt>
      <trkpt lat="44.26847" lon="5.64823">
        <ele>1283.87890625</ele>
        <time>2020-02-20T13:16:03Z</time>
      </trkpt>
      <trkpt lat="44.26847" lon="5.64823">
        <ele>1283.85546875</ele>
        <time>2020-02-20T13:16:04Z</time>
      </trkpt>
      <trkpt lat="44.26847" lon="5.64823">
        <ele>1283.796875</ele>
        <time>2020-02-20T13:16:08Z</time>
      </trkpt>
      <trkpt lat="44.26847" lon="5.64822">
        <ele>1283.69140625</ele>
        <time>2020-02-20T13:16:12Z</time>
      </trkpt>
      <trkpt lat="44.26847" lon="5.64822">
        <ele>1283.6796875</ele>
        <time>2020-02-20T13:16:13Z</time>
      </trkpt>
      <trkpt lat="44.26851" lon="5.64818">
        <ele>1281.2265625</ele>
        <time>2020-02-20T13:16:27Z</time>
      </trkpt>
      <trkpt lat="44.26861" lon="5.64806">
        <ele>1273.3046875</ele>
        <time>2020-02-20T13:16:38Z</time>
      </trkpt>
      <trkpt lat="44.26859" lon="5.64797">
        <ele>1274.33984375</ele>
        <time>2020-02-20T13:16:47Z</time>
      </trkpt>
      <trkpt lat="44.26859" lon="5.64783">
        <ele>1274.24609375</ele>
        <time>2020-02-20T13:16:58Z</time>
      </trkpt>
      <trkpt lat="44.26859" lon="5.64772">
        <ele>1273.7890625</ele>
        <time>2020-02-20T13:17:09Z</time>
      </trkpt>
      <trkpt lat="44.26856" lon="5.64763">
        <ele>1275.5390625</ele>
        <time>2020-02-20T13:17:18Z</time>
      </trkpt>
      <trkpt lat="44.26854" lon="5.64751">
        <ele>1276.1640625</ele>
        <time>2020-02-20T13:17:26Z</time>
      </trkpt>
      <trkpt lat="44.2685" lon="5.64744">
        <ele>1278.75390625</ele>
        <time>2020-02-20T13:17:33Z</time>
      </trkpt>
      <trkpt lat="44.26843" lon="5.64738">
        <ele>1283.71484375</ele>
        <time>2020-02-20T13:17:43Z</time>
      </trkpt>
      <trkpt lat="44.26837" lon="5.64737">
        <ele>1288.56640625</ele>
        <time>2020-02-20T13:17:55Z</time>
      </trkpt>
      <trkpt lat="44.26834" lon="5.64736">
        <ele>1291.3203125</ele>
        <time>2020-02-20T13:18:05Z</time>
      </trkpt>
      <trkpt lat="44.26827" lon="5.6473">
        <ele>1295.8359375</ele>
        <time>2020-02-20T13:18:15Z</time>
      </trkpt>
      <trkpt lat="44.2682" lon="5.64721">
        <ele>1300.05078125</ele>
        <time>2020-02-20T13:18:25Z</time>
      </trkpt>
      <trkpt lat="44.26816" lon="5.64723">
        <ele>1302.9375</ele>
        <time>2020-02-20T13:18:33Z</time>
      </trkpt>
      <trkpt lat="44.26814" lon="5.64714">
        <ele>1303.3671875</ele>
        <time>2020-02-20T13:18:43Z</time>
      </trkpt>
      <trkpt lat="44.26815" lon="5.64707">
        <ele>1301.28125</ele>
        <time>2020-02-20T13:18:55Z</time>
      </trkpt>
      <trkpt lat="44.26816" lon="5.64702">
        <ele>1300.2265625</ele>
        <time>2020-02-20T13:19:07Z</time>
      </trkpt>
      <trkpt lat="44.26816" lon="5.6469">
        <ele>1298.10546875</ele>
        <time>2020-02-20T13:19:18Z</time>
      </trkpt>
      <trkpt lat="44.26816" lon="5.64675">
        <ele>1296.2109375</ele>
        <time>2020-02-20T13:19:30Z</time>
      </trkpt>
      <trkpt lat="44.26816" lon="5.64664">
        <ele>1295.66015625</ele>
        <time>2020-02-20T13:19:41Z</time>
      </trkpt>
      <trkpt lat="44.26816" lon="5.64659">
        <ele>1294.83984375</ele>
        <time>2020-02-20T13:19:49Z</time>
      </trkpt>
      <trkpt lat="44.26813" lon="5.64654">
        <ele>1296.8515625</ele>
        <time>2020-02-20T13:19:56Z</time>
      </trkpt>
      <trkpt lat="44.26809" lon="5.64645">
        <ele>1298.5</ele>
        <time>2020-02-20T13:20:08Z</time>
      </trkpt>
      <trkpt lat="44.26807" lon="5.64645">
        <ele>1299.296875</ele>
        <time>2020-02-20T13:20:31Z</time>
      </trkpt>
      <trkpt lat="44.26808" lon="5.64638">
        <ele>1298.1328125</ele>
        <time>2020-02-20T13:20:42Z</time>
      </trkpt>
      <trkpt lat="44.26807" lon="5.64632">
        <ele>1297.96875</ele>
        <time>2020-02-20T13:20:50Z</time>
      </trkpt>
      <trkpt lat="44.26803" lon="5.64625">
        <ele>1299.76953125</ele>
        <time>2020-02-20T13:21:00Z</time>
      </trkpt>
      <trkpt lat="44.26799" lon="5.64617">
        <ele>1302.09375</ele>
        <time>2020-02-20T13:21:10Z</time>
      </trkpt>
      <trkpt lat="44.26797" lon="5.6461">
        <ele>1302.61328125</ele>
        <time>2020-02-20T13:21:18Z</time>
      </trkpt>
      <trkpt lat="44.26797" lon="5.64574">
        <ele>1303.078125</ele>
        <time>2020-02-20T13:21:34Z</time>
      </trkpt>
      <trkpt lat="44.268" lon="5.64568">
        <ele>1301.70703125</ele>
        <time>2020-02-20T13:21:44Z</time>
      </trkpt>
      <trkpt lat="44.26809" lon="5.64561">
        <ele>1298.25</ele>
        <time>2020-02-20T13:21:54Z</time>
      </trkpt>
      <trkpt lat="44.26819" lon="5.64547">
        <ele>1294.68359375</ele>
        <time>2020-02-20T13:22:09Z</time>
      </trkpt>
      <trkpt lat="44.26821" lon="5.64541">
        <ele>1293.9375</ele>
        <time>2020-02-20T13:22:21Z</time>
      </trkpt>
      <trkpt lat="44.26821" lon="5.64543">
        <ele>1294.25</ele>
        <time>2020-02-20T13:22:37Z</time>
      </trkpt>
      <trkpt lat="44.26823" lon="5.64538">
        <ele>1293.3828125</ele>
        <time>2020-02-20T13:22:48Z</time>
      </trkpt>
      <trkpt lat="44.26826" lon="5.64524">
        <ele>1291.7265625</ele>
        <time>2020-02-20T13:23:00Z</time>
      </trkpt>
      <trkpt lat="44.26833" lon="5.64515">
        <ele>1288.91015625</ele>
        <time>2020-02-20T13:23:10Z</time>
      </trkpt>
      <trkpt lat="44.26832" lon="5.64513">
        <ele>1288.88671875</ele>
        <time>2020-02-20T13:23:21Z</time>
      </trkpt>
      <trkpt lat="44.26832" lon="5.645">
        <ele>1288.01171875</ele>
        <time>2020-02-20T13:23:31Z</time>
      </trkpt>
      <trkpt lat="44.26836" lon="5.64485">
        <ele>1285.41015625</ele>
        <time>2020-02-20T13:23:42Z</time>
      </trkpt>
      <trkpt lat="44.26837" lon="5.64479">
        <ele>1284.5703125</ele>
        <time>2020-02-20T13:23:52Z</time>
      </trkpt>
      <trkpt lat="44.26835" lon="5.64468">
        <ele>1284.44921875</ele>
        <time>2020-02-20T13:24:03Z</time>
      </trkpt>
      <trkpt lat="44.26834" lon="5.64467">
        <ele>1284.84375</ele>
        <time>2020-02-20T13:24:15Z</time>
      </trkpt>
      <trkpt lat="44.2683" lon="5.64463">
        <ele>1286.234375</ele>
        <time>2020-02-20T13:24:26Z</time>
      </trkpt>
      <trkpt lat="44.26828" lon="5.64462">
        <ele>1287.15234375</ele>
        <time>2020-02-20T13:24:37Z</time>
      </trkpt>
      <trkpt lat="44.26826" lon="5.64457">
        <ele>1287.4453125</ele>
        <time>2020-02-20T13:24:48Z</time>
      </trkpt>
      <trkpt lat="44.26826" lon="5.64455">
        <ele>1287.1484375</ele>
        <time>2020-02-20T13:25:00Z</time>
      </trkpt>
      <trkpt lat="44.26825" lon="5.64454">
        <ele>1287.40625</ele>
        <time>2020-02-20T13:25:10Z</time>
      </trkpt>
      <trkpt lat="44.26816" lon="5.64445">
        <ele>1290.05078125</ele>
        <time>2020-02-20T13:25:23Z</time>
      </trkpt>
      <trkpt lat="44.2681" lon="5.64433">
        <ele>1291.3203125</ele>
        <time>2020-02-20T13:25:34Z</time>
      </trkpt>
      <trkpt lat="44.26807" lon="5.64427">
        <ele>1291.89453125</ele>
        <time>2020-02-20T13:25:42Z</time>
      </trkpt>
      <trkpt lat="44.26804" lon="5.64417">
        <ele>1292.25</ele>
        <time>2020-02-20T13:25:52Z</time>
      </trkpt>
      <trkpt lat="44.26801" lon="5.64409">
        <ele>1292.265625</ele>
        <time>2020-02-20T13:26:02Z</time>
      </trkpt>
      <trkpt lat="44.26797" lon="5.644">
        <ele>1292.3359375</ele>
        <time>2020-02-20T13:26:12Z</time>
      </trkpt>
      <trkpt lat="44.2679" lon="5.64394">
        <ele>1293.80078125</ele>
        <time>2020-02-20T13:26:23Z</time>
      </trkpt>
      <trkpt lat="44.26786" lon="5.64383">
        <ele>1293.3984375</ele>
        <time>2020-02-20T13:26:33Z</time>
      </trkpt>
      <trkpt lat="44.26784" lon="5.64377">
        <ele>1293.19921875</ele>
        <time>2020-02-20T13:26:37Z</time>
      </trkpt>
      <trkpt lat="44.2678" lon="5.6436">
        <ele>1291.01953125</ele>
        <time>2020-02-20T13:26:49Z</time>
      </trkpt>
      <trkpt lat="44.26773" lon="5.64347">
        <ele>1290.98828125</ele>
        <time>2020-02-20T13:26:58Z</time>
      </trkpt>
      <trkpt lat="44.26768" lon="5.64333">
        <ele>1289.60546875</ele>
        <time>2020-02-20T13:27:08Z</time>
      </trkpt>
      <trkpt lat="44.26764" lon="5.64317">
        <ele>1287.31640625</ele>
        <time>2020-02-20T13:27:19Z</time>
      </trkpt>
      <trkpt lat="44.26756" lon="5.64309">
        <ele>1288.16015625</ele>
        <time>2020-02-20T13:27:30Z</time>
      </trkpt>
      <trkpt lat="44.26755" lon="5.64308">
        <ele>1288.078125</ele>
        <time>2020-02-20T13:27:32Z</time>
      </trkpt>
      <trkpt lat="44.26753" lon="5.64305">
        <ele>1288.0546875</ele>
        <time>2020-02-20T13:27:34Z</time>
      </trkpt>
      <trkpt lat="44.26746" lon="5.64294">
        <ele>1288.1484375</ele>
        <time>2020-02-20T13:27:47Z</time>
      </trkpt>
      <trkpt lat="44.26745" lon="5.64283">
        <ele>1285.67578125</ele>
        <time>2020-02-20T13:27:56Z</time>
      </trkpt>
      <trkpt lat="44.26745" lon="5.6428">
        <ele>1285.17578125</ele>
        <time>2020-02-20T13:27:58Z</time>
      </trkpt>
      <trkpt lat="44.26744" lon="5.64268">
        <ele>1282.390625</ele>
        <time>2020-02-20T13:28:08Z</time>
      </trkpt>
      <trkpt lat="44.26747" lon="5.64239">
        <ele>1276.07421875</ele>
        <time>2020-02-20T13:28:20Z</time>
      </trkpt>
      <trkpt lat="44.26746" lon="5.64222">
        <ele>1274.0390625</ele>
        <time>2020-02-20T13:28:32Z</time>
      </trkpt>
      <trkpt lat="44.2675" lon="5.64212">
        <ele>1270.90234375</ele>
        <time>2020-02-20T13:28:42Z</time>
      </trkpt>
      <trkpt lat="44.26749" lon="5.64205">
        <ele>1271.4140625</ele>
        <time>2020-02-20T13:28:52Z</time>
      </trkpt>
      <trkpt lat="44.26745" lon="5.64196">
        <ele>1274.1171875</ele>
        <time>2020-02-20T13:29:03Z</time>
      </trkpt>
      <trkpt lat="44.26741" lon="5.64182">
        <ele>1277.0234375</ele>
        <time>2020-02-20T13:29:13Z</time>
      </trkpt>
      <trkpt lat="44.26738" lon="5.64174">
        <ele>1279.01171875</ele>
        <time>2020-02-20T13:29:25Z</time>
      </trkpt>
      <trkpt lat="44.26733" lon="5.64164">
        <ele>1282.09375</ele>
        <time>2020-02-20T13:29:35Z</time>
      </trkpt>
      <trkpt lat="44.26727" lon="5.64159">
        <ele>1286.13671875</ele>
        <time>2020-02-20T13:29:46Z</time>
      </trkpt>
      <trkpt lat="44.26723" lon="5.64152">
        <ele>1288.5078125</ele>
        <time>2020-02-20T13:29:55Z</time>
      </trkpt>
      <trkpt lat="44.2672" lon="5.64143">
        <ele>1290.41015625</ele>
        <time>2020-02-20T13:30:05Z</time>
      </trkpt>
      <trkpt lat="44.26717" lon="5.64131">
        <ele>1291.54296875</ele>
        <time>2020-02-20T13:30:14Z</time>
      </trkpt>
      <trkpt lat="44.26716" lon="5.64109">
        <ele>1289.8203125</ele>
        <time>2020-02-20T13:30:24Z</time>
      </trkpt>
      <trkpt lat="44.26711" lon="5.64095">
        <ele>1290.39453125</ele>
        <time>2020-02-20T13:30:34Z</time>
      </trkpt>
      <trkpt lat="44.26705" lon="5.6409">
        <ele>1292.2578125</ele>
        <time>2020-02-20T13:30:44Z</time>
      </trkpt>
      <trkpt lat="44.26698" lon="5.64092">
        <ele>1296.0390625</ele>
        <time>2020-02-20T13:30:56Z</time>
      </trkpt>
      <trkpt lat="44.26695" lon="5.64091">
        <ele>1297.171875</ele>
        <time>2020-02-20T13:31:05Z</time>
      </trkpt>
      <trkpt lat="44.26694" lon="5.6409">
        <ele>1297.71875</ele>
        <time>2020-02-20T13:31:07Z</time>
      </trkpt>
      <trkpt lat="44.26684" lon="5.64084">
        <ele>1300.85546875</ele>
        <time>2020-02-20T13:31:20Z</time>
      </trkpt>
      <trkpt lat="44.26677" lon="5.6408">
        <ele>1302.8515625</ele>
        <time>2020-02-20T13:31:30Z</time>
      </trkpt>
      <trkpt lat="44.26674" lon="5.64076">
        <ele>1303.31640625</ele>
        <time>2020-02-20T13:31:36Z</time>
      </trkpt>
      <trkpt lat="44.26663" lon="5.64065">
        <ele>1305.203125</ele>
        <time>2020-02-20T13:31:44Z</time>
      </trkpt>
      <trkpt lat="44.2665" lon="5.64052">
        <ele>1306.5546875</ele>
        <time>2020-02-20T13:31:57Z</time>
      </trkpt>
      <trkpt lat="44.26643" lon="5.6403">
        <ele>1303.31640625</ele>
        <time>2020-02-20T13:32:08Z</time>
      </trkpt>
      <trkpt lat="44.26641" lon="5.64013">
        <ele>1299.40234375</ele>
        <time>2020-02-20T13:32:18Z</time>
      </trkpt>
      <trkpt lat="44.26641" lon="5.63998">
        <ele>1295.515625</ele>
        <time>2020-02-20T13:32:29Z</time>
      </trkpt>
      <trkpt lat="44.26638" lon="5.6399">
        <ele>1294.4140625</ele>
        <time>2020-02-20T13:32:39Z</time>
      </trkpt>
      <trkpt lat="44.26638" lon="5.63985">
        <ele>1293.40234375</ele>
        <time>2020-02-20T13:32:49Z</time>
      </trkpt>
      <trkpt lat="44.26639" lon="5.63981">
        <ele>1292.01953125</ele>
        <time>2020-02-20T13:33:00Z</time>
      </trkpt>
      <trkpt lat="44.2664" lon="5.6398">
        <ele>1291.28125</ele>
        <time>2020-02-20T13:33:12Z</time>
      </trkpt>
      <trkpt lat="44.2664" lon="5.63979">
        <ele>1291.0078125</ele>
        <time>2020-02-20T13:33:29Z</time>
      </trkpt>
      <trkpt lat="44.26639" lon="5.63977">
        <ele>1291.01953125</ele>
        <time>2020-02-20T13:33:41Z</time>
      </trkpt>
      <trkpt lat="44.26638" lon="5.63976">
        <ele>1291.18359375</ele>
        <time>2020-02-20T13:34:07Z</time>
      </trkpt>
      <trkpt lat="44.26639" lon="5.63975">
        <ele>1290.73828125</ele>
        <time>2020-02-20T13:34:27Z</time>
      </trkpt>
      <trkpt lat="44.26639" lon="5.63974">
        <ele>1290.32421875</ele>
        <time>2020-02-20T13:34:45Z</time>
      </trkpt>
      <trkpt lat="44.26638" lon="5.63972">
        <ele>1290.3515625</ele>
        <time>2020-02-20T13:35:03Z</time>
      </trkpt>
      <trkpt lat="44.26637" lon="5.6397">
        <ele>1290.4609375</ele>
        <time>2020-02-20T13:35:18Z</time>
      </trkpt>
      <trkpt lat="44.26637" lon="5.6397">
        <ele>1290.44921875</ele>
        <time>2020-02-20T13:35:28Z</time>
      </trkpt>
      <trkpt lat="44.26637" lon="5.6397">
        <ele>1290.4921875</ele>
        <time>2020-02-20T13:35:44Z</time>
      </trkpt>
      <trkpt lat="44.26636" lon="5.6397">
        <ele>1290.8125</ele>
        <time>2020-02-20T13:35:57Z</time>
      </trkpt>
      <trkpt lat="44.26636" lon="5.6397">
        <ele>1290.9453125</ele>
        <time>2020-02-20T13:36:15Z</time>
      </trkpt>
      <trkpt lat="44.26636" lon="5.6397">
        <ele>1290.85546875</ele>
        <time>2020-02-20T13:36:35Z</time>
      </trkpt>
      <trkpt lat="44.26636" lon="5.6397">
        <ele>1290.84765625</ele>
        <time>2020-02-20T13:36:51Z</time>
      </trkpt>
      <trkpt lat="44.26636" lon="5.6397">
        <ele>1290.85546875</ele>
        <time>2020-02-20T13:37:10Z</time>
      </trkpt>
      <trkpt lat="44.26636" lon="5.6397">
        <ele>1290.9140625</ele>
        <time>2020-02-20T13:37:28Z</time>
      </trkpt>
      <trkpt lat="44.26636" lon="5.6397">
        <ele>1290.734375</ele>
        <time>2020-02-20T13:37:49Z</time>
      </trkpt>
      <trkpt lat="44.26636" lon="5.6397">
        <ele>1290.73828125</ele>
        <time>2020-02-20T13:37:50Z</time>
      </trkpt>
      <trkpt lat="44.26636" lon="5.63969">
        <ele>1290.59765625</ele>
        <time>2020-02-20T13:37:51Z</time>
      </trkpt>
      <trkpt lat="44.26636" lon="5.63969">
        <ele>1290.625</ele>
        <time>2020-02-20T13:37:53Z</time>
      </trkpt>
      <trkpt lat="44.26636" lon="5.63969">
        <ele>1290.6015625</ele>
        <time>2020-02-20T13:37:55Z</time>
      </trkpt>
      <trkpt lat="44.26636" lon="5.63969">
        <ele>1290.58984375</ele>
        <time>2020-02-20T13:37:56Z</time>
      </trkpt>
      <trkpt lat="44.26636" lon="5.63969">
        <ele>1290.58984375</ele>
        <time>2020-02-20T13:37:57Z</time>
      </trkpt>
      <trkpt lat="44.26636" lon="5.63969">
        <ele>1290.57421875</ele>
        <time>2020-02-20T13:37:58Z</time>
      </trkpt>
      <trkpt lat="44.26636" lon="5.63969">
        <ele>1290.55859375</ele>
        <time>2020-02-20T13:37:59Z</time>
      </trkpt>
      <trkpt lat="44.26636" lon="5.63969">
        <ele>1290.49609375</ele>
        <time>2020-02-20T13:38:00Z</time>
      </trkpt>
      <trkpt lat="44.26636" lon="5.63969">
        <ele>1290.61328125</ele>
        <time>2020-02-20T13:38:06Z</time>
      </trkpt>
      <trkpt lat="44.26636" lon="5.63969">
        <ele>1290.62109375</ele>
        <time>2020-02-20T13:38:07Z</time>
      </trkpt>
      <trkpt lat="44.26636" lon="5.63969">
        <ele>1290.58203125</ele>
        <time>2020-02-20T13:38:11Z</time>
      </trkpt>
      <trkpt lat="44.26636" lon="5.63969">
        <ele>1290.53515625</ele>
        <time>2020-02-20T13:38:12Z</time>
      </trkpt>
      <trkpt lat="44.26636" lon="5.63969">
        <ele>1290.484375</ele>
        <time>2020-02-20T13:38:13Z</time>
      </trkpt>
      <trkpt lat="44.26636" lon="5.63969">
        <ele>1290.421875</ele>
        <time>2020-02-20T13:38:14Z</time>
      </trkpt>
      <trkpt lat="44.26637" lon="5.63969">
        <ele>1290.3515625</ele>
        <time>2020-02-20T13:38:15Z</time>
      </trkpt>
      <trkpt lat="44.26637" lon="5.63969">
        <ele>1290.30859375</ele>
        <time>2020-02-20T13:38:16Z</time>
      </trkpt>
      <trkpt lat="44.26637" lon="5.63969">
        <ele>1290.26171875</ele>
        <time>2020-02-20T13:38:17Z</time>
      </trkpt>
      <trkpt lat="44.26637" lon="5.63969">
        <ele>1290.21875</ele>
        <time>2020-02-20T13:38:18Z</time>
      </trkpt>
      <trkpt lat="44.26637" lon="5.63968">
        <ele>1290.1015625</ele>
        <time>2020-02-20T13:38:34Z</time>
      </trkpt>
      <trkpt lat="44.26634" lon="5.63969">
        <ele>1291.24609375</ele>
        <time>2020-02-20T13:38:45Z</time>
      </trkpt>
      <trkpt lat="44.26632" lon="5.6397">
        <ele>1292.2734375</ele>
        <time>2020-02-20T13:38:59Z</time>
      </trkpt>
      <trkpt lat="44.26627" lon="5.6397">
        <ele>1293.86328125</ele>
        <time>2020-02-20T13:39:11Z</time>
      </trkpt>
      <trkpt lat="44.26619" lon="5.63974">
        <ele>1297.37109375</ele>
        <time>2020-02-20T13:39:22Z</time>
      </trkpt>
      <trkpt lat="44.26616" lon="5.63977">
        <ele>1299.1953125</ele>
        <time>2020-02-20T13:39:31Z</time>
      </trkpt>
      <trkpt lat="44.26607" lon="5.63981">
        <ele>1302.98046875</ele>
        <time>2020-02-20T13:39:41Z</time>
      </trkpt>
      <trkpt lat="44.26605" lon="5.63982">
        <ele>1303.36328125</ele>
        <time>2020-02-20T13:39:44Z</time>
      </trkpt>
      <trkpt lat="44.26603" lon="5.63983">
        <ele>1303.71484375</ele>
        <time>2020-02-20T13:39:46Z</time>
      </trkpt>
      <trkpt lat="44.26589" lon="5.63991">
        <ele>1306.640625</ele>
        <time>2020-02-20T13:39:58Z</time>
      </trkpt>
      <trkpt lat="44.26583" lon="5.63992">
        <ele>1307.55859375</ele>
        <time>2020-02-20T13:40:06Z</time>
      </trkpt>
      <trkpt lat="44.26571" lon="5.63986">
        <ele>1307.21875</ele>
        <time>2020-02-20T13:40:17Z</time>
      </trkpt>
      <trkpt lat="44.26565" lon="5.63983">
        <ele>1306.7578125</ele>
        <time>2020-02-20T13:40:29Z</time>
      </trkpt>
      <trkpt lat="44.26564" lon="5.63982">
        <ele>1306.6640625</ele>
        <time>2020-02-20T13:40:31Z</time>
      </trkpt>
      <trkpt lat="44.26555" lon="5.63972">
        <ele>1304.6875</ele>
        <time>2020-02-20T13:40:41Z</time>
      </trkpt>
      <trkpt lat="44.26552" lon="5.63967">
        <ele>1303.68359375</ele>
        <time>2020-02-20T13:40:44Z</time>
      </trkpt>
      <trkpt lat="44.26547" lon="5.63962">
        <ele>1302.4921875</ele>
        <time>2020-02-20T13:40:53Z</time>
      </trkpt>
      <trkpt lat="44.26539" lon="5.63959">
        <ele>1302.56640625</ele>
        <time>2020-02-20T13:41:04Z</time>
      </trkpt>
      <trkpt lat="44.26534" lon="5.63955">
        <ele>1301.9375</ele>
        <time>2020-02-20T13:41:15Z</time>
      </trkpt>
      <trkpt lat="44.26527" lon="5.63946">
        <ele>1299.55078125</ele>
        <time>2020-02-20T13:41:26Z</time>
      </trkpt>
      <trkpt lat="44.26527" lon="5.63944">
        <ele>1299.19921875</ele>
        <time>2020-02-20T13:41:27Z</time>
      </trkpt>
      <trkpt lat="44.26522" lon="5.6394">
        <ele>1298.41015625</ele>
        <time>2020-02-20T13:41:32Z</time>
      </trkpt>
      <trkpt lat="44.26519" lon="5.63926">
        <ele>1294.8671875</ele>
        <time>2020-02-20T13:41:37Z</time>
      </trkpt>
      <trkpt lat="44.26511" lon="5.63907">
        <ele>1290.921875</ele>
        <time>2020-02-20T13:41:49Z</time>
      </trkpt>
      <trkpt lat="44.26505" lon="5.63888">
        <ele>1286.40234375</ele>
        <time>2020-02-20T13:42:00Z</time>
      </trkpt>
      <trkpt lat="44.26502" lon="5.63875">
        <ele>1283.66796875</ele>
        <time>2020-02-20T13:42:09Z</time>
      </trkpt>
      <trkpt lat="44.26501" lon="5.6387">
        <ele>1282.515625</ele>
        <time>2020-02-20T13:42:15Z</time>
      </trkpt>
      <trkpt lat="44.26501" lon="5.63857">
        <ele>1278.7265625</ele>
        <time>2020-02-20T13:42:25Z</time>
      </trkpt>
      <trkpt lat="44.26496" lon="5.63844">
        <ele>1276.6484375</ele>
        <time>2020-02-20T13:42:36Z</time>
      </trkpt>
      <trkpt lat="44.26492" lon="5.63831">
        <ele>1275.375</ele>
        <time>2020-02-20T13:42:46Z</time>
      </trkpt>
      <trkpt lat="44.26489" lon="5.63821">
        <ele>1273.92578125</ele>
        <time>2020-02-20T13:42:55Z</time>
      </trkpt>
      <trkpt lat="44.26486" lon="5.63813">
        <ele>1273.37890625</ele>
        <time>2020-02-20T13:43:06Z</time>
      </trkpt>
      <trkpt lat="44.26483" lon="5.63802">
        <ele>1271.890625</ele>
        <time>2020-02-20T13:43:16Z</time>
      </trkpt>
      <trkpt lat="44.26482" lon="5.63797">
        <ele>1271.203125</ele>
        <time>2020-02-20T13:43:19Z</time>
      </trkpt>
      <trkpt lat="44.26482" lon="5.63794">
        <ele>1270.4453125</ele>
        <time>2020-02-20T13:43:21Z</time>
      </trkpt>
      <trkpt lat="44.26479" lon="5.63779">
        <ele>1268.34765625</ele>
        <time>2020-02-20T13:43:32Z</time>
      </trkpt>
      <trkpt lat="44.26475" lon="5.63769">
        <ele>1268.0703125</ele>
        <time>2020-02-20T13:43:40Z</time>
      </trkpt>
      <trkpt lat="44.26472" lon="5.63758">
        <ele>1266.91796875</ele>
        <time>2020-02-20T13:43:48Z</time>
      </trkpt>
      <trkpt lat="44.26471" lon="5.63748">
        <ele>1265.27734375</ele>
        <time>2020-02-20T13:43:53Z</time>
      </trkpt>
      <trkpt lat="44.26469" lon="5.63725">
        <ele>1261.00390625</ele>
        <time>2020-02-20T13:44:05Z</time>
      </trkpt>
      <trkpt lat="44.26468" lon="5.6371">
        <ele>1258.16796875</ele>
        <time>2020-02-20T13:44:16Z</time>
      </trkpt>
      <trkpt lat="44.26466" lon="5.63701">
        <ele>1256.734375</ele>
        <time>2020-02-20T13:44:23Z</time>
      </trkpt>
      <trkpt lat="44.26461" lon="5.6369">
        <ele>1255.8984375</ele>
        <time>2020-02-20T13:44:33Z</time>
      </trkpt>
      <trkpt lat="44.26456" lon="5.63683">
        <ele>1255.76953125</ele>
        <time>2020-02-20T13:44:41Z</time>
      </trkpt>
      <trkpt lat="44.26448" lon="5.63679">
        <ele>1257.3515625</ele>
        <time>2020-02-20T13:44:50Z</time>
      </trkpt>
      <trkpt lat="44.26445" lon="5.63677">
        <ele>1257.84765625</ele>
        <time>2020-02-20T13:44:52Z</time>
      </trkpt>
      <trkpt lat="44.26437" lon="5.63676">
        <ele>1260.19921875</ele>
        <time>2020-02-20T13:45:00Z</time>
      </trkpt>
      <trkpt lat="44.26428" lon="5.63675">
        <ele>1263.328125</ele>
        <time>2020-02-20T13:45:11Z</time>
      </trkpt>
      <trkpt lat="44.26421" lon="5.63668">
        <ele>1263.2890625</ele>
        <time>2020-02-20T13:45:20Z</time>
      </trkpt>
      <trkpt lat="44.26417" lon="5.63659">
        <ele>1261.79296875</ele>
        <time>2020-02-20T13:45:32Z</time>
      </trkpt>
      <trkpt lat="44.26422" lon="5.63649">
        <ele>1257.3359375</ele>
        <time>2020-02-20T13:45:43Z</time>
      </trkpt>
      <trkpt lat="44.2643" lon="5.63649">
        <ele>1254.79296875</ele>
        <time>2020-02-20T13:45:55Z</time>
      </trkpt>
      <trkpt lat="44.26439" lon="5.63646">
        <ele>1251.125</ele>
        <time>2020-02-20T13:46:05Z</time>
      </trkpt>
      <trkpt lat="44.26444" lon="5.63643">
        <ele>1249.0859375</ele>
        <time>2020-02-20T13:46:15Z</time>
      </trkpt>
      <trkpt lat="44.26445" lon="5.63633">
        <ele>1245.96875</ele>
        <time>2020-02-20T13:46:25Z</time>
      </trkpt>
      <trkpt lat="44.26441" lon="5.63632">
        <ele>1246.8203125</ele>
        <time>2020-02-20T13:46:34Z</time>
      </trkpt>
      <trkpt lat="44.26435" lon="5.63628">
        <ele>1247.8828125</ele>
        <time>2020-02-20T13:46:42Z</time>
      </trkpt>
      <trkpt lat="44.26425" lon="5.63625">
        <ele>1249.734375</ele>
        <time>2020-02-20T13:46:54Z</time>
      </trkpt>
      <trkpt lat="44.26419" lon="5.63616">
        <ele>1248.734375</ele>
        <time>2020-02-20T13:47:05Z</time>
      </trkpt>
      <trkpt lat="44.26412" lon="5.63606">
        <ele>1246.97265625</ele>
        <time>2020-02-20T13:47:15Z</time>
      </trkpt>
      <trkpt lat="44.26405" lon="5.63599">
        <ele>1245.921875</ele>
        <time>2020-02-20T13:47:24Z</time>
      </trkpt>
      <trkpt lat="44.264" lon="5.63593">
        <ele>1244.76953125</ele>
        <time>2020-02-20T13:47:32Z</time>
      </trkpt>
      <trkpt lat="44.26394" lon="5.63587">
        <ele>1243.78515625</ele>
        <time>2020-02-20T13:47:42Z</time>
      </trkpt>
      <trkpt lat="44.26389" lon="5.63578">
        <ele>1241.21875</ele>
        <time>2020-02-20T13:47:51Z</time>
      </trkpt>
      <trkpt lat="44.26382" lon="5.63572">
        <ele>1240.546875</ele>
        <time>2020-02-20T13:48:01Z</time>
      </trkpt>
      <trkpt lat="44.26374" lon="5.63561">
        <ele>1238.8125</ele>
        <time>2020-02-20T13:48:13Z</time>
      </trkpt>
      <trkpt lat="44.26369" lon="5.63553">
        <ele>1237.046875</ele>
        <time>2020-02-20T13:48:26Z</time>
      </trkpt>
      <trkpt lat="44.26365" lon="5.63543">
        <ele>1234.28125</ele>
        <time>2020-02-20T13:48:34Z</time>
      </trkpt>
      <trkpt lat="44.26358" lon="5.63533">
        <ele>1232.2578125</ele>
        <time>2020-02-20T13:48:45Z</time>
      </trkpt>
      <trkpt lat="44.26352" lon="5.63524">
        <ele>1230.42578125</ele>
        <time>2020-02-20T13:48:56Z</time>
      </trkpt>
      <trkpt lat="44.26352" lon="5.63519">
        <ele>1228.66796875</ele>
        <time>2020-02-20T13:49:08Z</time>
      </trkpt>
      <trkpt lat="44.26347" lon="5.63513">
        <ele>1227.8203125</ele>
        <time>2020-02-20T13:49:22Z</time>
      </trkpt>
      <trkpt lat="44.26341" lon="5.63502">
        <ele>1225.96875</ele>
        <time>2020-02-20T13:49:34Z</time>
      </trkpt>
      <trkpt lat="44.2634" lon="5.63502">
        <ele>1226.03515625</ele>
        <time>2020-02-20T13:49:35Z</time>
      </trkpt>
      <trkpt lat="44.26338" lon="5.635">
        <ele>1225.65234375</ele>
        <time>2020-02-20T13:49:37Z</time>
      </trkpt>
      <trkpt lat="44.2633" lon="5.63487">
        <ele>1223.05859375</ele>
        <time>2020-02-20T13:49:49Z</time>
      </trkpt>
      <trkpt lat="44.26323" lon="5.63474">
        <ele>1222.328125</ele>
        <time>2020-02-20T13:50:00Z</time>
      </trkpt>
      <trkpt lat="44.26319" lon="5.63467">
        <ele>1221.89453125</ele>
        <time>2020-02-20T13:50:08Z</time>
      </trkpt>
      <trkpt lat="44.26313" lon="5.63457">
        <ele>1221.55859375</ele>
        <time>2020-02-20T13:50:18Z</time>
      </trkpt>
      <trkpt lat="44.26311" lon="5.63452">
        <ele>1220.80078125</ele>
        <time>2020-02-20T13:50:22Z</time>
      </trkpt>
      <trkpt lat="44.2631" lon="5.6345">
        <ele>1220.6640625</ele>
        <time>2020-02-20T13:50:24Z</time>
      </trkpt>
      <trkpt lat="44.26304" lon="5.63429">
        <ele>1216.69921875</ele>
        <time>2020-02-20T13:50:37Z</time>
      </trkpt>
      <trkpt lat="44.26301" lon="5.63416">
        <ele>1214.34765625</ele>
        <time>2020-02-20T13:50:47Z</time>
      </trkpt>
      <trkpt lat="44.263" lon="5.63405">
        <ele>1211.41015625</ele>
        <time>2020-02-20T13:50:55Z</time>
      </trkpt>
      <trkpt lat="44.26298" lon="5.63392">
        <ele>1208.3828125</ele>
        <time>2020-02-20T13:51:04Z</time>
      </trkpt>
      <trkpt lat="44.26295" lon="5.63381">
        <ele>1206.98046875</ele>
        <time>2020-02-20T13:51:15Z</time>
      </trkpt>
      <trkpt lat="44.26291" lon="5.63368">
        <ele>1205.8203125</ele>
        <time>2020-02-20T13:51:24Z</time>
      </trkpt>
      <trkpt lat="44.26289" lon="5.63354">
        <ele>1202.7421875</ele>
        <time>2020-02-20T13:51:34Z</time>
      </trkpt>
      <trkpt lat="44.26285" lon="5.63339">
        <ele>1200.91796875</ele>
        <time>2020-02-20T13:51:45Z</time>
      </trkpt>
      <trkpt lat="44.26279" lon="5.63325">
        <ele>1199.50390625</ele>
        <time>2020-02-20T13:51:56Z</time>
      </trkpt>
      <trkpt lat="44.26277" lon="5.63313">
        <ele>1197.94921875</ele>
        <time>2020-02-20T13:52:06Z</time>
      </trkpt>
      <trkpt lat="44.26276" lon="5.63302">
        <ele>1196.234375</ele>
        <time>2020-02-20T13:52:16Z</time>
      </trkpt>
      <trkpt lat="44.26277" lon="5.63293">
        <ele>1193.71484375</ele>
        <time>2020-02-20T13:52:27Z</time>
      </trkpt>
      <trkpt lat="44.26279" lon="5.63282">
        <ele>1189.46484375</ele>
        <time>2020-02-20T13:52:37Z</time>
      </trkpt>
      <trkpt lat="44.26278" lon="5.63269">
        <ele>1186.890625</ele>
        <time>2020-02-20T13:52:46Z</time>
      </trkpt>
      <trkpt lat="44.26279" lon="5.63257">
        <ele>1184.45703125</ele>
        <time>2020-02-20T13:52:56Z</time>
      </trkpt>
      <trkpt lat="44.26281" lon="5.63245">
        <ele>1181.47265625</ele>
        <time>2020-02-20T13:53:05Z</time>
      </trkpt>
      <trkpt lat="44.26282" lon="5.63231">
        <ele>1178.66015625</ele>
        <time>2020-02-20T13:53:17Z</time>
      </trkpt>
      <trkpt lat="44.2628" lon="5.63221">
        <ele>1178.234375</ele>
        <time>2020-02-20T13:53:26Z</time>
      </trkpt>
      <trkpt lat="44.26277" lon="5.63212">
        <ele>1178.109375</ele>
        <time>2020-02-20T13:53:34Z</time>
      </trkpt>
      <trkpt lat="44.26275" lon="5.63205">
        <ele>1178.10546875</ele>
        <time>2020-02-20T13:53:43Z</time>
      </trkpt>
      <trkpt lat="44.26276" lon="5.63191">
        <ele>1175.78515625</ele>
        <time>2020-02-20T13:53:54Z</time>
      </trkpt>
      <trkpt lat="44.26275" lon="5.63188">
        <ele>1175.82421875</ele>
        <time>2020-02-20T13:54:07Z</time>
      </trkpt>
      <trkpt lat="44.26273" lon="5.63184">
        <ele>1176.09765625</ele>
        <time>2020-02-20T13:54:21Z</time>
      </trkpt>
      <trkpt lat="44.2627" lon="5.63169">
        <ele>1176.22265625</ele>
        <time>2020-02-20T13:54:31Z</time>
      </trkpt>
      <trkpt lat="44.26263" lon="5.63145">
        <ele>1177.609375</ele>
        <time>2020-02-20T13:54:43Z</time>
      </trkpt>
      <trkpt lat="44.26261" lon="5.63138">
        <ele>1177.93359375</ele>
        <time>2020-02-20T13:54:48Z</time>
      </trkpt>
      <trkpt lat="44.26265" lon="5.63121">
        <ele>1175.86328125</ele>
        <time>2020-02-20T13:55:00Z</time>
      </trkpt>
      <trkpt lat="44.2627" lon="5.63108">
        <ele>1173.28125</ele>
        <time>2020-02-20T13:55:12Z</time>
      </trkpt>
      <trkpt lat="44.26274" lon="5.63097">
        <ele>1171.2734375</ele>
        <time>2020-02-20T13:55:21Z</time>
      </trkpt>
      <trkpt lat="44.26279" lon="5.63089">
        <ele>1169.39453125</ele>
        <time>2020-02-20T13:55:28Z</time>
      </trkpt>
      <trkpt lat="44.26283" lon="5.63074">
        <ele>1167.12109375</ele>
        <time>2020-02-20T13:55:40Z</time>
      </trkpt>
      <trkpt lat="44.26285" lon="5.63067">
        <ele>1166.09375</ele>
        <time>2020-02-20T13:55:46Z</time>
      </trkpt>
      <trkpt lat="44.26286" lon="5.63064">
        <ele>1165.81640625</ele>
        <time>2020-02-20T13:55:48Z</time>
      </trkpt>
      <trkpt lat="44.26288" lon="5.63045">
        <ele>1164.3828125</ele>
        <time>2020-02-20T13:56:00Z</time>
      </trkpt>
      <trkpt lat="44.26283" lon="5.63029">
        <ele>1165.75390625</ele>
        <time>2020-02-20T13:56:12Z</time>
      </trkpt>
      <trkpt lat="44.26279" lon="5.63013">
        <ele>1166.4140625</ele>
        <time>2020-02-20T13:56:23Z</time>
      </trkpt>
      <trkpt lat="44.26276" lon="5.63001">
        <ele>1166.96875</ele>
        <time>2020-02-20T13:56:34Z</time>
      </trkpt>
      <trkpt lat="44.26276" lon="5.62997">
        <ele>1166.921875</ele>
        <time>2020-02-20T13:56:37Z</time>
      </trkpt>
      <trkpt lat="44.26274" lon="5.62988">
        <ele>1167.71875</ele>
        <time>2020-02-20T13:56:45Z</time>
      </trkpt>
      <trkpt lat="44.26274" lon="5.62971">
        <ele>1166.93359375</ele>
        <time>2020-02-20T13:56:54Z</time>
      </trkpt>
      <trkpt lat="44.26275" lon="5.62956">
        <ele>1165.83984375</ele>
        <time>2020-02-20T13:57:00Z</time>
      </trkpt>
      <trkpt lat="44.26282" lon="5.62937">
        <ele>1161.7734375</ele>
        <time>2020-02-20T13:57:12Z</time>
      </trkpt>
      <trkpt lat="44.26295" lon="5.62922">
        <ele>1157.69921875</ele>
        <time>2020-02-20T13:57:25Z</time>
      </trkpt>
      <trkpt lat="44.26303" lon="5.62907">
        <ele>1155.95703125</ele>
        <time>2020-02-20T13:57:36Z</time>
      </trkpt>
      <trkpt lat="44.26306" lon="5.62896">
        <ele>1155.1015625</ele>
        <time>2020-02-20T13:57:44Z</time>
      </trkpt>
      <trkpt lat="44.26305" lon="5.62885">
        <ele>1155.2734375</ele>
        <time>2020-02-20T13:57:52Z</time>
      </trkpt>
      <trkpt lat="44.26302" lon="5.6287">
        <ele>1156.3671875</ele>
        <time>2020-02-20T13:58:02Z</time>
      </trkpt>
      <trkpt lat="44.26301" lon="5.62863">
        <ele>1156.5859375</ele>
        <time>2020-02-20T13:58:07Z</time>
      </trkpt>
      <trkpt lat="44.26299" lon="5.62851">
        <ele>1157.12890625</ele>
        <time>2020-02-20T13:58:15Z</time>
      </trkpt>
      <trkpt lat="44.26298" lon="5.62843">
        <ele>1156.98828125</ele>
        <time>2020-02-20T13:58:20Z</time>
      </trkpt>
      <trkpt lat="44.26297" lon="5.62827">
        <ele>1156.2890625</ele>
        <time>2020-02-20T13:58:30Z</time>
      </trkpt>
      <trkpt lat="44.26297" lon="5.6281">
        <ele>1154.85546875</ele>
        <time>2020-02-20T13:58:42Z</time>
      </trkpt>
      <trkpt lat="44.26296" lon="5.62794">
        <ele>1153.8515625</ele>
        <time>2020-02-20T13:58:52Z</time>
      </trkpt>
      <trkpt lat="44.26292" lon="5.62779">
        <ele>1153.69140625</ele>
        <time>2020-02-20T13:59:04Z</time>
      </trkpt>
      <trkpt lat="44.26292" lon="5.62777">
        <ele>1153.31640625</ele>
        <time>2020-02-20T13:59:06Z</time>
      </trkpt>
      <trkpt lat="44.26293" lon="5.62772">
        <ele>1152.64453125</ele>
        <time>2020-02-20T13:59:09Z</time>
      </trkpt>
      <trkpt lat="44.26292" lon="5.62752">
        <ele>1151.3203125</ele>
        <time>2020-02-20T13:59:21Z</time>
      </trkpt>
      <trkpt lat="44.26289" lon="5.6274">
        <ele>1151.60546875</ele>
        <time>2020-02-20T13:59:30Z</time>
      </trkpt>
      <trkpt lat="44.26287" lon="5.62736">
        <ele>1152.01953125</ele>
        <time>2020-02-20T13:59:33Z</time>
      </trkpt>
      <trkpt lat="44.26287" lon="5.62731">
        <ele>1152.1953125</ele>
        <time>2020-02-20T13:59:36Z</time>
      </trkpt>
      <trkpt lat="44.26284" lon="5.62713">
        <ele>1152.8671875</ele>
        <time>2020-02-20T13:59:47Z</time>
      </trkpt>
      <trkpt lat="44.26282" lon="5.627">
        <ele>1152.98046875</ele>
        <time>2020-02-20T13:59:56Z</time>
      </trkpt>
      <trkpt lat="44.26279" lon="5.62682">
        <ele>1153.32421875</ele>
        <time>2020-02-20T14:00:10Z</time>
      </trkpt>
      <trkpt lat="44.26277" lon="5.62664">
        <ele>1152.8125</ele>
        <time>2020-02-20T14:00:22Z</time>
      </trkpt>
      <trkpt lat="44.26277" lon="5.6266">
        <ele>1152.5390625</ele>
        <time>2020-02-20T14:00:24Z</time>
      </trkpt>
      <trkpt lat="44.26275" lon="5.62648">
        <ele>1153.01171875</ele>
        <time>2020-02-20T14:00:35Z</time>
      </trkpt>
      <trkpt lat="44.26273" lon="5.62642">
        <ele>1153.328125</ele>
        <time>2020-02-20T14:00:39Z</time>
      </trkpt>
      <trkpt lat="44.2627" lon="5.62628">
        <ele>1154.01171875</ele>
        <time>2020-02-20T14:00:50Z</time>
      </trkpt>
      <trkpt lat="44.26269" lon="5.62623">
        <ele>1154.390625</ele>
        <time>2020-02-20T14:00:53Z</time>
      </trkpt>
      <trkpt lat="44.26267" lon="5.62619">
        <ele>1154.94921875</ele>
        <time>2020-02-20T14:00:57Z</time>
      </trkpt>
      <trkpt lat="44.26265" lon="5.62613">
        <ele>1155.2109375</ele>
        <time>2020-02-20T14:01:01Z</time>
      </trkpt>
      <trkpt lat="44.26262" lon="5.62599">
        <ele>1155.59375</ele>
        <time>2020-02-20T14:01:12Z</time>
      </trkpt>
      <trkpt lat="44.26263" lon="5.62587">
        <ele>1153.99609375</ele>
        <time>2020-02-20T14:01:18Z</time>
      </trkpt>
      <trkpt lat="44.26265" lon="5.62579">
        <ele>1152.63671875</ele>
        <time>2020-02-20T14:01:22Z</time>
      </trkpt>
      <trkpt lat="44.26268" lon="5.62566">
        <ele>1150.48046875</ele>
        <time>2020-02-20T14:01:32Z</time>
      </trkpt>
      <trkpt lat="44.26268" lon="5.62563">
        <ele>1150.45703125</ele>
        <time>2020-02-20T14:01:34Z</time>
      </trkpt>
      <trkpt lat="44.26269" lon="5.62547">
        <ele>1149.3515625</ele>
        <time>2020-02-20T14:01:45Z</time>
      </trkpt>
      <trkpt lat="44.26271" lon="5.6253">
        <ele>1148.34375</ele>
        <time>2020-02-20T14:01:56Z</time>
      </trkpt>
      <trkpt lat="44.26273" lon="5.62512">
        <ele>1146.9296875</ele>
        <time>2020-02-20T14:02:06Z</time>
      </trkpt>
      <trkpt lat="44.26272" lon="5.62494">
        <ele>1146.828125</ele>
        <time>2020-02-20T14:02:17Z</time>
      </trkpt>
      <trkpt lat="44.26271" lon="5.62488">
        <ele>1146.9765625</ele>
        <time>2020-02-20T14:02:21Z</time>
      </trkpt>
      <trkpt lat="44.26267" lon="5.62477">
        <ele>1148.578125</ele>
        <time>2020-02-20T14:02:30Z</time>
      </trkpt>
      <trkpt lat="44.26267" lon="5.62474">
        <ele>1148.48828125</ele>
        <time>2020-02-20T14:02:32Z</time>
      </trkpt>
      <trkpt lat="44.26263" lon="5.62456">
        <ele>1150.15625</ele>
        <time>2020-02-20T14:02:43Z</time>
      </trkpt>
      <trkpt lat="44.2626" lon="5.62444">
        <ele>1150.99609375</ele>
        <time>2020-02-20T14:02:53Z</time>
      </trkpt>
      <trkpt lat="44.26258" lon="5.62435">
        <ele>1151.640625</ele>
        <time>2020-02-20T14:03:01Z</time>
      </trkpt>
      <trkpt lat="44.26257" lon="5.62426">
        <ele>1152.01171875</ele>
        <time>2020-02-20T14:03:07Z</time>
      </trkpt>
      <trkpt lat="44.26256" lon="5.62413">
        <ele>1151.875</ele>
        <time>2020-02-20T14:03:17Z</time>
      </trkpt>
      <trkpt lat="44.26253" lon="5.62398">
        <ele>1153.1015625</ele>
        <time>2020-02-20T14:03:29Z</time>
      </trkpt>
      <trkpt lat="44.26252" lon="5.62386">
        <ele>1153.203125</ele>
        <time>2020-02-20T14:03:38Z</time>
      </trkpt>
      <trkpt lat="44.26251" lon="5.62376">
        <ele>1153.2421875</ele>
        <time>2020-02-20T14:03:47Z</time>
      </trkpt>
      <trkpt lat="44.26251" lon="5.6236">
        <ele>1152.58203125</ele>
        <time>2020-02-20T14:03:57Z</time>
      </trkpt>
      <trkpt lat="44.26251" lon="5.62354">
        <ele>1152.62890625</ele>
        <time>2020-02-20T14:04:01Z</time>
      </trkpt>
      <trkpt lat="44.2625" lon="5.62333">
        <ele>1152.1484375</ele>
        <time>2020-02-20T14:04:12Z</time>
      </trkpt>
      <trkpt lat="44.26249" lon="5.62319">
        <ele>1152.2578125</ele>
        <time>2020-02-20T14:04:21Z</time>
      </trkpt>
      <trkpt lat="44.26248" lon="5.62313">
        <ele>1152.4453125</ele>
        <time>2020-02-20T14:04:25Z</time>
      </trkpt>
      <trkpt lat="44.26247" lon="5.62309">
        <ele>1152.53125</ele>
        <time>2020-02-20T14:04:28Z</time>
      </trkpt>
      <trkpt lat="44.26246" lon="5.62291">
        <ele>1152.61328125</ele>
        <time>2020-02-20T14:04:40Z</time>
      </trkpt>
      <trkpt lat="44.26243" lon="5.62276">
        <ele>1153.7265625</ele>
        <time>2020-02-20T14:04:52Z</time>
      </trkpt>
      <trkpt lat="44.26242" lon="5.62273">
        <ele>1153.9453125</ele>
        <time>2020-02-20T14:04:54Z</time>
      </trkpt>
      <trkpt lat="44.2624" lon="5.62255">
        <ele>1153.98046875</ele>
        <time>2020-02-20T14:05:07Z</time>
      </trkpt>
      <trkpt lat="44.26239" lon="5.62238">
        <ele>1153.65625</ele>
        <time>2020-02-20T14:05:19Z</time>
      </trkpt>
      <trkpt lat="44.26239" lon="5.62232">
        <ele>1153.51171875</ele>
        <time>2020-02-20T14:05:24Z</time>
      </trkpt>
      <trkpt lat="44.26239" lon="5.62222">
        <ele>1153.28125</ele>
        <time>2020-02-20T14:05:32Z</time>
      </trkpt>
      <trkpt lat="44.2624" lon="5.62211">
        <ele>1152.9296875</ele>
        <time>2020-02-20T14:05:42Z</time>
      </trkpt>
      <trkpt lat="44.26239" lon="5.6221">
        <ele>1153.0234375</ele>
        <time>2020-02-20T14:05:56Z</time>
      </trkpt>
      <trkpt lat="44.26239" lon="5.6221">
        <ele>1152.9609375</ele>
        <time>2020-02-20T14:06:06Z</time>
      </trkpt>
      <trkpt lat="44.26239" lon="5.6221">
        <ele>1152.921875</ele>
        <time>2020-02-20T14:06:21Z</time>
      </trkpt>
      <trkpt lat="44.26239" lon="5.62211">
        <ele>1152.9921875</ele>
        <time>2020-02-20T14:06:38Z</time>
      </trkpt>
      <trkpt lat="44.26239" lon="5.62208">
        <ele>1152.9765625</ele>
        <time>2020-02-20T14:06:49Z</time>
      </trkpt>
      <trkpt lat="44.26238" lon="5.62203">
        <ele>1152.84765625</ele>
        <time>2020-02-20T14:06:57Z</time>
      </trkpt>
      <trkpt lat="44.26238" lon="5.62203">
        <ele>1152.90625</ele>
        <time>2020-02-20T14:07:12Z</time>
      </trkpt>
      <trkpt lat="44.26238" lon="5.62203">
        <ele>1152.80078125</ele>
        <time>2020-02-20T14:07:24Z</time>
      </trkpt>
      <trkpt lat="44.26237" lon="5.62201">
        <ele>1152.953125</ele>
        <time>2020-02-20T14:07:39Z</time>
      </trkpt>
      <trkpt lat="44.26237" lon="5.62204">
        <ele>1153.26953125</ele>
        <time>2020-02-20T14:07:47Z</time>
      </trkpt>
      <trkpt lat="44.26237" lon="5.62204">
        <ele>1153.30078125</ele>
        <time>2020-02-20T14:08:04Z</time>
      </trkpt>
      <trkpt lat="44.26237" lon="5.62205">
        <ele>1153.33984375</ele>
        <time>2020-02-20T14:08:23Z</time>
      </trkpt>
      <trkpt lat="44.26237" lon="5.62207">
        <ele>1153.44921875</ele>
        <time>2020-02-20T14:08:35Z</time>
      </trkpt>
      <trkpt lat="44.26237" lon="5.62207">
        <ele>1153.44921875</ele>
        <time>2020-02-20T14:08:47Z</time>
      </trkpt>
      <trkpt lat="44.26237" lon="5.62206">
        <ele>1153.234375</ele>
        <time>2020-02-20T14:09:05Z</time>
      </trkpt>
      <trkpt lat="44.26237" lon="5.62206">
        <ele>1153.29296875</ele>
        <time>2020-02-20T14:09:21Z</time>
      </trkpt>
      <trkpt lat="44.26238" lon="5.62209">
        <ele>1153.3125</ele>
        <time>2020-02-20T14:09:30Z</time>
      </trkpt>
      <trkpt lat="44.26237" lon="5.62209">
        <ele>1153.3515625</ele>
        <time>2020-02-20T14:09:44Z</time>
      </trkpt>
      <trkpt lat="44.26237" lon="5.62209">
        <ele>1153.51171875</ele>
        <time>2020-02-20T14:10:02Z</time>
      </trkpt>
      <trkpt lat="44.26237" lon="5.62209">
        <ele>1153.53515625</ele>
        <time>2020-02-20T14:10:27Z</time>
      </trkpt>
      <trkpt lat="44.26237" lon="5.62208">
        <ele>1153.44140625</ele>
        <time>2020-02-20T14:10:47Z</time>
      </trkpt>
      <trkpt lat="44.26237" lon="5.62208">
        <ele>1153.45703125</ele>
        <time>2020-02-20T14:10:57Z</time>
      </trkpt>
      <trkpt lat="44.26238" lon="5.62208">
        <ele>1153.23828125</ele>
        <time>2020-02-20T14:11:06Z</time>
      </trkpt>
      <trkpt lat="44.26238" lon="5.62208">
        <ele>1153.1796875</ele>
        <time>2020-02-20T14:11:21Z</time>
      </trkpt>
      <trkpt lat="44.26238" lon="5.62207">
        <ele>1153.12890625</ele>
        <time>2020-02-20T14:11:35Z</time>
      </trkpt>
      <trkpt lat="44.26238" lon="5.62207">
        <ele>1153.1484375</ele>
        <time>2020-02-20T14:11:52Z</time>
      </trkpt>
      <trkpt lat="44.26238" lon="5.62207">
        <ele>1153.11328125</ele>
        <time>2020-02-20T14:12:11Z</time>
      </trkpt>
      <trkpt lat="44.26238" lon="5.62205">
        <ele>1153.09375</ele>
        <time>2020-02-20T14:12:22Z</time>
      </trkpt>
      <trkpt lat="44.26238" lon="5.62202">
        <ele>1152.8828125</ele>
        <time>2020-02-20T14:12:34Z</time>
      </trkpt>
      <trkpt lat="44.26238" lon="5.62202">
        <ele>1152.875</ele>
        <time>2020-02-20T14:12:55Z</time>
      </trkpt>
      <trkpt lat="44.26238" lon="5.62202">
        <ele>1152.96484375</ele>
        <time>2020-02-20T14:13:10Z</time>
      </trkpt>
      <trkpt lat="44.26237" lon="5.62201">
        <ele>1153</ele>
        <time>2020-02-20T14:13:26Z</time>
      </trkpt>
      <trkpt lat="44.26238" lon="5.62201">
        <ele>1152.91796875</ele>
        <time>2020-02-20T14:13:47Z</time>
      </trkpt>
      <trkpt lat="44.26237" lon="5.62201">
        <ele>1152.9609375</ele>
        <time>2020-02-20T14:14:01Z</time>
      </trkpt>
      <trkpt lat="44.26237" lon="5.62201">
        <ele>1153.0234375</ele>
        <time>2020-02-20T14:14:21Z</time>
      </trkpt>
      <trkpt lat="44.26237" lon="5.62201">
        <ele>1152.9609375</ele>
        <time>2020-02-20T14:14:37Z</time>
      </trkpt>
      <trkpt lat="44.26237" lon="5.62201">
        <ele>1153.06640625</ele>
        <time>2020-02-20T14:14:52Z</time>
      </trkpt>
      <trkpt lat="44.26239" lon="5.62208">
        <ele>1152.98046875</ele>
        <time>2020-02-20T14:15:02Z</time>
      </trkpt>
      <trkpt lat="44.26234" lon="5.62221">
        <ele>1154.59375</ele>
        <time>2020-02-20T14:15:13Z</time>
      </trkpt>
      <trkpt lat="44.26231" lon="5.62224">
        <ele>1155.71875</ele>
        <time>2020-02-20T14:15:26Z</time>
      </trkpt>
      <trkpt lat="44.26229" lon="5.62225">
        <ele>1156.28125</ele>
        <time>2020-02-20T14:15:28Z</time>
      </trkpt>
      <trkpt lat="44.26219" lon="5.62226">
        <ele>1159.04296875</ele>
        <time>2020-02-20T14:15:39Z</time>
      </trkpt>
      <trkpt lat="44.26215" lon="5.62225">
        <ele>1160.10546875</ele>
        <time>2020-02-20T14:15:43Z</time>
      </trkpt>
      <trkpt lat="44.26214" lon="5.62221">
        <ele>1160.3203125</ele>
        <time>2020-02-20T14:15:46Z</time>
      </trkpt>
      <trkpt lat="44.26207" lon="5.62218">
        <ele>1161.73046875</ele>
        <time>2020-02-20T14:15:55Z</time>
      </trkpt>
      <trkpt lat="44.26204" lon="5.62216">
        <ele>1162.40234375</ele>
        <time>2020-02-20T14:15:59Z</time>
      </trkpt>
      <trkpt lat="44.26201" lon="5.62216">
        <ele>1163.03515625</ele>
        <time>2020-02-20T14:16:02Z</time>
      </trkpt>
      <trkpt lat="44.26194" lon="5.6221">
        <ele>1164.05078125</ele>
        <time>2020-02-20T14:16:10Z</time>
      </trkpt>
      <trkpt lat="44.26191" lon="5.62209">
        <ele>1164.80078125</ele>
        <time>2020-02-20T14:16:13Z</time>
      </trkpt>
      <trkpt lat="44.2618" lon="5.62205">
        <ele>1167.62890625</ele>
        <time>2020-02-20T14:16:24Z</time>
      </trkpt>
      <trkpt lat="44.26178" lon="5.62204">
        <ele>1168.3046875</ele>
        <time>2020-02-20T14:16:27Z</time>
      </trkpt>
      <trkpt lat="44.2617" lon="5.62201">
        <ele>1170.22265625</ele>
        <time>2020-02-20T14:16:36Z</time>
      </trkpt>
      <trkpt lat="44.26158" lon="5.62199">
        <ele>1173.5625</ele>
        <time>2020-02-20T14:16:47Z</time>
      </trkpt>
      <trkpt lat="44.26157" lon="5.62198">
        <ele>1173.60546875</ele>
        <time>2020-02-20T14:16:48Z</time>
      </trkpt>
      <trkpt lat="44.26149" lon="5.62192">
        <ele>1174.9921875</ele>
        <time>2020-02-20T14:16:56Z</time>
      </trkpt>
      <trkpt lat="44.26137" lon="5.62181">
        <ele>1175.44921875</ele>
        <time>2020-02-20T14:17:07Z</time>
      </trkpt>
      <trkpt lat="44.26129" lon="5.6217">
        <ele>1175.484375</ele>
        <time>2020-02-20T14:17:17Z</time>
      </trkpt>
      <trkpt lat="44.26124" lon="5.62165">
        <ele>1175.84375</ele>
        <time>2020-02-20T14:17:23Z</time>
      </trkpt>
      <trkpt lat="44.26116" lon="5.62156">
        <ele>1175.73828125</ele>
        <time>2020-02-20T14:17:31Z</time>
      </trkpt>
      <trkpt lat="44.26111" lon="5.62151">
        <ele>1176.09375</ele>
        <time>2020-02-20T14:17:37Z</time>
      </trkpt>
      <trkpt lat="44.26108" lon="5.62146">
        <ele>1175.34375</ele>
        <time>2020-02-20T14:17:41Z</time>
      </trkpt>
      <trkpt lat="44.26103" lon="5.62136">
        <ele>1173.15625</ele>
        <time>2020-02-20T14:17:51Z</time>
      </trkpt>
      <trkpt lat="44.26105" lon="5.62131">
        <ele>1171.015625</ele>
        <time>2020-02-20T14:17:55Z</time>
      </trkpt>
      <trkpt lat="44.26104" lon="5.62129">
        <ele>1170.8359375</ele>
        <time>2020-02-20T14:17:57Z</time>
      </trkpt>
      <trkpt lat="44.261" lon="5.62129">
        <ele>1171.484375</ele>
        <time>2020-02-20T14:18:02Z</time>
      </trkpt>
      <trkpt lat="44.26098" lon="5.62129">
        <ele>1171.609375</ele>
        <time>2020-02-20T14:18:04Z</time>
      </trkpt>
      <trkpt lat="44.2609" lon="5.62133">
        <ele>1174.3515625</ele>
        <time>2020-02-20T14:18:15Z</time>
      </trkpt>
      <trkpt lat="44.26082" lon="5.6214">
        <ele>1178.29296875</ele>
        <time>2020-02-20T14:18:26Z</time>
      </trkpt>
      <trkpt lat="44.26076" lon="5.62147">
        <ele>1180.8828125</ele>
        <time>2020-02-20T14:18:36Z</time>
      </trkpt>
      <trkpt lat="44.2607" lon="5.62154">
        <ele>1183.0078125</ele>
        <time>2020-02-20T14:18:47Z</time>
      </trkpt>
      <trkpt lat="44.26064" lon="5.62159">
        <ele>1184.40234375</ele>
        <time>2020-02-20T14:18:57Z</time>
      </trkpt>
      <trkpt lat="44.26058" lon="5.62161">
        <ele>1184.7578125</ele>
        <time>2020-02-20T14:19:07Z</time>
      </trkpt>
      <trkpt lat="44.26054" lon="5.62162">
        <ele>1184.7890625</ele>
        <time>2020-02-20T14:19:16Z</time>
      </trkpt>
      <trkpt lat="44.26054" lon="5.62161">
        <ele>1184.68359375</ele>
        <time>2020-02-20T14:19:26Z</time>
      </trkpt>
      <trkpt lat="44.26054" lon="5.62161">
        <ele>1184.65625</ele>
        <time>2020-02-20T14:19:39Z</time>
      </trkpt>
      <trkpt lat="44.26054" lon="5.6216">
        <ele>1184.42578125</ele>
        <time>2020-02-20T14:19:52Z</time>
      </trkpt>
      <trkpt lat="44.26054" lon="5.62158">
        <ele>1184.0390625</ele>
        <time>2020-02-20T14:20:01Z</time>
      </trkpt>
      <trkpt lat="44.26055" lon="5.6216">
        <ele>1184.4453125</ele>
        <time>2020-02-20T14:20:13Z</time>
      </trkpt>
      <trkpt lat="44.26056" lon="5.62164">
        <ele>1185.17578125</ele>
        <time>2020-02-20T14:20:16Z</time>
      </trkpt>
      <trkpt lat="44.26057" lon="5.62176">
        <ele>1187.5703125</ele>
        <time>2020-02-20T14:20:26Z</time>
      </trkpt>
      <trkpt lat="44.26057" lon="5.6218">
        <ele>1188.38671875</ele>
        <time>2020-02-20T14:20:29Z</time>
      </trkpt>
      <trkpt lat="44.26056" lon="5.62191">
        <ele>1189.7265625</ele>
        <time>2020-02-20T14:20:37Z</time>
      </trkpt>
      <trkpt lat="44.26053" lon="5.62205">
        <ele>1190.22265625</ele>
        <time>2020-02-20T14:20:45Z</time>
      </trkpt>
      <trkpt lat="44.26051" lon="5.62218">
        <ele>1190.23046875</ele>
        <time>2020-02-20T14:20:53Z</time>
      </trkpt>
      <trkpt lat="44.26053" lon="5.62237">
        <ele>1191.5546875</ele>
        <time>2020-02-20T14:21:05Z</time>
      </trkpt>
      <trkpt lat="44.26054" lon="5.62258">
        <ele>1192.68359375</ele>
        <time>2020-02-20T14:21:17Z</time>
      </trkpt>
      <trkpt lat="44.26054" lon="5.6227">
        <ele>1193.4375</ele>
        <time>2020-02-20T14:21:25Z</time>
      </trkpt>
      <trkpt lat="44.26053" lon="5.62279">
        <ele>1193.83203125</ele>
        <time>2020-02-20T14:21:30Z</time>
      </trkpt>
      <trkpt lat="44.26051" lon="5.62305">
        <ele>1194.921875</ele>
        <time>2020-02-20T14:21:44Z</time>
      </trkpt>
      <trkpt lat="44.26048" lon="5.62317">
        <ele>1194.9140625</ele>
        <time>2020-02-20T14:21:51Z</time>
      </trkpt>
      <trkpt lat="44.26046" lon="5.62337">
        <ele>1196.11328125</ele>
        <time>2020-02-20T14:22:04Z</time>
      </trkpt>
      <trkpt lat="44.26045" lon="5.62341">
        <ele>1195.97265625</ele>
        <time>2020-02-20T14:22:07Z</time>
      </trkpt>
      <trkpt lat="44.26037" lon="5.62356">
        <ele>1194.57421875</ele>
        <time>2020-02-20T14:22:19Z</time>
      </trkpt>
      <trkpt lat="44.26031" lon="5.62368">
        <ele>1193.58203125</ele>
        <time>2020-02-20T14:22:30Z</time>
      </trkpt>
      <trkpt lat="44.26026" lon="5.62382">
        <ele>1193.4765625</ele>
        <time>2020-02-20T14:22:42Z</time>
      </trkpt>
      <trkpt lat="44.26019" lon="5.624">
        <ele>1193.91796875</ele>
        <time>2020-02-20T14:22:55Z</time>
      </trkpt>
      <trkpt lat="44.26014" lon="5.62415">
        <ele>1194.73046875</ele>
        <time>2020-02-20T14:23:06Z</time>
      </trkpt>
      <trkpt lat="44.26013" lon="5.62417">
        <ele>1194.69140625</ele>
        <time>2020-02-20T14:23:08Z</time>
      </trkpt>
      <trkpt lat="44.26004" lon="5.62435">
        <ele>1193.859375</ele>
        <time>2020-02-20T14:23:23Z</time>
      </trkpt>
      <trkpt lat="44.25994" lon="5.62447">
        <ele>1192</ele>
        <time>2020-02-20T14:23:36Z</time>
      </trkpt>
      <trkpt lat="44.25993" lon="5.62448">
        <ele>1191.92578125</ele>
        <time>2020-02-20T14:23:37Z</time>
      </trkpt>
      <trkpt lat="44.25981" lon="5.6246">
        <ele>1189.56640625</ele>
        <time>2020-02-20T14:23:52Z</time>
      </trkpt>
      <trkpt lat="44.25971" lon="5.62469">
        <ele>1187.0625</ele>
        <time>2020-02-20T14:24:04Z</time>
      </trkpt>
      <trkpt lat="44.25959" lon="5.62481">
        <ele>1183.34765625</ele>
        <time>2020-02-20T14:24:18Z</time>
      </trkpt>
      <trkpt lat="44.25953" lon="5.62486">
        <ele>1181.45703125</ele>
        <time>2020-02-20T14:24:24Z</time>
      </trkpt>
      <trkpt lat="44.25948" lon="5.62492">
        <ele>1180.61328125</ele>
        <time>2020-02-20T14:24:29Z</time>
      </trkpt>
      <trkpt lat="44.25943" lon="5.62502">
        <ele>1179.61328125</ele>
        <time>2020-02-20T14:24:37Z</time>
      </trkpt>
      <trkpt lat="44.25931" lon="5.62515">
        <ele>1177.3125</ele>
        <time>2020-02-20T14:24:51Z</time>
      </trkpt>
      <trkpt lat="44.25921" lon="5.62526">
        <ele>1175.5234375</ele>
        <time>2020-02-20T14:25:02Z</time>
      </trkpt>
      <trkpt lat="44.25919" lon="5.62529">
        <ele>1175.20703125</ele>
        <time>2020-02-20T14:25:05Z</time>
      </trkpt>
      <trkpt lat="44.25917" lon="5.6253">
        <ele>1174.7265625</ele>
        <time>2020-02-20T14:25:07Z</time>
      </trkpt>
      <trkpt lat="44.25915" lon="5.62534">
        <ele>1174.22265625</ele>
        <time>2020-02-20T14:25:10Z</time>
      </trkpt>
      <trkpt lat="44.25904" lon="5.62547">
        <ele>1173.07421875</ele>
        <time>2020-02-20T14:25:23Z</time>
      </trkpt>
      <trkpt lat="44.25896" lon="5.62554">
        <ele>1171.75390625</ele>
        <time>2020-02-20T14:25:32Z</time>
      </trkpt>
      <trkpt lat="44.25884" lon="5.62561">
        <ele>1169.62890625</ele>
        <time>2020-02-20T14:25:44Z</time>
      </trkpt>
      <trkpt lat="44.25872" lon="5.62569">
        <ele>1167.81640625</ele>
        <time>2020-02-20T14:25:57Z</time>
      </trkpt>
      <trkpt lat="44.25866" lon="5.62577">
        <ele>1166.90234375</ele>
        <time>2020-02-20T14:26:07Z</time>
      </trkpt>
      <trkpt lat="44.25863" lon="5.6258">
        <ele>1166.2578125</ele>
        <time>2020-02-20T14:26:12Z</time>
      </trkpt>
      <trkpt lat="44.2586" lon="5.62582">
        <ele>1165.5859375</ele>
        <time>2020-02-20T14:26:16Z</time>
      </trkpt>
      <trkpt lat="44.25849" lon="5.62578">
        <ele>1164.859375</ele>
        <time>2020-02-20T14:26:27Z</time>
      </trkpt>
      <trkpt lat="44.25836" lon="5.62578">
        <ele>1163.875</ele>
        <time>2020-02-20T14:26:40Z</time>
      </trkpt>
      <trkpt lat="44.25826" lon="5.62582">
        <ele>1162.859375</ele>
        <time>2020-02-20T14:26:52Z</time>
      </trkpt>
      <trkpt lat="44.25817" lon="5.62587">
        <ele>1161.76171875</ele>
        <time>2020-02-20T14:27:04Z</time>
      </trkpt>
      <trkpt lat="44.25805" lon="5.62593">
        <ele>1160.3125</ele>
        <time>2020-02-20T14:27:17Z</time>
      </trkpt>
      <trkpt lat="44.25791" lon="5.62597">
        <ele>1157.53515625</ele>
        <time>2020-02-20T14:27:30Z</time>
      </trkpt>
      <trkpt lat="44.25777" lon="5.626">
        <ele>1154.5234375</ele>
        <time>2020-02-20T14:27:41Z</time>
      </trkpt>
      <trkpt lat="44.25771" lon="5.626">
        <ele>1153.50390625</ele>
        <time>2020-02-20T14:27:45Z</time>
      </trkpt>
      <trkpt lat="44.25769" lon="5.62602">
        <ele>1152.87109375</ele>
        <time>2020-02-20T14:27:47Z</time>
      </trkpt>
      <trkpt lat="44.25754" lon="5.62605">
        <ele>1149.0390625</ele>
        <time>2020-02-20T14:28:00Z</time>
      </trkpt>
      <trkpt lat="44.25741" lon="5.62606">
        <ele>1145.69140625</ele>
        <time>2020-02-20T14:28:12Z</time>
      </trkpt>
      <trkpt lat="44.25732" lon="5.62606">
        <ele>1143.99609375</ele>
        <time>2020-02-20T14:28:21Z</time>
      </trkpt>
      <trkpt lat="44.25723" lon="5.626">
        <ele>1144</ele>
        <time>2020-02-20T14:28:32Z</time>
      </trkpt>
      <trkpt lat="44.2572" lon="5.62596">
        <ele>1144.16796875</ele>
        <time>2020-02-20T14:28:36Z</time>
      </trkpt>
      <trkpt lat="44.25717" lon="5.62585">
        <ele>1145.67578125</ele>
        <time>2020-02-20T14:28:47Z</time>
      </trkpt>
      <trkpt lat="44.25714" lon="5.62582">
        <ele>1145.3828125</ele>
        <time>2020-02-20T14:28:57Z</time>
      </trkpt>
      <trkpt lat="44.25714" lon="5.62582">
        <ele>1145.44140625</ele>
        <time>2020-02-20T14:29:12Z</time>
      </trkpt>
      <trkpt lat="44.25714" lon="5.62582">
        <ele>1145.40234375</ele>
        <time>2020-02-20T14:29:39Z</time>
      </trkpt>
      <trkpt lat="44.25715" lon="5.62586">
        <ele>1144.91015625</ele>
        <time>2020-02-20T14:29:47Z</time>
      </trkpt>
      <trkpt lat="44.25712" lon="5.62591">
        <ele>1143.1328125</ele>
        <time>2020-02-20T14:29:52Z</time>
      </trkpt>
      <trkpt lat="44.25712" lon="5.62604">
        <ele>1140.34375</ele>
        <time>2020-02-20T14:30:01Z</time>
      </trkpt>
      <trkpt lat="44.2572" lon="5.62615">
        <ele>1138.1015625</ele>
        <time>2020-02-20T14:30:13Z</time>
      </trkpt>
      <trkpt lat="44.25722" lon="5.62619">
        <ele>1137.3671875</ele>
        <time>2020-02-20T14:30:16Z</time>
      </trkpt>
      <trkpt lat="44.25737" lon="5.62627">
        <ele>1137.58203125</ele>
        <time>2020-02-20T14:30:29Z</time>
      </trkpt>
      <trkpt lat="44.25738" lon="5.62627">
        <ele>1137.64453125</ele>
        <time>2020-02-20T14:30:42Z</time>
      </trkpt>
      <trkpt lat="44.25738" lon="5.62628">
        <ele>1137.4453125</ele>
        <time>2020-02-20T14:30:47Z</time>
      </trkpt>
      <trkpt lat="44.25741" lon="5.62629">
        <ele>1137.69140625</ele>
        <time>2020-02-20T14:30:51Z</time>
      </trkpt>
      <trkpt lat="44.25748" lon="5.62631">
        <ele>1138.7109375</ele>
        <time>2020-02-20T14:31:03Z</time>
      </trkpt>
      <trkpt lat="44.25748" lon="5.62631">
        <ele>1138.6875</ele>
        <time>2020-02-20T14:31:08Z</time>
      </trkpt>
      <trkpt lat="44.25764" lon="5.62633">
        <ele>1141.56640625</ele>
        <time>2020-02-20T14:31:22Z</time>
      </trkpt>
      <trkpt lat="44.25778" lon="5.62636">
        <ele>1143.94140625</ele>
        <time>2020-02-20T14:31:33Z</time>
      </trkpt>
      <trkpt lat="44.25785" lon="5.6264">
        <ele>1144.9375</ele>
        <time>2020-02-20T14:31:39Z</time>
      </trkpt>
      <trkpt lat="44.25799" lon="5.62653">
        <ele>1146.41796875</ele>
        <time>2020-02-20T14:31:52Z</time>
      </trkpt>
      <trkpt lat="44.25808" lon="5.62666">
        <ele>1146.98046875</ele>
        <time>2020-02-20T14:32:03Z</time>
      </trkpt>
      <trkpt lat="44.25814" lon="5.62679">
        <ele>1146.8671875</ele>
        <time>2020-02-20T14:32:13Z</time>
      </trkpt>
      <trkpt lat="44.25817" lon="5.62693">
        <ele>1146.3359375</ele>
        <time>2020-02-20T14:32:20Z</time>
      </trkpt>
      <trkpt lat="44.2582" lon="5.62715">
        <ele>1145.08984375</ele>
        <time>2020-02-20T14:32:32Z</time>
      </trkpt>
      <trkpt lat="44.25821" lon="5.62734">
        <ele>1144.13671875</ele>
        <time>2020-02-20T14:32:42Z</time>
      </trkpt>
      <trkpt lat="44.25824" lon="5.62757">
        <ele>1144.1484375</ele>
        <time>2020-02-20T14:32:55Z</time>
      </trkpt>
      <trkpt lat="44.25825" lon="5.62762">
        <ele>1144.328125</ele>
        <time>2020-02-20T14:32:58Z</time>
      </trkpt>
      <trkpt lat="44.25825" lon="5.62765">
        <ele>1144.15625</ele>
        <time>2020-02-20T14:33:00Z</time>
      </trkpt>
      <trkpt lat="44.25828" lon="5.62781">
        <ele>1144.5625</ele>
        <time>2020-02-20T14:33:10Z</time>
      </trkpt>
      <trkpt lat="44.25828" lon="5.62804">
        <ele>1143.35546875</ele>
        <time>2020-02-20T14:33:22Z</time>
      </trkpt>
      <trkpt lat="44.25828" lon="5.62806">
        <ele>1143.3203125</ele>
        <time>2020-02-20T14:33:23Z</time>
      </trkpt>
      <trkpt lat="44.25829" lon="5.62815">
        <ele>1142.73828125</ele>
        <time>2020-02-20T14:33:28Z</time>
      </trkpt>
      <trkpt lat="44.25831" lon="5.62837">
        <ele>1141.49609375</ele>
        <time>2020-02-20T14:33:39Z</time>
      </trkpt>
      <trkpt lat="44.25833" lon="5.62856">
        <ele>1140.21484375</ele>
        <time>2020-02-20T14:33:50Z</time>
      </trkpt>
      <trkpt lat="44.25832" lon="5.62858">
        <ele>1139.77734375</ele>
        <time>2020-02-20T14:33:51Z</time>
      </trkpt>
      <trkpt lat="44.25834" lon="5.62882">
        <ele>1137.40625</ele>
        <time>2020-02-20T14:34:05Z</time>
      </trkpt>
      <trkpt lat="44.25837" lon="5.62904">
        <ele>1136.9921875</ele>
        <time>2020-02-20T14:34:17Z</time>
      </trkpt>
      <trkpt lat="44.25837" lon="5.62909">
        <ele>1136.328125</ele>
        <time>2020-02-20T14:34:20Z</time>
      </trkpt>
      <trkpt lat="44.25839" lon="5.62915">
        <ele>1136.41015625</ele>
        <time>2020-02-20T14:34:24Z</time>
      </trkpt>
      <trkpt lat="44.2584" lon="5.62922">
        <ele>1136.21484375</ele>
        <time>2020-02-20T14:34:28Z</time>
      </trkpt>
      <trkpt lat="44.25841" lon="5.62945">
        <ele>1133.76171875</ele>
        <time>2020-02-20T14:34:42Z</time>
      </trkpt>
      <trkpt lat="44.25841" lon="5.62959">
        <ele>1132.32421875</ele>
        <time>2020-02-20T14:34:53Z</time>
      </trkpt>
      <trkpt lat="44.25841" lon="5.62966">
        <ele>1131.83984375</ele>
        <time>2020-02-20T14:34:58Z</time>
      </trkpt>
      <trkpt lat="44.25843" lon="5.62982">
        <ele>1130.60546875</ele>
        <time>2020-02-20T14:35:10Z</time>
      </trkpt>
      <trkpt lat="44.25843" lon="5.62986">
        <ele>1129.953125</ele>
        <time>2020-02-20T14:35:13Z</time>
      </trkpt>
      <trkpt lat="44.25843" lon="5.63005">
        <ele>1127.80078125</ele>
        <time>2020-02-20T14:35:27Z</time>
      </trkpt>
      <trkpt lat="44.25843" lon="5.63023">
        <ele>1125.73828125</ele>
        <time>2020-02-20T14:35:38Z</time>
      </trkpt>
      <trkpt lat="44.25843" lon="5.63042">
        <ele>1123.48046875</ele>
        <time>2020-02-20T14:35:51Z</time>
      </trkpt>
      <trkpt lat="44.25842" lon="5.63055">
        <ele>1121.19921875</ele>
        <time>2020-02-20T14:36:02Z</time>
      </trkpt>
      <trkpt lat="44.25842" lon="5.63069">
        <ele>1120.28515625</ele>
        <time>2020-02-20T14:36:13Z</time>
      </trkpt>
      <trkpt lat="44.25843" lon="5.63084">
        <ele>1119.31640625</ele>
        <time>2020-02-20T14:36:23Z</time>
      </trkpt>
      <trkpt lat="44.25843" lon="5.63087">
        <ele>1118.94921875</ele>
        <time>2020-02-20T14:36:25Z</time>
      </trkpt>
      <trkpt lat="44.25842" lon="5.63098">
        <ele>1117.4609375</ele>
        <time>2020-02-20T14:36:34Z</time>
      </trkpt>
      <trkpt lat="44.25842" lon="5.63114">
        <ele>1115.6484375</ele>
        <time>2020-02-20T14:36:45Z</time>
      </trkpt>
      <trkpt lat="44.25841" lon="5.63133">
        <ele>1113.40234375</ele>
        <time>2020-02-20T14:36:58Z</time>
      </trkpt>
      <trkpt lat="44.25841" lon="5.63155">
        <ele>1111.40234375</ele>
        <time>2020-02-20T14:37:10Z</time>
      </trkpt>
      <trkpt lat="44.2584" lon="5.63165">
        <ele>1110.3671875</ele>
        <time>2020-02-20T14:37:17Z</time>
      </trkpt>
      <trkpt lat="44.25838" lon="5.63185">
        <ele>1107.66015625</ele>
        <time>2020-02-20T14:37:31Z</time>
      </trkpt>
      <trkpt lat="44.25838" lon="5.63188">
        <ele>1107.34765625</ele>
        <time>2020-02-20T14:37:33Z</time>
      </trkpt>
      <trkpt lat="44.25834" lon="5.63204">
        <ele>1104.734375</ele>
        <time>2020-02-20T14:37:44Z</time>
      </trkpt>
      <trkpt lat="44.25835" lon="5.63223">
        <ele>1103.91015625</ele>
        <time>2020-02-20T14:37:56Z</time>
      </trkpt>
      <trkpt lat="44.25834" lon="5.63229">
        <ele>1103.1953125</ele>
        <time>2020-02-20T14:38:00Z</time>
      </trkpt>
      <trkpt lat="44.25833" lon="5.63241">
        <ele>1101.71484375</ele>
        <time>2020-02-20T14:38:07Z</time>
      </trkpt>
      <trkpt lat="44.25831" lon="5.63257">
        <ele>1100.36328125</ele>
        <time>2020-02-20T14:38:18Z</time>
      </trkpt>
      <trkpt lat="44.25831" lon="5.63274">
        <ele>1099.5078125</ele>
        <time>2020-02-20T14:38:29Z</time>
      </trkpt>
      <trkpt lat="44.25831" lon="5.63279">
        <ele>1099.41015625</ele>
        <time>2020-02-20T14:38:33Z</time>
      </trkpt>
      <trkpt lat="44.25832" lon="5.63296">
        <ele>1099.28515625</ele>
        <time>2020-02-20T14:38:44Z</time>
      </trkpt>
      <trkpt lat="44.25831" lon="5.63308">
        <ele>1098.7421875</ele>
        <time>2020-02-20T14:38:52Z</time>
      </trkpt>
      <trkpt lat="44.25829" lon="5.63329">
        <ele>1097.8671875</ele>
        <time>2020-02-20T14:39:04Z</time>
      </trkpt>
      <trkpt lat="44.25827" lon="5.6334">
        <ele>1096.609375</ele>
        <time>2020-02-20T14:39:11Z</time>
      </trkpt>
      <trkpt lat="44.25826" lon="5.63342">
        <ele>1095.93359375</ele>
        <time>2020-02-20T14:39:13Z</time>
      </trkpt>
      <trkpt lat="44.2582" lon="5.63332">
        <ele>1093.3671875</ele>
        <time>2020-02-20T14:39:26Z</time>
      </trkpt>
      <trkpt lat="44.2582" lon="5.63325">
        <ele>1093.71875</ele>
        <time>2020-02-20T14:39:31Z</time>
      </trkpt>
      <trkpt lat="44.25816" lon="5.63308">
        <ele>1091.78515625</ele>
        <time>2020-02-20T14:39:43Z</time>
      </trkpt>
      <trkpt lat="44.25809" lon="5.63292">
        <ele>1088.76171875</ele>
        <time>2020-02-20T14:39:54Z</time>
      </trkpt>
      <trkpt lat="44.25807" lon="5.63286">
        <ele>1088.0234375</ele>
        <time>2020-02-20T14:40:01Z</time>
      </trkpt>
      <trkpt lat="44.25805" lon="5.63278">
        <ele>1087.390625</ele>
        <time>2020-02-20T14:40:06Z</time>
      </trkpt>
      <trkpt lat="44.25804" lon="5.63273">
        <ele>1086.89453125</ele>
        <time>2020-02-20T14:40:09Z</time>
      </trkpt>
      <trkpt lat="44.25799" lon="5.63262">
        <ele>1085.1484375</ele>
        <time>2020-02-20T14:40:17Z</time>
      </trkpt>
      <trkpt lat="44.25797" lon="5.63261">
        <ele>1084.01953125</ele>
        <time>2020-02-20T14:40:19Z</time>
      </trkpt>
      <trkpt lat="44.25787" lon="5.63268">
        <ele>1078.6640625</ele>
        <time>2020-02-20T14:40:31Z</time>
      </trkpt>
      <trkpt lat="44.25786" lon="5.63273">
        <ele>1078.02734375</ele>
        <time>2020-02-20T14:40:35Z</time>
      </trkpt>
      <trkpt lat="44.25785" lon="5.63285">
        <ele>1077.55859375</ele>
        <time>2020-02-20T14:40:43Z</time>
      </trkpt>
      <trkpt lat="44.25779" lon="5.63302">
        <ele>1074.2109375</ele>
        <time>2020-02-20T14:40:55Z</time>
      </trkpt>
      <trkpt lat="44.25773" lon="5.63316">
        <ele>1070.68359375</ele>
        <time>2020-02-20T14:41:07Z</time>
      </trkpt>
      <trkpt lat="44.25771" lon="5.63321">
        <ele>1069.98828125</ele>
        <time>2020-02-20T14:41:10Z</time>
      </trkpt>
      <trkpt lat="44.25771" lon="5.63342">
        <ele>1069.203125</ele>
        <time>2020-02-20T14:41:23Z</time>
      </trkpt>
      <trkpt lat="44.25772" lon="5.63343">
        <ele>1069.2578125</ele>
        <time>2020-02-20T14:41:24Z</time>
      </trkpt>
      <trkpt lat="44.25776" lon="5.63362">
        <ele>1069.984375</ele>
        <time>2020-02-20T14:41:36Z</time>
      </trkpt>
      <trkpt lat="44.25783" lon="5.6338">
        <ele>1071.9453125</ele>
        <time>2020-02-20T14:41:49Z</time>
      </trkpt>
      <trkpt lat="44.25784" lon="5.63383">
        <ele>1072.25390625</ele>
        <time>2020-02-20T14:41:51Z</time>
      </trkpt>
      <trkpt lat="44.25789" lon="5.63391">
        <ele>1073.7421875</ele>
        <time>2020-02-20T14:41:58Z</time>
      </trkpt>
      <trkpt lat="44.25793" lon="5.63405">
        <ele>1074.5234375</ele>
        <time>2020-02-20T14:42:07Z</time>
      </trkpt>
      <trkpt lat="44.25795" lon="5.63426">
        <ele>1072.9609375</ele>
        <time>2020-02-20T14:42:19Z</time>
      </trkpt>
      <trkpt lat="44.25795" lon="5.63445">
        <ele>1070.59375</ele>
        <time>2020-02-20T14:42:31Z</time>
      </trkpt>
      <trkpt lat="44.25795" lon="5.63446">
        <ele>1070.26171875</ele>
        <time>2020-02-20T14:42:32Z</time>
      </trkpt>
      <trkpt lat="44.25792" lon="5.63465">
        <ele>1067.11328125</ele>
        <time>2020-02-20T14:42:43Z</time>
      </trkpt>
      <trkpt lat="44.25791" lon="5.63472">
        <ele>1065.5390625</ele>
        <time>2020-02-20T14:42:47Z</time>
      </trkpt>
      <trkpt lat="44.2579" lon="5.63482">
        <ele>1064.1796875</ele>
        <time>2020-02-20T14:42:54Z</time>
      </trkpt>
      <trkpt lat="44.2579" lon="5.63491">
        <ele>1062.91015625</ele>
        <time>2020-02-20T14:43:00Z</time>
      </trkpt>
      <trkpt lat="44.25791" lon="5.63507">
        <ele>1061.67578125</ele>
        <time>2020-02-20T14:43:11Z</time>
      </trkpt>
      <trkpt lat="44.25789" lon="5.63509">
        <ele>1060.765625</ele>
        <time>2020-02-20T14:43:13Z</time>
      </trkpt>
      <trkpt lat="44.25787" lon="5.63509">
        <ele>1059.74609375</ele>
        <time>2020-02-20T14:43:15Z</time>
      </trkpt>
      <trkpt lat="44.25782" lon="5.63498">
        <ele>1058.46875</ele>
        <time>2020-02-20T14:43:26Z</time>
      </trkpt>
      <trkpt lat="44.2578" lon="5.63481">
        <ele>1058.98828125</ele>
        <time>2020-02-20T14:43:38Z</time>
      </trkpt>
      <trkpt lat="44.25776" lon="5.63467">
        <ele>1058.5390625</ele>
        <time>2020-02-20T14:43:49Z</time>
      </trkpt>
      <trkpt lat="44.25773" lon="5.63453">
        <ele>1058.6015625</ele>
        <time>2020-02-20T14:44:00Z</time>
      </trkpt>
      <trkpt lat="44.25769" lon="5.63451">
        <ele>1056.890625</ele>
        <time>2020-02-20T14:44:04Z</time>
      </trkpt>
      <trkpt lat="44.25766" lon="5.63454">
        <ele>1055.21875</ele>
        <time>2020-02-20T14:44:08Z</time>
      </trkpt>
      <trkpt lat="44.25764" lon="5.63477">
        <ele>1051.71484375</ele>
        <time>2020-02-20T14:44:22Z</time>
      </trkpt>
      <trkpt lat="44.25762" lon="5.63494">
        <ele>1048.87890625</ele>
        <time>2020-02-20T14:44:33Z</time>
      </trkpt>
      <trkpt lat="44.25761" lon="5.63512">
        <ele>1046.37109375</ele>
        <time>2020-02-20T14:44:45Z</time>
      </trkpt>
      <trkpt lat="44.25762" lon="5.63528">
        <ele>1045.08984375</ele>
        <time>2020-02-20T14:44:56Z</time>
      </trkpt>
      <trkpt lat="44.25765" lon="5.63543">
        <ele>1044.80859375</ele>
        <time>2020-02-20T14:45:09Z</time>
      </trkpt>
      <trkpt lat="44.25768" lon="5.63557">
        <ele>1044.578125</ele>
        <time>2020-02-20T14:45:20Z</time>
      </trkpt>
      <trkpt lat="44.2577" lon="5.63573">
        <ele>1043.12109375</ele>
        <time>2020-02-20T14:45:32Z</time>
      </trkpt>
      <trkpt lat="44.25771" lon="5.63589">
        <ele>1041.3828125</ele>
        <time>2020-02-20T14:45:44Z</time>
      </trkpt>
      <trkpt lat="44.25771" lon="5.63606">
        <ele>1038.60546875</ele>
        <time>2020-02-20T14:45:56Z</time>
      </trkpt>
      <trkpt lat="44.25773" lon="5.63621">
        <ele>1037.0078125</ele>
        <time>2020-02-20T14:46:07Z</time>
      </trkpt>
      <trkpt lat="44.25776" lon="5.63636">
        <ele>1035.51171875</ele>
        <time>2020-02-20T14:46:19Z</time>
      </trkpt>
      <trkpt lat="44.25774" lon="5.63644">
        <ele>1032.67578125</ele>
        <time>2020-02-20T14:46:26Z</time>
      </trkpt>
      <trkpt lat="44.25767" lon="5.63634">
        <ele>1031.07421875</ele>
        <time>2020-02-20T14:46:38Z</time>
      </trkpt>
      <trkpt lat="44.25764" lon="5.63626">
        <ele>1031.1328125</ele>
        <time>2020-02-20T14:46:47Z</time>
      </trkpt>
      <trkpt lat="44.25759" lon="5.63614">
        <ele>1030.8359375</ele>
        <time>2020-02-20T14:46:57Z</time>
      </trkpt>
      <trkpt lat="44.25752" lon="5.63599">
        <ele>1030.5234375</ele>
        <time>2020-02-20T14:47:10Z</time>
      </trkpt>
      <trkpt lat="44.25745" lon="5.63586">
        <ele>1028.51953125</ele>
        <time>2020-02-20T14:47:22Z</time>
      </trkpt>
      <trkpt lat="44.25743" lon="5.63582">
        <ele>1028.078125</ele>
        <time>2020-02-20T14:47:25Z</time>
      </trkpt>
      <trkpt lat="44.25735" lon="5.63566">
        <ele>1026.90625</ele>
        <time>2020-02-20T14:47:38Z</time>
      </trkpt>
      <trkpt lat="44.25733" lon="5.63559">
        <ele>1026.953125</ele>
        <time>2020-02-20T14:47:44Z</time>
      </trkpt>
      <trkpt lat="44.25726" lon="5.63546">
        <ele>1025.5546875</ele>
        <time>2020-02-20T14:47:56Z</time>
      </trkpt>
      <trkpt lat="44.25719" lon="5.63534">
        <ele>1023.61328125</ele>
        <time>2020-02-20T14:48:06Z</time>
      </trkpt>
      <trkpt lat="44.25716" lon="5.63528">
        <ele>1022.94140625</ele>
        <time>2020-02-20T14:48:11Z</time>
      </trkpt>
      <trkpt lat="44.25711" lon="5.63517">
        <ele>1021.4453125</ele>
        <time>2020-02-20T14:48:21Z</time>
      </trkpt>
      <trkpt lat="44.25703" lon="5.63505">
        <ele>1018.82421875</ele>
        <time>2020-02-20T14:48:34Z</time>
      </trkpt>
      <trkpt lat="44.25697" lon="5.63492">
        <ele>1017.91015625</ele>
        <time>2020-02-20T14:48:45Z</time>
      </trkpt>
      <trkpt lat="44.25691" lon="5.63477">
        <ele>1016.2421875</ele>
        <time>2020-02-20T14:48:57Z</time>
      </trkpt>
      <trkpt lat="44.25687" lon="5.63466">
        <ele>1015.01171875</ele>
        <time>2020-02-20T14:49:07Z</time>
      </trkpt>
      <trkpt lat="44.25682" lon="5.63448">
        <ele>1014.22265625</ele>
        <time>2020-02-20T14:49:20Z</time>
      </trkpt>
      <trkpt lat="44.2568" lon="5.63436">
        <ele>1014.421875</ele>
        <time>2020-02-20T14:49:30Z</time>
      </trkpt>
      <trkpt lat="44.25678" lon="5.63421">
        <ele>1014.77734375</ele>
        <time>2020-02-20T14:49:41Z</time>
      </trkpt>
      <trkpt lat="44.25675" lon="5.63403">
        <ele>1014.55078125</ele>
        <time>2020-02-20T14:49:54Z</time>
      </trkpt>
      <trkpt lat="44.2567" lon="5.63401">
        <ele>1011.90234375</ele>
        <time>2020-02-20T14:50:00Z</time>
      </trkpt>
      <trkpt lat="44.25664" lon="5.63407">
        <ele>1008.625</ele>
        <time>2020-02-20T14:50:08Z</time>
      </trkpt>
      <trkpt lat="44.25665" lon="5.63423">
        <ele>1007.92578125</ele>
        <time>2020-02-20T14:50:19Z</time>
      </trkpt>
      <trkpt lat="44.25664" lon="5.63438">
        <ele>1006.265625</ele>
        <time>2020-02-20T14:50:30Z</time>
      </trkpt>
      <trkpt lat="44.25663" lon="5.63453">
        <ele>1003.86328125</ele>
        <time>2020-02-20T14:50:42Z</time>
      </trkpt>
      <trkpt lat="44.25664" lon="5.63468">
        <ele>1003.10546875</ele>
        <time>2020-02-20T14:50:53Z</time>
      </trkpt>
      <trkpt lat="44.25665" lon="5.63471">
        <ele>1003.33984375</ele>
        <time>2020-02-20T14:50:56Z</time>
      </trkpt>
      <trkpt lat="44.25666" lon="5.63474">
        <ele>1003.54296875</ele>
        <time>2020-02-20T14:50:58Z</time>
      </trkpt>
      <trkpt lat="44.2567" lon="5.63491">
        <ele>1003.8046875</ele>
        <time>2020-02-20T14:51:10Z</time>
      </trkpt>
      <trkpt lat="44.25671" lon="5.63504">
        <ele>1003.05078125</ele>
        <time>2020-02-20T14:51:20Z</time>
      </trkpt>
      <trkpt lat="44.25672" lon="5.63506">
        <ele>1003.0078125</ele>
        <time>2020-02-20T14:51:21Z</time>
      </trkpt>
      <trkpt lat="44.25672" lon="5.63514">
        <ele>1002.171875</ele>
        <time>2020-02-20T14:51:26Z</time>
      </trkpt>
      <trkpt lat="44.25673" lon="5.63519">
        <ele>1001.9296875</ele>
        <time>2020-02-20T14:51:29Z</time>
      </trkpt>
      <trkpt lat="44.25672" lon="5.63527">
        <ele>1000.5546875</ele>
        <time>2020-02-20T14:51:34Z</time>
      </trkpt>
      <trkpt lat="44.25674" lon="5.63539">
        <ele>999.4765625</ele>
        <time>2020-02-20T14:51:41Z</time>
      </trkpt>
      <trkpt lat="44.25676" lon="5.63555">
        <ele>997.8671875</ele>
        <time>2020-02-20T14:51:52Z</time>
      </trkpt>
      <trkpt lat="44.25678" lon="5.63572">
        <ele>996</ele>
        <time>2020-02-20T14:52:04Z</time>
      </trkpt>
      <trkpt lat="44.25679" lon="5.6359">
        <ele>992.93359375</ele>
        <time>2020-02-20T14:52:16Z</time>
      </trkpt>
      <trkpt lat="44.25681" lon="5.63605">
        <ele>990.90625</ele>
        <time>2020-02-20T14:52:27Z</time>
      </trkpt>
      <trkpt lat="44.25685" lon="5.63619">
        <ele>989.51953125</ele>
        <time>2020-02-20T14:52:38Z</time>
      </trkpt>
      <trkpt lat="44.2569" lon="5.63632">
        <ele>988.8671875</ele>
        <time>2020-02-20T14:52:48Z</time>
      </trkpt>
      <trkpt lat="44.25692" lon="5.63637">
        <ele>988.37109375</ele>
        <time>2020-02-20T14:52:53Z</time>
      </trkpt>
      <trkpt lat="44.25692" lon="5.63643">
        <ele>987.5625</ele>
        <time>2020-02-20T14:52:56Z</time>
      </trkpt>
      <trkpt lat="44.25698" lon="5.6366">
        <ele>985.84765625</ele>
        <time>2020-02-20T14:53:09Z</time>
      </trkpt>
      <trkpt lat="44.257" lon="5.63666">
        <ele>985.65234375</ele>
        <time>2020-02-20T14:53:14Z</time>
      </trkpt>
      <trkpt lat="44.25707" lon="5.63679">
        <ele>985.3671875</ele>
        <time>2020-02-20T14:53:27Z</time>
      </trkpt>
      <trkpt lat="44.25713" lon="5.63694">
        <ele>984.875</ele>
        <time>2020-02-20T14:53:38Z</time>
      </trkpt>
      <trkpt lat="44.25719" lon="5.63707">
        <ele>984.50390625</ele>
        <time>2020-02-20T14:53:49Z</time>
      </trkpt>
      <trkpt lat="44.25719" lon="5.63708">
        <ele>984.33203125</ele>
        <time>2020-02-20T14:53:50Z</time>
      </trkpt>
      <trkpt lat="44.25724" lon="5.63721">
        <ele>983.71875</ele>
        <time>2020-02-20T14:54:01Z</time>
      </trkpt>
      <trkpt lat="44.25728" lon="5.63735">
        <ele>982.66015625</ele>
        <time>2020-02-20T14:54:11Z</time>
      </trkpt>
      <trkpt lat="44.25734" lon="5.63748">
        <ele>983.29296875</ele>
        <time>2020-02-20T14:54:22Z</time>
      </trkpt>
      <trkpt lat="44.25738" lon="5.63762">
        <ele>982.7890625</ele>
        <time>2020-02-20T14:54:32Z</time>
      </trkpt>
      <trkpt lat="44.25739" lon="5.63765">
        <ele>982.4140625</ele>
        <time>2020-02-20T14:54:34Z</time>
      </trkpt>
      <trkpt lat="44.25742" lon="5.63776">
        <ele>982.1875</ele>
        <time>2020-02-20T14:54:41Z</time>
      </trkpt>
      <trkpt lat="44.25744" lon="5.63789">
        <ele>980.91796875</ele>
        <time>2020-02-20T14:54:48Z</time>
      </trkpt>
      <trkpt lat="44.25746" lon="5.63797">
        <ele>980.84765625</ele>
        <time>2020-02-20T14:54:53Z</time>
      </trkpt>
      <trkpt lat="44.25751" lon="5.63815">
        <ele>982.109375</ele>
        <time>2020-02-20T14:55:04Z</time>
      </trkpt>
      <trkpt lat="44.25755" lon="5.63835">
        <ele>982.11328125</ele>
        <time>2020-02-20T14:55:16Z</time>
      </trkpt>
      <trkpt lat="44.25756" lon="5.63855">
        <ele>980.34375</ele>
        <time>2020-02-20T14:55:28Z</time>
      </trkpt>
      <trkpt lat="44.25758" lon="5.63871">
        <ele>978.7109375</ele>
        <time>2020-02-20T14:55:38Z</time>
      </trkpt>
      <trkpt lat="44.25758" lon="5.63891">
        <ele>976.140625</ele>
        <time>2020-02-20T14:55:50Z</time>
      </trkpt>
      <trkpt lat="44.25759" lon="5.63894">
        <ele>975.74609375</ele>
        <time>2020-02-20T14:55:52Z</time>
      </trkpt>
      <trkpt lat="44.25758" lon="5.63912">
        <ele>972.12890625</ele>
        <time>2020-02-20T14:56:05Z</time>
      </trkpt>
      <trkpt lat="44.25758" lon="5.63926">
        <ele>969.578125</ele>
        <time>2020-02-20T14:56:15Z</time>
      </trkpt>
      <trkpt lat="44.2576" lon="5.63939">
        <ele>967.9453125</ele>
        <time>2020-02-20T14:56:25Z</time>
      </trkpt>
      <trkpt lat="44.25762" lon="5.63951">
        <ele>966.29296875</ele>
        <time>2020-02-20T14:56:34Z</time>
      </trkpt>
      <trkpt lat="44.25763" lon="5.63964">
        <ele>964.1640625</ele>
        <time>2020-02-20T14:56:43Z</time>
      </trkpt>
      <trkpt lat="44.25766" lon="5.63979">
        <ele>962.2578125</ele>
        <time>2020-02-20T14:56:55Z</time>
      </trkpt>
      <trkpt lat="44.2577" lon="5.63993">
        <ele>961.359375</ele>
        <time>2020-02-20T14:57:07Z</time>
      </trkpt>
      <trkpt lat="44.25774" lon="5.64007">
        <ele>959.4375</ele>
        <time>2020-02-20T14:57:20Z</time>
      </trkpt>
      <trkpt lat="44.2578" lon="5.64019">
        <ele>958.79296875</ele>
        <time>2020-02-20T14:57:30Z</time>
      </trkpt>
      <trkpt lat="44.2578" lon="5.64022">
        <ele>958.07421875</ele>
        <time>2020-02-20T14:57:32Z</time>
      </trkpt>
      <trkpt lat="44.25774" lon="5.64022">
        <ele>954.95703125</ele>
        <time>2020-02-20T14:57:42Z</time>
      </trkpt>
      <trkpt lat="44.25773" lon="5.64019">
        <ele>955.25</ele>
        <time>2020-02-20T14:57:45Z</time>
      </trkpt>
      <trkpt lat="44.25768" lon="5.64006">
        <ele>956.33984375</ele>
        <time>2020-02-20T14:57:56Z</time>
      </trkpt>
      <trkpt lat="44.25767" lon="5.64004">
        <ele>956.2734375</ele>
        <time>2020-02-20T14:57:58Z</time>
      </trkpt>
      <trkpt lat="44.25759" lon="5.63994">
        <ele>954.7421875</ele>
        <time>2020-02-20T14:58:08Z</time>
      </trkpt>
      <trkpt lat="44.25753" lon="5.63982">
        <ele>954.15234375</ele>
        <time>2020-02-20T14:58:19Z</time>
      </trkpt>
      <trkpt lat="44.25745" lon="5.63972">
        <ele>952.3203125</ele>
        <time>2020-02-20T14:58:30Z</time>
      </trkpt>
      <trkpt lat="44.2574" lon="5.63963">
        <ele>951.57421875</ele>
        <time>2020-02-20T14:58:39Z</time>
      </trkpt>
      <trkpt lat="44.25735" lon="5.63954">
        <ele>950.98828125</ele>
        <time>2020-02-20T14:58:49Z</time>
      </trkpt>
      <trkpt lat="44.25729" lon="5.63946">
        <ele>949.2890625</ele>
        <time>2020-02-20T14:58:58Z</time>
      </trkpt>
      <trkpt lat="44.25722" lon="5.63937">
        <ele>947.57421875</ele>
        <time>2020-02-20T14:59:09Z</time>
      </trkpt>
      <trkpt lat="44.25715" lon="5.63927">
        <ele>946.0390625</ele>
        <time>2020-02-20T14:59:20Z</time>
      </trkpt>
      <trkpt lat="44.2571" lon="5.63915">
        <ele>945.66796875</ele>
        <time>2020-02-20T14:59:29Z</time>
      </trkpt>
      <trkpt lat="44.25708" lon="5.63903">
        <ele>946.8984375</ele>
        <time>2020-02-20T14:59:37Z</time>
      </trkpt>
      <trkpt lat="44.25705" lon="5.63884">
        <ele>948.6015625</ele>
        <time>2020-02-20T14:59:49Z</time>
      </trkpt>
      <trkpt lat="44.25702" lon="5.63871">
        <ele>949.1640625</ele>
        <time>2020-02-20T15:00:00Z</time>
      </trkpt>
      <trkpt lat="44.25696" lon="5.63859">
        <ele>947.67578125</ele>
        <time>2020-02-20T15:00:11Z</time>
      </trkpt>
      <trkpt lat="44.25687" lon="5.63845">
        <ele>944.83984375</ele>
        <time>2020-02-20T15:00:23Z</time>
      </trkpt>
      <trkpt lat="44.25687" lon="5.63844">
        <ele>944.64453125</ele>
        <time>2020-02-20T15:00:24Z</time>
      </trkpt>
      <trkpt lat="44.2568" lon="5.63827">
        <ele>942.94921875</ele>
        <time>2020-02-20T15:00:37Z</time>
      </trkpt>
      <trkpt lat="44.25679" lon="5.63823">
        <ele>943.01171875</ele>
        <time>2020-02-20T15:00:40Z</time>
      </trkpt>
      <trkpt lat="44.25678" lon="5.63817">
        <ele>943.28515625</ele>
        <time>2020-02-20T15:00:43Z</time>
      </trkpt>
      <trkpt lat="44.25677" lon="5.63807">
        <ele>943.86328125</ele>
        <time>2020-02-20T15:00:50Z</time>
      </trkpt>
      <trkpt lat="44.25676" lon="5.63804">
        <ele>944.12109375</ele>
        <time>2020-02-20T15:00:52Z</time>
      </trkpt>
      <trkpt lat="44.25671" lon="5.63787">
        <ele>943.515625</ele>
        <time>2020-02-20T15:01:06Z</time>
      </trkpt>
      <trkpt lat="44.25667" lon="5.63779">
        <ele>942.66796875</ele>
        <time>2020-02-20T15:01:11Z</time>
      </trkpt>
      <trkpt lat="44.25658" lon="5.63767">
        <ele>939.953125</ele>
        <time>2020-02-20T15:01:22Z</time>
      </trkpt>
      <trkpt lat="44.2565" lon="5.63755">
        <ele>937.79296875</ele>
        <time>2020-02-20T15:01:33Z</time>
      </trkpt>
      <trkpt lat="44.25641" lon="5.63743">
        <ele>934.7109375</ele>
        <time>2020-02-20T15:01:44Z</time>
      </trkpt>
      <trkpt lat="44.25639" lon="5.6374">
        <ele>934.2578125</ele>
        <time>2020-02-20T15:01:46Z</time>
      </trkpt>
      <trkpt lat="44.25637" lon="5.63739">
        <ele>933.44921875</ele>
        <time>2020-02-20T15:01:48Z</time>
      </trkpt>
      <trkpt lat="44.25629" lon="5.63726">
        <ele>931.734375</ele>
        <time>2020-02-20T15:01:59Z</time>
      </trkpt>
      <trkpt lat="44.25621" lon="5.63714">
        <ele>929.7734375</ele>
        <time>2020-02-20T15:02:09Z</time>
      </trkpt>
      <trkpt lat="44.25618" lon="5.63711">
        <ele>928.9140625</ele>
        <time>2020-02-20T15:02:12Z</time>
      </trkpt>
      <trkpt lat="44.25605" lon="5.63698">
        <ele>924.90234375</ele>
        <time>2020-02-20T15:02:25Z</time>
      </trkpt>
      <trkpt lat="44.25594" lon="5.63682">
        <ele>922.875</ele>
        <time>2020-02-20T15:02:38Z</time>
      </trkpt>
      <trkpt lat="44.25586" lon="5.63669">
        <ele>921.87109375</ele>
        <time>2020-02-20T15:02:47Z</time>
      </trkpt>
      <trkpt lat="44.25582" lon="5.6366">
        <ele>921.71875</ele>
        <time>2020-02-20T15:02:53Z</time>
      </trkpt>
      <trkpt lat="44.25577" lon="5.63646">
        <ele>922.546875</ele>
        <time>2020-02-20T15:03:03Z</time>
      </trkpt>
      <trkpt lat="44.25573" lon="5.6363">
        <ele>924.3515625</ele>
        <time>2020-02-20T15:03:14Z</time>
      </trkpt>
      <trkpt lat="44.25569" lon="5.6361">
        <ele>926.25390625</ele>
        <time>2020-02-20T15:03:26Z</time>
      </trkpt>
      <trkpt lat="44.25566" lon="5.63591">
        <ele>927.81640625</ele>
        <time>2020-02-20T15:03:38Z</time>
      </trkpt>
      <trkpt lat="44.25564" lon="5.63579">
        <ele>927.98828125</ele>
        <time>2020-02-20T15:03:47Z</time>
      </trkpt>
      <trkpt lat="44.2556" lon="5.63564">
        <ele>928.1953125</ele>
        <time>2020-02-20T15:03:57Z</time>
      </trkpt>
      <trkpt lat="44.25555" lon="5.63548">
        <ele>927.76953125</ele>
        <time>2020-02-20T15:04:08Z</time>
      </trkpt>
      <trkpt lat="44.25551" lon="5.63531">
        <ele>926.6484375</ele>
        <time>2020-02-20T15:04:19Z</time>
      </trkpt>
      <trkpt lat="44.25549" lon="5.63524">
        <ele>925.87890625</ele>
        <time>2020-02-20T15:04:25Z</time>
      </trkpt>
      <trkpt lat="44.25548" lon="5.63521">
        <ele>925.37890625</ele>
        <time>2020-02-20T15:04:27Z</time>
      </trkpt>
      <trkpt lat="44.25547" lon="5.63515">
        <ele>925.2578125</ele>
        <time>2020-02-20T15:04:31Z</time>
      </trkpt>
      <trkpt lat="44.25543" lon="5.63503">
        <ele>924.14453125</ele>
        <time>2020-02-20T15:04:40Z</time>
      </trkpt>
      <trkpt lat="44.25538" lon="5.63492">
        <ele>921.91015625</ele>
        <time>2020-02-20T15:04:49Z</time>
      </trkpt>
      <trkpt lat="44.25537" lon="5.63491">
        <ele>921.55859375</ele>
        <time>2020-02-20T15:04:50Z</time>
      </trkpt>
      <trkpt lat="44.25531" lon="5.63477">
        <ele>919.37890625</ele>
        <time>2020-02-20T15:05:01Z</time>
      </trkpt>
      <trkpt lat="44.25523" lon="5.63462">
        <ele>916.52734375</ele>
        <time>2020-02-20T15:05:12Z</time>
      </trkpt>
      <trkpt lat="44.2552" lon="5.63456">
        <ele>915.05859375</ele>
        <time>2020-02-20T15:05:16Z</time>
      </trkpt>
      <trkpt lat="44.25515" lon="5.6344">
        <ele>912.81640625</ele>
        <time>2020-02-20T15:05:27Z</time>
      </trkpt>
      <trkpt lat="44.25513" lon="5.63426">
        <ele>911.94921875</ele>
        <time>2020-02-20T15:05:37Z</time>
      </trkpt>
      <trkpt lat="44.25512" lon="5.63423">
        <ele>911.56640625</ele>
        <time>2020-02-20T15:05:48Z</time>
      </trkpt>
      <trkpt lat="44.25512" lon="5.63422">
        <ele>911.65234375</ele>
        <time>2020-02-20T15:05:49Z</time>
      </trkpt>
      <trkpt lat="44.25511" lon="5.63406">
        <ele>911.60546875</ele>
        <time>2020-02-20T15:05:59Z</time>
      </trkpt>
      <trkpt lat="44.25513" lon="5.63389">
        <ele>912.05078125</ele>
        <time>2020-02-20T15:06:13Z</time>
      </trkpt>
      <trkpt lat="44.25515" lon="5.63377">
        <ele>913.203125</ele>
        <time>2020-02-20T15:06:23Z</time>
      </trkpt>
      <trkpt lat="44.25516" lon="5.63371">
        <ele>914.33984375</ele>
        <time>2020-02-20T15:06:28Z</time>
      </trkpt>
      <trkpt lat="44.25519" lon="5.63356">
        <ele>916.28125</ele>
        <time>2020-02-20T15:06:40Z</time>
      </trkpt>
      <trkpt lat="44.25519" lon="5.63353">
        <ele>916.25390625</ele>
        <time>2020-02-20T15:06:42Z</time>
      </trkpt>
      <trkpt lat="44.25519" lon="5.63335">
        <ele>915.70703125</ele>
        <time>2020-02-20T15:06:54Z</time>
      </trkpt>
      <trkpt lat="44.25517" lon="5.63321">
        <ele>913.95703125</ele>
        <time>2020-02-20T15:07:05Z</time>
      </trkpt>
      <trkpt lat="44.25514" lon="5.63308">
        <ele>911.8359375</ele>
        <time>2020-02-20T15:07:15Z</time>
      </trkpt>
      <trkpt lat="44.25514" lon="5.63304">
        <ele>911.6328125</ele>
        <time>2020-02-20T15:07:18Z</time>
      </trkpt>
      <trkpt lat="44.25514" lon="5.63298">
        <ele>911.3046875</ele>
        <time>2020-02-20T15:07:22Z</time>
      </trkpt>
      <trkpt lat="44.25514" lon="5.63281">
        <ele>910.8828125</ele>
        <time>2020-02-20T15:07:33Z</time>
      </trkpt>
      <trkpt lat="44.25514" lon="5.63265">
        <ele>909.80078125</ele>
        <time>2020-02-20T15:07:43Z</time>
      </trkpt>
      <trkpt lat="44.25512" lon="5.63248">
        <ele>908.16796875</ele>
        <time>2020-02-20T15:07:54Z</time>
      </trkpt>
      <trkpt lat="44.25503" lon="5.6324">
        <ele>903.1015625</ele>
        <time>2020-02-20T15:08:05Z</time>
      </trkpt>
      <trkpt lat="44.2549" lon="5.63238">
        <ele>895.5859375</ele>
        <time>2020-02-20T15:08:17Z</time>
      </trkpt>
      <trkpt lat="44.25473" lon="5.63238">
        <ele>886.98828125</ele>
        <time>2020-02-20T15:08:31Z</time>
      </trkpt>
      <trkpt lat="44.25461" lon="5.63234">
        <ele>882.60546875</ele>
        <time>2020-02-20T15:08:42Z</time>
      </trkpt>
      <trkpt lat="44.25447" lon="5.63224">
        <ele>879.77734375</ele>
        <time>2020-02-20T15:08:56Z</time>
      </trkpt>
      <trkpt lat="44.25435" lon="5.63219">
        <ele>877.8984375</ele>
        <time>2020-02-20T15:09:07Z</time>
      </trkpt>
      <trkpt lat="44.25424" lon="5.63217">
        <ele>875.73046875</ele>
        <time>2020-02-20T15:09:17Z</time>
      </trkpt>
      <trkpt lat="44.25415" lon="5.63215">
        <ele>874.3515625</ele>
        <time>2020-02-20T15:09:23Z</time>
      </trkpt>
      <trkpt lat="44.25402" lon="5.63203">
        <ele>874.8984375</ele>
        <time>2020-02-20T15:09:36Z</time>
      </trkpt>
      <trkpt lat="44.2539" lon="5.63188">
        <ele>875.953125</ele>
        <time>2020-02-20T15:09:50Z</time>
      </trkpt>
      <trkpt lat="44.25381" lon="5.63179">
        <ele>875.6015625</ele>
        <time>2020-02-20T15:10:01Z</time>
      </trkpt>
      <trkpt lat="44.25369" lon="5.63169">
        <ele>874.0234375</ele>
        <time>2020-02-20T15:10:14Z</time>
      </trkpt>
      <trkpt lat="44.25357" lon="5.63162">
        <ele>871.9375</ele>
        <time>2020-02-20T15:10:25Z</time>
      </trkpt>
      <trkpt lat="44.25351" lon="5.63158">
        <ele>871.04296875</ele>
        <time>2020-02-20T15:10:31Z</time>
      </trkpt>
      <trkpt lat="44.25338" lon="5.63153">
        <ele>867.875</ele>
        <time>2020-02-20T15:10:44Z</time>
      </trkpt>
      <trkpt lat="44.25326" lon="5.63143">
        <ele>865.23828125</ele>
        <time>2020-02-20T15:10:56Z</time>
      </trkpt>
      <trkpt lat="44.25325" lon="5.63142">
        <ele>864.99609375</ele>
        <time>2020-02-20T15:10:58Z</time>
      </trkpt>
      <trkpt lat="44.25322" lon="5.63139">
        <ele>864.55078125</ele>
        <time>2020-02-20T15:11:01Z</time>
      </trkpt>
      <trkpt lat="44.25313" lon="5.63124">
        <ele>863.7109375</ele>
        <time>2020-02-20T15:11:15Z</time>
      </trkpt>
      <trkpt lat="44.25306" lon="5.63109">
        <ele>863.515625</ele>
        <time>2020-02-20T15:11:28Z</time>
      </trkpt>
      <trkpt lat="44.25304" lon="5.63106">
        <ele>863.30078125</ele>
        <time>2020-02-20T15:11:31Z</time>
      </trkpt>
      <trkpt lat="44.25297" lon="5.63094">
        <ele>862.68359375</ele>
        <time>2020-02-20T15:11:41Z</time>
      </trkpt>
      <trkpt lat="44.25294" lon="5.63087">
        <ele>862.734375</ele>
        <time>2020-02-20T15:11:46Z</time>
      </trkpt>
      <trkpt lat="44.25291" lon="5.63071">
        <ele>864.296875</ele>
        <time>2020-02-20T15:11:57Z</time>
      </trkpt>
      <trkpt lat="44.2529" lon="5.63068">
        <ele>864.5546875</ele>
        <time>2020-02-20T15:11:59Z</time>
      </trkpt>
      <trkpt lat="44.25287" lon="5.63054">
        <ele>865.56640625</ele>
        <time>2020-02-20T15:12:09Z</time>
      </trkpt>
      <trkpt lat="44.25285" lon="5.63041">
        <ele>866.6640625</ele>
        <time>2020-02-20T15:12:19Z</time>
      </trkpt>
      <trkpt lat="44.25282" lon="5.63038">
        <ele>865.859375</ele>
        <time>2020-02-20T15:12:22Z</time>
      </trkpt>
      <trkpt lat="44.25276" lon="5.63037">
        <ele>863.32421875</ele>
        <time>2020-02-20T15:12:27Z</time>
      </trkpt>
      <trkpt lat="44.25271" lon="5.6304">
        <ele>861.0234375</ele>
        <time>2020-02-20T15:12:31Z</time>
      </trkpt>
      <trkpt lat="44.25268" lon="5.63052">
        <ele>858.140625</ele>
        <time>2020-02-20T15:12:40Z</time>
      </trkpt>
      <trkpt lat="44.25267" lon="5.63054">
        <ele>857.72265625</ele>
        <time>2020-02-20T15:12:41Z</time>
      </trkpt>
      <trkpt lat="44.25267" lon="5.63055">
        <ele>857.3515625</ele>
        <time>2020-02-20T15:12:42Z</time>
      </trkpt>
      <trkpt lat="44.25266" lon="5.63057">
        <ele>856.953125</ele>
        <time>2020-02-20T15:12:43Z</time>
      </trkpt>
      <trkpt lat="44.25266" lon="5.63059">
        <ele>856.63671875</ele>
        <time>2020-02-20T15:12:44Z</time>
      </trkpt>
      <trkpt lat="44.25266" lon="5.6306">
        <ele>856.359375</ele>
        <time>2020-02-20T15:12:45Z</time>
      </trkpt>
      <trkpt lat="44.25267" lon="5.63062">
        <ele>856.3203125</ele>
        <time>2020-02-20T15:12:46Z</time>
      </trkpt>
      <trkpt lat="44.25273" lon="5.63079">
        <ele>855.99609375</ele>
        <time>2020-02-20T15:12:58Z</time>
      </trkpt>
      <trkpt lat="44.25275" lon="5.63082">
        <ele>855.93359375</ele>
        <time>2020-02-20T15:13:01Z</time>
      </trkpt>
      <trkpt lat="44.25276" lon="5.63085">
        <ele>855.87109375</ele>
        <time>2020-02-20T15:13:03Z</time>
      </trkpt>
      <trkpt lat="44.25277" lon="5.63087">
        <ele>855.92578125</ele>
        <time>2020-02-20T15:13:05Z</time>
      </trkpt>
      <trkpt lat="44.25278" lon="5.63089">
        <ele>855.91015625</ele>
        <time>2020-02-20T15:13:06Z</time>
      </trkpt>
      <trkpt lat="44.25279" lon="5.63091">
        <ele>855.8828125</ele>
        <time>2020-02-20T15:13:08Z</time>
      </trkpt>
      <trkpt lat="44.25279" lon="5.63092">
        <ele>855.96484375</ele>
        <time>2020-02-20T15:13:09Z</time>
      </trkpt>
      <trkpt lat="44.25285" lon="5.63105">
        <ele>855.89453125</ele>
        <time>2020-02-20T15:13:19Z</time>
      </trkpt>
      <trkpt lat="44.25291" lon="5.63119">
        <ele>855.74609375</ele>
        <time>2020-02-20T15:13:29Z</time>
      </trkpt>
      <trkpt lat="44.25294" lon="5.63123">
        <ele>856.11328125</ele>
        <time>2020-02-20T15:13:35Z</time>
      </trkpt>
      <trkpt lat="44.25299" lon="5.63139">
        <ele>855.29296875</ele>
        <time>2020-02-20T15:13:45Z</time>
      </trkpt>
      <trkpt lat="44.25302" lon="5.63154">
        <ele>853.8984375</ele>
        <time>2020-02-20T15:13:55Z</time>
      </trkpt>
      <trkpt lat="44.25303" lon="5.63158">
        <ele>853.51953125</ele>
        <time>2020-02-20T15:13:58Z</time>
      </trkpt>
      <trkpt lat="44.25303" lon="5.63159">
        <ele>853.44921875</ele>
        <time>2020-02-20T15:14:00Z</time>
      </trkpt>
      <trkpt lat="44.25303" lon="5.63159">
        <ele>853.234375</ele>
        <time>2020-02-20T15:14:05Z</time>
      </trkpt>
      <trkpt lat="44.25303" lon="5.63159">
        <ele>853.265625</ele>
        <time>2020-02-20T15:14:06Z</time>
      </trkpt>
      <trkpt lat="44.25303" lon="5.63159">
        <ele>853.30078125</ele>
        <time>2020-02-20T15:14:07Z</time>
      </trkpt>
      <trkpt lat="44.25303" lon="5.63159">
        <ele>853.26171875</ele>
        <time>2020-02-20T15:14:10Z</time>
      </trkpt>
      <trkpt lat="44.25303" lon="5.63159">
        <ele>853.30859375</ele>
        <time>2020-02-20T15:14:11Z</time>
      </trkpt>
      <trkpt lat="44.25303" lon="5.63159">
        <ele>853.34375</ele>
        <time>2020-02-20T15:14:12Z</time>
      </trkpt>
      <trkpt lat="44.25303" lon="5.63159">
        <ele>853.37109375</ele>
        <time>2020-02-20T15:14:13Z</time>
      </trkpt>
      <trkpt lat="44.25303" lon="5.63159">
        <ele>853.3984375</ele>
        <time>2020-02-20T15:14:14Z</time>
      </trkpt>
      <trkpt lat="44.25303" lon="5.63159">
        <ele>853.4140625</ele>
        <time>2020-02-20T15:14:15Z</time>
      </trkpt>
      <trkpt lat="44.25303" lon="5.63159">
        <ele>853.41796875</ele>
        <time>2020-02-20T15:14:16Z</time>
      </trkpt>
      <trkpt lat="44.25303" lon="5.63159">
        <ele>853.41796875</ele>
        <time>2020-02-20T15:14:17Z</time>
      </trkpt>
      <trkpt lat="44.25304" lon="5.6316">
        <ele>853.37109375</ele>
        <time>2020-02-20T15:14:32Z</time>
      </trkpt>
      <trkpt lat="44.25304" lon="5.63159">
        <ele>853.51171875</ele>
        <time>2020-02-20T15:14:54Z</time>
      </trkpt>
      <trkpt lat="44.25304" lon="5.63159">
        <ele>853.5546875</ele>
        <time>2020-02-20T15:15:11Z</time>
      </trkpt>
      <trkpt lat="44.25303" lon="5.63161">
        <ele>852.94921875</ele>
        <time>2020-02-20T15:15:27Z</time>
      </trkpt>
      <trkpt lat="44.25304" lon="5.63165">
        <ele>852.203125</ele>
        <time>2020-02-20T15:15:40Z</time>
      </trkpt>
      <trkpt lat="44.25306" lon="5.63175">
        <ele>851.00390625</ele>
        <time>2020-02-20T15:15:50Z</time>
      </trkpt>
      <trkpt lat="44.25307" lon="5.6318">
        <ele>850.2734375</ele>
        <time>2020-02-20T15:16:02Z</time>
      </trkpt>
      <trkpt lat="44.25308" lon="5.6318">
        <ele>850.58984375</ele>
        <time>2020-02-20T15:16:26Z</time>
      </trkpt>
      <trkpt lat="44.25308" lon="5.63179">
        <ele>850.6328125</ele>
        <time>2020-02-20T15:16:43Z</time>
      </trkpt>
      <trkpt lat="44.25308" lon="5.63179">
        <ele>850.77734375</ele>
        <time>2020-02-20T15:17:08Z</time>
      </trkpt>
      <trkpt lat="44.25308" lon="5.63178">
        <ele>850.8984375</ele>
        <time>2020-02-20T15:17:25Z</time>
      </trkpt>
      <trkpt lat="44.25308" lon="5.63178">
        <ele>850.9140625</ele>
        <time>2020-02-20T15:17:44Z</time>
      </trkpt>
      <trkpt lat="44.25311" lon="5.63188">
        <ele>849.88671875</ele>
        <time>2020-02-20T15:17:55Z</time>
      </trkpt>
      <trkpt lat="44.25315" lon="5.63204">
        <ele>848.2578125</ele>
        <time>2020-02-20T15:18:07Z</time>
      </trkpt>
      <trkpt lat="44.25316" lon="5.63208">
        <ele>847.75390625</ele>
        <time>2020-02-20T15:18:10Z</time>
      </trkpt>
      <trkpt lat="44.25322" lon="5.63223">
        <ele>846.66015625</ele>
        <time>2020-02-20T15:18:22Z</time>
      </trkpt>
      <trkpt lat="44.25328" lon="5.63234">
        <ele>846.1796875</ele>
        <time>2020-02-20T15:18:33Z</time>
      </trkpt>
      <trkpt lat="44.25329" lon="5.63236">
        <ele>846.01953125</ele>
        <time>2020-02-20T15:18:35Z</time>
      </trkpt>
      <trkpt lat="44.25333" lon="5.63243">
        <ele>845.63671875</ele>
        <time>2020-02-20T15:18:41Z</time>
      </trkpt>
      <trkpt lat="44.25334" lon="5.63246">
        <ele>845.3828125</ele>
        <time>2020-02-20T15:18:43Z</time>
      </trkpt>
      <trkpt lat="44.25338" lon="5.63253">
        <ele>845.0546875</ele>
        <time>2020-02-20T15:18:48Z</time>
      </trkpt>
      <trkpt lat="44.25344" lon="5.6326">
        <ele>845.33203125</ele>
        <time>2020-02-20T15:18:55Z</time>
      </trkpt>
      <trkpt lat="44.25349" lon="5.63263">
        <ele>846.04296875</ele>
        <time>2020-02-20T15:19:00Z</time>
      </trkpt>
      <trkpt lat="44.25352" lon="5.63268">
        <ele>846.0390625</ele>
        <time>2020-02-20T15:19:04Z</time>
      </trkpt>
      <trkpt lat="44.25362" lon="5.63278">
        <ele>846.8046875</ele>
        <time>2020-02-20T15:19:15Z</time>
      </trkpt>
      <trkpt lat="44.25371" lon="5.63292">
        <ele>846.57421875</ele>
        <time>2020-02-20T15:19:27Z</time>
      </trkpt>
      <trkpt lat="44.25377" lon="5.63304">
        <ele>846.203125</ele>
        <time>2020-02-20T15:19:37Z</time>
      </trkpt>
      <trkpt lat="44.25378" lon="5.63308">
        <ele>846.00390625</ele>
        <time>2020-02-20T15:19:40Z</time>
      </trkpt>
      <trkpt lat="44.25378" lon="5.63311">
        <ele>845.796875</ele>
        <time>2020-02-20T15:19:42Z</time>
      </trkpt>
      <trkpt lat="44.25387" lon="5.63326">
        <ele>846.78125</ele>
        <time>2020-02-20T15:19:54Z</time>
      </trkpt>
      <trkpt lat="44.25389" lon="5.63328">
        <ele>847.22265625</ele>
        <time>2020-02-20T15:19:56Z</time>
      </trkpt>
      <trkpt lat="44.25401" lon="5.63336">
        <ele>851.1171875</ele>
        <time>2020-02-20T15:20:08Z</time>
      </trkpt>
      <trkpt lat="44.25408" lon="5.63341">
        <ele>853.5078125</ele>
        <time>2020-02-20T15:20:15Z</time>
      </trkpt>
      <trkpt lat="44.25417" lon="5.63354">
        <ele>857.38671875</ele>
        <time>2020-02-20T15:20:27Z</time>
      </trkpt>
      <trkpt lat="44.25419" lon="5.63363">
        <ele>858.2734375</ele>
        <time>2020-02-20T15:20:37Z</time>
      </trkpt>
      <trkpt lat="44.25419" lon="5.63363">
        <ele>858.234375</ele>
        <time>2020-02-20T15:20:50Z</time>
      </trkpt>
      <trkpt lat="44.25419" lon="5.63364">
        <ele>858.34375</ele>
        <time>2020-02-20T15:21:01Z</time>
      </trkpt>
      <trkpt lat="44.25423" lon="5.63375">
        <ele>860.17578125</ele>
        <time>2020-02-20T15:21:12Z</time>
      </trkpt>
      <trkpt lat="44.25423" lon="5.6338">
        <ele>860.4375</ele>
        <time>2020-02-20T15:21:16Z</time>
      </trkpt>
      <trkpt lat="44.25423" lon="5.63383">
        <ele>860.34375</ele>
        <time>2020-02-20T15:21:18Z</time>
      </trkpt>
      <trkpt lat="44.25425" lon="5.63401">
        <ele>861.4296875</ele>
        <time>2020-02-20T15:21:31Z</time>
      </trkpt>
      <trkpt lat="44.25424" lon="5.63404">
        <ele>861.25</ele>
        <time>2020-02-20T15:21:33Z</time>
      </trkpt>
      <trkpt lat="44.25424" lon="5.63406">
        <ele>861.00390625</ele>
        <time>2020-02-20T15:21:35Z</time>
      </trkpt>
      <trkpt lat="44.25424" lon="5.6341">
        <ele>861.12109375</ele>
        <time>2020-02-20T15:21:37Z</time>
      </trkpt>
      <trkpt lat="44.25422" lon="5.63425">
        <ele>860.50390625</ele>
        <time>2020-02-20T15:21:47Z</time>
      </trkpt>
      <trkpt lat="44.2542" lon="5.6344">
        <ele>859.72265625</ele>
        <time>2020-02-20T15:21:57Z</time>
      </trkpt>
      <trkpt lat="44.25418" lon="5.63453">
        <ele>858.625</ele>
        <time>2020-02-20T15:22:07Z</time>
      </trkpt>
      <trkpt lat="44.25413" lon="5.63469">
        <ele>856.046875</ele>
        <time>2020-02-20T15:22:19Z</time>
      </trkpt>
      <trkpt lat="44.25408" lon="5.6348">
        <ele>853.32421875</ele>
        <time>2020-02-20T15:22:28Z</time>
      </trkpt>
      <trkpt lat="44.25406" lon="5.63485">
        <ele>852.265625</ele>
        <time>2020-02-20T15:22:32Z</time>
      </trkpt>
      <trkpt lat="44.25404" lon="5.63488">
        <ele>851.31640625</ele>
        <time>2020-02-20T15:22:35Z</time>
      </trkpt>
      <trkpt lat="44.25397" lon="5.63502">
        <ele>848.25</ele>
        <time>2020-02-20T15:22:46Z</time>
      </trkpt>
      <trkpt lat="44.25393" lon="5.63514">
        <ele>845.80078125</ele>
        <time>2020-02-20T15:22:56Z</time>
      </trkpt>
      <trkpt lat="44.25384" lon="5.63528">
        <ele>842.0546875</ele>
        <time>2020-02-20T15:23:08Z</time>
      </trkpt>
      <trkpt lat="44.25378" lon="5.63545">
        <ele>839.34375</ele>
        <time>2020-02-20T15:23:20Z</time>
      </trkpt>
      <trkpt lat="44.25376" lon="5.63554">
        <ele>838.171875</ele>
        <time>2020-02-20T15:23:26Z</time>
      </trkpt>
      <trkpt lat="44.25375" lon="5.6356">
        <ele>837.5703125</ele>
        <time>2020-02-20T15:23:30Z</time>
      </trkpt>
      <trkpt lat="44.25374" lon="5.6358">
        <ele>836.31640625</ele>
        <time>2020-02-20T15:23:41Z</time>
      </trkpt>
      <trkpt lat="44.25373" lon="5.63588">
        <ele>835.578125</ele>
        <time>2020-02-20T15:23:46Z</time>
      </trkpt>
      <trkpt lat="44.25376" lon="5.63606">
        <ele>834.98828125</ele>
        <time>2020-02-20T15:23:57Z</time>
      </trkpt>
      <trkpt lat="44.25379" lon="5.63626">
        <ele>834.98046875</ele>
        <time>2020-02-20T15:24:10Z</time>
      </trkpt>
      <trkpt lat="44.25381" lon="5.63632">
        <ele>835.01171875</ele>
        <time>2020-02-20T15:24:14Z</time>
      </trkpt>
      <trkpt lat="44.25383" lon="5.6365">
        <ele>834.85546875</ele>
        <time>2020-02-20T15:24:26Z</time>
      </trkpt>
      <trkpt lat="44.25384" lon="5.63654">
        <ele>834.9140625</ele>
        <time>2020-02-20T15:24:29Z</time>
      </trkpt>
      <trkpt lat="44.25386" lon="5.63672">
        <ele>833.65234375</ele>
        <time>2020-02-20T15:24:42Z</time>
      </trkpt>
      <trkpt lat="44.25386" lon="5.63688">
        <ele>832.2109375</ele>
        <time>2020-02-20T15:24:53Z</time>
      </trkpt>
      <trkpt lat="44.25387" lon="5.63707">
        <ele>830.515625</ele>
        <time>2020-02-20T15:25:05Z</time>
      </trkpt>
      <trkpt lat="44.25389" lon="5.63723">
        <ele>829.12109375</ele>
        <time>2020-02-20T15:25:16Z</time>
      </trkpt>
      <trkpt lat="44.2539" lon="5.63737">
        <ele>827.71484375</ele>
        <time>2020-02-20T15:25:25Z</time>
      </trkpt>
      <trkpt lat="44.25391" lon="5.63745">
        <ele>827.15625</ele>
        <time>2020-02-20T15:25:30Z</time>
      </trkpt>
      <trkpt lat="44.25393" lon="5.6376">
        <ele>826.359375</ele>
        <time>2020-02-20T15:25:40Z</time>
      </trkpt>
      <trkpt lat="44.25395" lon="5.63763">
        <ele>826.48046875</ele>
        <time>2020-02-20T15:25:43Z</time>
      </trkpt>
      <trkpt lat="44.25394" lon="5.63774">
        <ele>825.2265625</ele>
        <time>2020-02-20T15:25:50Z</time>
      </trkpt>
      <trkpt lat="44.25397" lon="5.63793">
        <ele>823.7734375</ele>
        <time>2020-02-20T15:26:03Z</time>
      </trkpt>
      <trkpt lat="44.25398" lon="5.63798">
        <ele>823.65625</ele>
        <time>2020-02-20T15:26:07Z</time>
      </trkpt>
      <trkpt lat="44.254" lon="5.63818">
        <ele>822.32421875</ele>
        <time>2020-02-20T15:26:20Z</time>
      </trkpt>
      <trkpt lat="44.25397" lon="5.63837">
        <ele>818.58984375</ele>
        <time>2020-02-20T15:26:32Z</time>
      </trkpt>
      <trkpt lat="44.25396" lon="5.63838">
        <ele>818.23828125</ele>
        <time>2020-02-20T15:26:33Z</time>
      </trkpt>
      <trkpt lat="44.25396" lon="5.63857">
        <ele>815.37890625</ele>
        <time>2020-02-20T15:26:45Z</time>
      </trkpt>
      <trkpt lat="44.25397" lon="5.63872">
        <ele>813.95703125</ele>
        <time>2020-02-20T15:26:55Z</time>
      </trkpt>
      <trkpt lat="44.254" lon="5.63886">
        <ele>813.44921875</ele>
        <time>2020-02-20T15:27:05Z</time>
      </trkpt>
      <trkpt lat="44.254" lon="5.63888">
        <ele>813.50390625</ele>
        <time>2020-02-20T15:27:06Z</time>
      </trkpt>
      <trkpt lat="44.25404" lon="5.63902">
        <ele>813.19140625</ele>
        <time>2020-02-20T15:27:16Z</time>
      </trkpt>
      <trkpt lat="44.25407" lon="5.63916">
        <ele>812.8515625</ele>
        <time>2020-02-20T15:27:25Z</time>
      </trkpt>
      <trkpt lat="44.25407" lon="5.6392">
        <ele>812.5</ele>
        <time>2020-02-20T15:27:28Z</time>
      </trkpt>
      <trkpt lat="44.25408" lon="5.63929">
        <ele>811.7265625</ele>
        <time>2020-02-20T15:27:34Z</time>
      </trkpt>
      <trkpt lat="44.25406" lon="5.63931">
        <ele>811.2265625</ele>
        <time>2020-02-20T15:27:36Z</time>
      </trkpt>
      <trkpt lat="44.25399" lon="5.63935">
        <ele>808.984375</ele>
        <time>2020-02-20T15:27:50Z</time>
      </trkpt>
      <trkpt lat="44.25397" lon="5.6394">
        <ele>808.5390625</ele>
        <time>2020-02-20T15:28:03Z</time>
      </trkpt>
      <trkpt lat="44.25396" lon="5.63943">
        <ele>808.43359375</ele>
        <time>2020-02-20T15:28:06Z</time>
      </trkpt>
      <trkpt lat="44.2539" lon="5.63957">
        <ele>807.3828125</ele>
        <time>2020-02-20T15:28:17Z</time>
      </trkpt>
      <trkpt lat="44.25387" lon="5.63979">
        <ele>808.2578125</ele>
        <time>2020-02-20T15:28:30Z</time>
      </trkpt>
      <trkpt lat="44.25386" lon="5.63999">
        <ele>809.63671875</ele>
        <time>2020-02-20T15:28:43Z</time>
      </trkpt>
      <trkpt lat="44.25386" lon="5.64017">
        <ele>810.98046875</ele>
        <time>2020-02-20T15:28:55Z</time>
      </trkpt>
      <trkpt lat="44.25384" lon="5.6403">
        <ele>811.96484375</ele>
        <time>2020-02-20T15:29:05Z</time>
      </trkpt>
      <trkpt lat="44.25382" lon="5.64039">
        <ele>812.65625</ele>
        <time>2020-02-20T15:29:11Z</time>
      </trkpt>
      <trkpt lat="44.25386" lon="5.6405">
        <ele>813.4140625</ele>
        <time>2020-02-20T15:29:21Z</time>
      </trkpt>
      <trkpt lat="44.25395" lon="5.64059">
        <ele>814.0078125</ele>
        <time>2020-02-20T15:29:32Z</time>
      </trkpt>
      <trkpt lat="44.25404" lon="5.64064">
        <ele>814.31640625</ele>
        <time>2020-02-20T15:29:41Z</time>
      </trkpt>
      <trkpt lat="44.25413" lon="5.64069">
        <ele>814.73046875</ele>
        <time>2020-02-20T15:29:51Z</time>
      </trkpt>
      <trkpt lat="44.25415" lon="5.64071">
        <ele>814.828125</ele>
        <time>2020-02-20T15:29:53Z</time>
      </trkpt>
      <trkpt lat="44.25428" lon="5.64081">
        <ele>815.41796875</ele>
        <time>2020-02-20T15:30:05Z</time>
      </trkpt>
      <trkpt lat="44.25431" lon="5.64086">
        <ele>815.71875</ele>
        <time>2020-02-20T15:30:09Z</time>
      </trkpt>
      <trkpt lat="44.25435" lon="5.64097">
        <ele>816.5078125</ele>
        <time>2020-02-20T15:30:18Z</time>
      </trkpt>
      <trkpt lat="44.25438" lon="5.64111">
        <ele>817.2578125</ele>
        <time>2020-02-20T15:30:28Z</time>
      </trkpt>
      <trkpt lat="44.25443" lon="5.64124">
        <ele>817.91015625</ele>
        <time>2020-02-20T15:30:38Z</time>
      </trkpt>
      <trkpt lat="44.25447" lon="5.64131">
        <ele>818.41015625</ele>
        <time>2020-02-20T15:30:44Z</time>
      </trkpt>
      <trkpt lat="44.25456" lon="5.64141">
        <ele>819.43359375</ele>
        <time>2020-02-20T15:30:55Z</time>
      </trkpt>
      <trkpt lat="44.25462" lon="5.64151">
        <ele>820.2265625</ele>
        <time>2020-02-20T15:31:05Z</time>
      </trkpt>
      <trkpt lat="44.25468" lon="5.64159">
        <ele>820.7421875</ele>
        <time>2020-02-20T15:31:13Z</time>
      </trkpt>
      <trkpt lat="44.2547" lon="5.6416">
        <ele>820.8046875</ele>
        <time>2020-02-20T15:31:15Z</time>
      </trkpt>
      <trkpt lat="44.25476" lon="5.64171">
        <ele>821.44140625</ele>
        <time>2020-02-20T15:31:25Z</time>
      </trkpt>
      <trkpt lat="44.25481" lon="5.64181">
        <ele>821.703125</ele>
        <time>2020-02-20T15:31:34Z</time>
      </trkpt>
      <trkpt lat="44.25482" lon="5.64193">
        <ele>821.30859375</ele>
        <time>2020-02-20T15:31:44Z</time>
      </trkpt>
      <trkpt lat="44.25484" lon="5.64206">
        <ele>820.796875</ele>
        <time>2020-02-20T15:31:56Z</time>
      </trkpt>
      <trkpt lat="44.25488" lon="5.64216">
        <ele>820.41015625</ele>
        <time>2020-02-20T15:32:07Z</time>
      </trkpt>
      <trkpt lat="44.2549" lon="5.6422">
        <ele>820.25390625</ele>
        <time>2020-02-20T15:32:11Z</time>
      </trkpt>
      <trkpt lat="44.2549" lon="5.64221">
        <ele>820.19140625</ele>
        <time>2020-02-20T15:32:12Z</time>
      </trkpt>
      <trkpt lat="44.25496" lon="5.64228">
        <ele>820.07421875</ele>
        <time>2020-02-20T15:32:23Z</time>
      </trkpt>
      <trkpt lat="44.25496" lon="5.64229">
        <ele>820.01953125</ele>
        <time>2020-02-20T15:32:24Z</time>
      </trkpt>
      <trkpt lat="44.25499" lon="5.64233">
        <ele>819.76953125</ele>
        <time>2020-02-20T15:32:30Z</time>
      </trkpt>
      <trkpt lat="44.25499" lon="5.64234">
        <ele>819.8359375</ele>
        <time>2020-02-20T15:32:31Z</time>
      </trkpt>
      <trkpt lat="44.25501" lon="5.64235">
        <ele>819.90625</ele>
        <time>2020-02-20T15:32:44Z</time>
      </trkpt>
      <trkpt lat="44.25501" lon="5.64235">
        <ele>819.8984375</ele>
        <time>2020-02-20T15:32:46Z</time>
      </trkpt>
      <trkpt lat="44.25501" lon="5.64235">
        <ele>819.89453125</ele>
        <time>2020-02-20T15:32:47Z</time>
      </trkpt>
      <trkpt lat="44.25501" lon="5.64236">
        <ele>819.8515625</ele>
        <time>2020-02-20T15:32:49Z</time>
      </trkpt>
      <trkpt lat="44.25504" lon="5.64241">
        <ele>819.62890625</ele>
        <time>2020-02-20T15:32:57Z</time>
      </trkpt>
      <trkpt lat="44.25508" lon="5.64237">
        <ele>820.80078125</ele>
        <time>2020-02-20T15:33:07Z</time>
      </trkpt>
      <trkpt lat="44.2551" lon="5.64234">
        <ele>821.2265625</ele>
        <time>2020-02-20T15:33:14Z</time>
      </trkpt>
    </trkseg>
  </trk>
</gpx>